<?xml version='1.0' encoding='UTF-8'?><gpx version="1.1" creator="JPX - https://github.com/jenetics/jpx" xmlns="http://www.topografix.com/GPX/1/1"><trk><trkseg><trkpt lat="41.87582936613614" lon="12.822315448604993"><ele>249.0</ele><time>2026-05-02T08:54:00Z</time></trkpt><trkpt lat="41.87581279710243" lon="12.822397089356445"><ele>249.0</ele><time>2026-05-02T08:54:01Z</time></trkpt><trkpt lat="41.875781294174374" lon="12.8225446941116"><ele>249.0</ele><time>2026-05-02T08:54:03Z</time></trkpt><trkpt lat="41.87576432367542" lon="12.822630515317911"><ele>249.0</ele><time>2026-05-02T08:54:04Z</time></trkpt><trkpt lat="41.875744547196206" lon="12.82272455092012"><ele>249.0</ele><time>2026-05-02T08:54:05Z</time></trkpt><trkpt lat="41.87572938347525" lon="12.822830819000808"><ele>249.0</ele><time>2026-05-02T08:54:06Z</time></trkpt><trkpt lat="41.87571699305706" lon="12.822936178185051"><ele>250.0</ele><time>2026-05-02T08:54:07Z</time></trkpt><trkpt lat="41.875702352260504" lon="12.823053511503325"><ele>250.99999999999997</ele><time>2026-05-02T08:54:08Z</time></trkpt><trkpt lat="41.87568902177683" lon="12.823176052376763"><ele>251.99999999999997</ele><time>2026-05-02T08:54:09Z</time></trkpt><trkpt lat="41.87567248962311" lon="12.823289409032112"><ele>253.0</ele><time>2026-05-02T08:54:10Z</time></trkpt><trkpt lat="41.87565561405427" lon="12.823409435685118"><ele>254.0</ele><time>2026-05-02T08:54:11Z</time></trkpt><trkpt lat="41.87562898346699" lon="12.823532053712201"><ele>255.2</ele><time>2026-05-02T08:54:12Z</time></trkpt><trkpt lat="41.87557262923471" lon="12.823643893302062"><ele>256.4</ele><time>2026-05-02T08:54:13Z</time></trkpt><trkpt lat="41.87553388257799" lon="12.823755941128933"><ele>257.6</ele><time>2026-05-02T08:54:14Z</time></trkpt><trkpt lat="41.875494172450146" lon="12.823863281592148"><ele>258.8</ele><time>2026-05-02T08:54:15Z</time></trkpt><trkpt lat="41.875448268789896" lon="12.823976177773918"><ele>260.0</ele><time>2026-05-02T08:54:16Z</time></trkpt><trkpt lat="41.87540230007219" lon="12.824085112762658"><ele>260.0</ele><time>2026-05-02T08:54:17Z</time></trkpt><trkpt lat="41.875359586161416" lon="12.824178718922044"><ele>260.0</ele><time>2026-05-02T08:54:18Z</time></trkpt><trkpt lat="41.87531350049349" lon="12.82427470426736"><ele>260.0</ele><time>2026-05-02T08:54:19Z</time></trkpt><trkpt lat="41.87526524051936" lon="12.82435604964351"><ele>260.0</ele><time>2026-05-02T08:54:20Z</time></trkpt><trkpt lat="41.87521836441369" lon="12.82443433257879"><ele>260.0</ele><time>2026-05-02T08:54:21Z</time></trkpt><trkpt lat="41.87516824916425" lon="12.82451664042317"><ele>260.0</ele><time>2026-05-02T08:54:22Z</time></trkpt><trkpt lat="41.87511630654137" lon="12.824599500378755"><ele>259.8571428571429</ele><time>2026-05-02T08:54:23Z</time></trkpt><trkpt lat="41.8750734705066" lon="12.824677937609618"><ele>259.7142857142857</ele><time>2026-05-02T08:54:24Z</time></trkpt><trkpt lat="41.875025233414036" lon="12.824754825048299"><ele>259.57142857142856</ele><time>2026-05-02T08:54:25Z</time></trkpt><trkpt lat="41.87497574278496" lon="12.824828871831038"><ele>259.42857142857144</ele><time>2026-05-02T08:54:25.999Z</time></trkpt><trkpt lat="41.87493026262041" lon="12.82489955352754"><ele>259.2857142857143</ele><time>2026-05-02T08:54:26.999Z</time></trkpt><trkpt lat="41.87488628427248" lon="12.824967611489855"><ele>259.14285714285717</ele><time>2026-05-02T08:54:27.999Z</time></trkpt><trkpt lat="41.874854079876144" lon="12.8250439451353"><ele>259.0</ele><time>2026-05-02T08:54:28.999Z</time></trkpt><trkpt lat="41.874799305157595" lon="12.825159645771825"><ele>261.5</ele><time>2026-05-02T08:54:30.999Z</time></trkpt><trkpt lat="41.87479265419691" lon="12.825266330664379"><ele>264.0</ele><time>2026-05-02T08:54:33.999Z</time></trkpt><trkpt lat="41.87482537361806" lon="12.825179705400474"><ele>266.5</ele><time>2026-05-02T08:54:42.999Z</time></trkpt><trkpt lat="41.87481506954302" lon="12.825320612570625"><ele>269.0</ele><time>2026-05-02T08:54:43.999Z</time></trkpt><trkpt lat="41.87501831087996" lon="12.825444689386533"><ele>269.5</ele><time>2026-05-02T08:54:44.999Z</time></trkpt><trkpt lat="41.87514401749616" lon="12.82537544440876"><ele>270.0</ele><time>2026-05-02T08:54:46.999Z</time></trkpt><trkpt lat="41.87521230503189" lon="12.825329002756375"><ele>270.5</ele><time>2026-05-02T08:54:47.999Z</time></trkpt><trkpt lat="41.875281586241286" lon="12.825277094806424"><ele>271.0</ele><time>2026-05-02T08:54:48.999Z</time></trkpt><trkpt lat="41.8753539633626" lon="12.825222867301184"><ele>271.5</ele><time>2026-05-02T08:54:49.999Z</time></trkpt><trkpt lat="41.87541869000954" lon="12.825176543744181"><ele>272.0</ele><time>2026-05-02T08:54:50.999Z</time></trkpt><trkpt lat="41.875491026542804" lon="12.825125197098565"><ele>269.0</ele><time>2026-05-02T08:54:51.999Z</time></trkpt><trkpt lat="41.87555945157715" lon="12.825080187166675"><ele>266.0</ele><time>2026-05-02T08:54:52.999Z</time></trkpt><trkpt lat="41.87535247296052" lon="12.82425621396095"><ele>264.8</ele><time>2026-05-02T08:54:53.999Z</time></trkpt><trkpt lat="41.875412297458645" lon="12.824137753389401"><ele>263.6</ele><time>2026-05-02T08:54:54.999Z</time></trkpt><trkpt lat="41.875467941480814" lon="12.824011991483912"><ele>262.4</ele><time>2026-05-02T08:54:55.999Z</time></trkpt><trkpt lat="41.875522200076475" lon="12.823878733109064"><ele>261.2</ele><time>2026-05-02T08:54:56.999Z</time></trkpt><trkpt lat="41.8755731245789" lon="12.823755154398455"><ele>260.0</ele><time>2026-05-02T08:54:57.999Z</time></trkpt><trkpt lat="41.87561886206293" lon="12.823641311303517"><ele>260.0</ele><time>2026-05-02T08:54:58.999Z</time></trkpt><trkpt lat="41.87565799837548" lon="12.823513912917651"><ele>260.0</ele><time>2026-05-02T08:54:59.999Z</time></trkpt><trkpt lat="41.8756837680861" lon="12.823370357238637"><ele>260.0</ele><time>2026-05-02T08:55:00.999Z</time></trkpt><trkpt lat="41.87570306751129" lon="12.82322759728904"><ele>260.0</ele><time>2026-05-02T08:55:01.999Z</time></trkpt><trkpt lat="41.87571805972248" lon="12.823086520712122"><ele>260.0</ele><time>2026-05-02T08:55:02.999Z</time></trkpt><trkpt lat="41.87573846445845" lon="12.8229430304024"><ele>258.8</ele><time>2026-05-02T08:55:03.999Z</time></trkpt><trkpt lat="41.87575062512372" lon="12.822797544534307"><ele>257.6</ele><time>2026-05-02T08:55:04.999Z</time></trkpt><trkpt lat="41.87577221663234" lon="12.82265276397635"><ele>256.4</ele><time>2026-05-02T08:55:05.999Z</time></trkpt><trkpt lat="41.87580070905482" lon="12.822512930300496"><ele>255.2</ele><time>2026-05-02T08:55:06.999Z</time></trkpt><trkpt lat="41.87583093636676" lon="12.82236846465219"><ele>254.0</ele><time>2026-05-02T08:55:07.999Z</time></trkpt><trkpt lat="41.87587079135415" lon="12.822228065486353"><ele>254.2</ele><time>2026-05-02T08:55:08.999Z</time></trkpt><trkpt lat="41.87589710769197" lon="12.822095936444892"><ele>254.39999999999998</ele><time>2026-05-02T08:55:09.999Z</time></trkpt><trkpt lat="41.87593636361862" lon="12.821959355679756"><ele>254.6</ele><time>2026-05-02T08:55:10.999Z</time></trkpt><trkpt lat="41.87597048722645" lon="12.821822311770822"><ele>254.8</ele><time>2026-05-02T08:55:11.999Z</time></trkpt><trkpt lat="41.876003448790435" lon="12.821669606772703"><ele>255.0</ele><time>2026-05-02T08:55:12.999Z</time></trkpt><trkpt lat="41.87603577581011" lon="12.821520945693363"><ele>254.4</ele><time>2026-05-02T08:55:13.999Z</time></trkpt><trkpt lat="41.87605304786152" lon="12.821383190060674"><ele>253.8</ele><time>2026-05-02T08:55:14.999Z</time></trkpt><trkpt lat="41.876086955890145" lon="12.821237988551463"><ele>253.2</ele><time>2026-05-02T08:55:15.999Z</time></trkpt><trkpt lat="41.876116011786" lon="12.821097604985756"><ele>252.6</ele><time>2026-05-02T08:55:16.999Z</time></trkpt><trkpt lat="41.87613535118741" lon="12.820956631620192"><ele>252.0</ele><time>2026-05-02T08:55:17.999Z</time></trkpt><trkpt lat="41.87615080668012" lon="12.820810255668736"><ele>251.39999999999998</ele><time>2026-05-02T08:55:18.999Z</time></trkpt><trkpt lat="41.87615342746835" lon="12.820675298060078"><ele>250.79999999999998</ele><time>2026-05-02T08:55:19.999Z</time></trkpt><trkpt lat="41.876163194329095" lon="12.8205481485876"><ele>250.2</ele><time>2026-05-02T08:55:20.999Z</time></trkpt><trkpt lat="41.87616801276186" lon="12.820434014004428"><ele>249.6</ele><time>2026-05-02T08:55:21.999Z</time></trkpt><trkpt lat="41.876171117915426" lon="12.820340693328445"><ele>249.0</ele><time>2026-05-02T08:55:22.999Z</time></trkpt><trkpt lat="41.87620757055227" lon="12.820192838513856"><ele>248.39999999999998</ele><time>2026-05-02T08:55:24.999Z</time></trkpt><trkpt lat="41.87630106995697" lon="12.820083847939555"><ele>247.79999999999998</ele><time>2026-05-02T08:55:26.999Z</time></trkpt><trkpt lat="41.876388581169834" lon="12.8199418491228"><ele>247.20000000000002</ele><time>2026-05-02T08:55:28.999Z</time></trkpt><trkpt lat="41.87644608669246" lon="12.819865590993462"><ele>246.60000000000002</ele><time>2026-05-02T08:55:29.999Z</time></trkpt><trkpt lat="41.87650845520443" lon="12.819775874634619"><ele>246.0</ele><time>2026-05-02T08:55:30.999Z</time></trkpt><trkpt lat="41.876566891694914" lon="12.819669300528147"><ele>246.0</ele><time>2026-05-02T08:55:31.999Z</time></trkpt><trkpt lat="41.87662078843891" lon="12.819553990213645"><ele>246.00000000000003</ele><time>2026-05-02T08:55:32.999Z</time></trkpt><trkpt lat="41.876676777347384" lon="12.819445102506979"><ele>246.00000000000003</ele><time>2026-05-02T08:55:33.999Z</time></trkpt><trkpt lat="41.87672174830014" lon="12.819335003504264"><ele>246.0</ele><time>2026-05-02T08:55:34.999Z</time></trkpt><trkpt lat="41.876763789043224" lon="12.819215789651409"><ele>246.0</ele><time>2026-05-02T08:55:35.999Z</time></trkpt><trkpt lat="41.87680064103533" lon="12.81909839056709"><ele>246.4</ele><time>2026-05-02T08:55:36.999Z</time></trkpt><trkpt lat="41.87684107971605" lon="12.818986987127223"><ele>246.8</ele><time>2026-05-02T08:55:37.999Z</time></trkpt><trkpt lat="41.87688103570384" lon="12.818866993476618"><ele>247.20000000000002</ele><time>2026-05-02T08:55:38.999Z</time></trkpt><trkpt lat="41.87693109206799" lon="12.81874953172418"><ele>247.60000000000002</ele><time>2026-05-02T08:55:39.999Z</time></trkpt><trkpt lat="41.87697906060818" lon="12.81862695127864"><ele>248.0</ele><time>2026-05-02T08:55:40.999Z</time></trkpt><trkpt lat="41.8770266323028" lon="12.81849841535578"><ele>247.4</ele><time>2026-05-02T08:55:41.999Z</time></trkpt><trkpt lat="41.87706759677206" lon="12.818362627333197"><ele>246.8</ele><time>2026-05-02T08:55:42.999Z</time></trkpt><trkpt lat="41.87711723796986" lon="12.818238842280417"><ele>246.2</ele><time>2026-05-02T08:55:43.999Z</time></trkpt><trkpt lat="41.87717187503897" lon="12.818117305566455"><ele>245.6</ele><time>2026-05-02T08:55:44.999Z</time></trkpt><trkpt lat="41.87723451514962" lon="12.81799400761163"><ele>245.0</ele><time>2026-05-02T08:55:45.999Z</time></trkpt><trkpt lat="41.87729561520277" lon="12.817888987997405"><ele>245.0</ele><time>2026-05-02T08:55:46.999Z</time></trkpt><trkpt lat="41.877360815756845" lon="12.817779217805986"><ele>245.0</ele><time>2026-05-02T08:55:47.999Z</time></trkpt><trkpt lat="41.87743169237265" lon="12.817674141627176"><ele>245.0</ele><time>2026-05-02T08:55:48.999Z</time></trkpt><trkpt lat="41.877508353854324" lon="12.817577888007833"><ele>245.0</ele><time>2026-05-02T08:55:49.999Z</time></trkpt><trkpt lat="41.877587042300156" lon="12.817477437007907"><ele>245.0</ele><time>2026-05-02T08:55:50.999Z</time></trkpt><trkpt lat="41.87766146142247" lon="12.817405778050986"><ele>245.0</ele><time>2026-05-02T08:55:51.999Z</time></trkpt><trkpt lat="41.87773925240731" lon="12.81734733563043"><ele>245.0</ele><time>2026-05-02T08:55:52.999Z</time></trkpt><trkpt lat="41.87780935833847" lon="12.817296420836538"><ele>245.0</ele><time>2026-05-02T08:55:53.999Z</time></trkpt><trkpt lat="41.877880957832296" lon="12.817277312135108"><ele>245.0</ele><time>2026-05-02T08:55:54.999Z</time></trkpt><trkpt lat="41.87798859179084" lon="12.817232991981829"><ele>245.0</ele><time>2026-05-02T08:55:56.999Z</time></trkpt><trkpt lat="41.878113869776726" lon="12.817180407487387"><ele>245.0</ele><time>2026-05-02T08:55:58.999Z</time></trkpt><trkpt lat="41.87818335658659" lon="12.817167106512274"><ele>245.0</ele><time>2026-05-02T08:55:59.999Z</time></trkpt><trkpt lat="41.87825472650111" lon="12.81715555662215"><ele>245.0</ele><time>2026-05-02T08:56:00.999Z</time></trkpt><trkpt lat="41.878314433586866" lon="12.81712826678972"><ele>245.0</ele><time>2026-05-02T08:56:01.999Z</time></trkpt><trkpt lat="41.87838713774345" lon="12.81716900442827"><ele>245.0</ele><time>2026-05-02T08:56:02.999Z</time></trkpt><trkpt lat="41.8784534035311" lon="12.817180437794686"><ele>245.0</ele><time>2026-05-02T08:56:03.999Z</time></trkpt><trkpt lat="41.87853353571968" lon="12.817204898196927"><ele>245.0</ele><time>2026-05-02T08:56:04.999Z</time></trkpt><trkpt lat="41.878612786066626" lon="12.817222606191502"><ele>245.4</ele><time>2026-05-02T08:56:05.999Z</time></trkpt><trkpt lat="41.87870501046764" lon="12.817256854955327"><ele>245.8</ele><time>2026-05-02T08:56:06.999Z</time></trkpt><trkpt lat="41.8787976420003" lon="12.817285231175942"><ele>246.2</ele><time>2026-05-02T08:56:07.999Z</time></trkpt><trkpt lat="41.87889104721002" lon="12.817316480433"><ele>246.6</ele><time>2026-05-02T08:56:08.999Z</time></trkpt><trkpt lat="41.87899224493644" lon="12.817354077112068"><ele>247.0</ele><time>2026-05-02T08:56:09.999Z</time></trkpt><trkpt lat="41.879090436593984" lon="12.81739200733824"><ele>247.0</ele><time>2026-05-02T08:56:10.999Z</time></trkpt><trkpt lat="41.87918644633375" lon="12.817411815912907"><ele>247.0</ele><time>2026-05-02T08:56:11.999Z</time></trkpt><trkpt lat="41.87928172420729" lon="12.817435136466528"><ele>247.0</ele><time>2026-05-02T08:56:12.999Z</time></trkpt><trkpt lat="41.87937972787636" lon="12.817460993048794"><ele>247.0</ele><time>2026-05-02T08:56:13.999Z</time></trkpt><trkpt lat="41.87946994245168" lon="12.817478204698073"><ele>247.0</ele><time>2026-05-02T08:56:14.999Z</time></trkpt><trkpt lat="41.87956854452404" lon="12.817500105447639"><ele>247.39999999999998</ele><time>2026-05-02T08:56:15.999Z</time></trkpt><trkpt lat="41.87966887570462" lon="12.817518356091984"><ele>247.79999999999998</ele><time>2026-05-02T08:56:16.999Z</time></trkpt><trkpt lat="41.87977358104771" lon="12.817529944350603"><ele>248.2</ele><time>2026-05-02T08:56:17.999Z</time></trkpt><trkpt lat="41.8798742051586" lon="12.817525852413686"><ele>248.6</ele><time>2026-05-02T08:56:18.999Z</time></trkpt><trkpt lat="41.87998247086236" lon="12.817525309044003"><ele>249.0</ele><time>2026-05-02T08:56:19.999Z</time></trkpt><trkpt lat="41.88009121963549" lon="12.817515136334372"><ele>248.6</ele><time>2026-05-02T08:56:20.999Z</time></trkpt><trkpt lat="41.88019498005204" lon="12.817501216467262"><ele>248.2</ele><time>2026-05-02T08:56:21.999Z</time></trkpt><trkpt lat="41.880297719618184" lon="12.817481578462354"><ele>247.79999999999998</ele><time>2026-05-02T08:56:22.999Z</time></trkpt><trkpt lat="41.88040087457759" lon="12.817463491440789"><ele>247.39999999999998</ele><time>2026-05-02T08:56:23.999Z</time></trkpt><trkpt lat="41.880512876520584" lon="12.81743123155255"><ele>247.0</ele><time>2026-05-02T08:56:24.999Z</time></trkpt><trkpt lat="41.8806127435099" lon="12.81740388957507"><ele>247.0</ele><time>2026-05-02T08:56:25.999Z</time></trkpt><trkpt lat="41.880714317851684" lon="12.817364516122547"><ele>247.0</ele><time>2026-05-02T08:56:26.999Z</time></trkpt><trkpt lat="41.88082147974923" lon="12.81732059214698"><ele>247.0</ele><time>2026-05-02T08:56:27.999Z</time></trkpt><trkpt lat="41.88092901183642" lon="12.817266754494671"><ele>247.0</ele><time>2026-05-02T08:56:28.999Z</time></trkpt><trkpt lat="41.88102954607204" lon="12.817219428950038"><ele>247.0</ele><time>2026-05-02T08:56:29.999Z</time></trkpt><trkpt lat="41.88113513099246" lon="12.817164654403928"><ele>246.5</ele><time>2026-05-02T08:56:30.999Z</time></trkpt><trkpt lat="41.88123889088184" lon="12.817099002671458"><ele>246.0</ele><time>2026-05-02T08:56:31.999Z</time></trkpt><trkpt lat="41.88134354425675" lon="12.817037409563051"><ele>245.5</ele><time>2026-05-02T08:56:32.999Z</time></trkpt><trkpt lat="41.88145003760905" lon="12.816966081968715"><ele>245.0</ele><time>2026-05-02T08:56:33.999Z</time></trkpt><trkpt lat="41.88155833098506" lon="12.816899303221282"><ele>245.0</ele><time>2026-05-02T08:56:34.999Z</time></trkpt><trkpt lat="41.881665433048624" lon="12.81683334228141"><ele>245.0</ele><time>2026-05-02T08:56:35.999Z</time></trkpt><trkpt lat="41.88177514004399" lon="12.81676927827303"><ele>245.0</ele><time>2026-05-02T08:56:36.999Z</time></trkpt><trkpt lat="41.88188899904413" lon="12.816710507979982"><ele>245.0</ele><time>2026-05-02T08:56:37.999Z</time></trkpt><trkpt lat="41.882003458891056" lon="12.816645161589358"><ele>244.25</ele><time>2026-05-02T08:56:38.999Z</time></trkpt><trkpt lat="41.88212057283514" lon="12.816573830458731"><ele>243.5</ele><time>2026-05-02T08:56:39.999Z</time></trkpt><trkpt lat="41.882242678364335" lon="12.816504850852763"><ele>242.75</ele><time>2026-05-02T08:56:40.999Z</time></trkpt><trkpt lat="41.88236218344888" lon="12.816437889735798"><ele>242.0</ele><time>2026-05-02T08:56:41.999Z</time></trkpt><trkpt lat="41.88248712353008" lon="12.816372868637236"><ele>241.25</ele><time>2026-05-02T08:56:42.999Z</time></trkpt><trkpt lat="41.882615838365155" lon="12.816312799541596"><ele>240.5</ele><time>2026-05-02T08:56:43.999Z</time></trkpt><trkpt lat="41.88274198761401" lon="12.816251938686097"><ele>239.75</ele><time>2026-05-02T08:56:44.999Z</time></trkpt><trkpt lat="41.88287066589142" lon="12.81619232031845"><ele>239.0</ele><time>2026-05-02T08:56:45.999Z</time></trkpt><trkpt lat="41.88299884770272" lon="12.81613896114254"><ele>239.0</ele><time>2026-05-02T08:56:46.999Z</time></trkpt><trkpt lat="41.88312228857755" lon="12.81608788961832"><ele>239.0</ele><time>2026-05-02T08:56:47.999Z</time></trkpt><trkpt lat="41.88324023486311" lon="12.816040624512194"><ele>239.0</ele><time>2026-05-02T08:56:48.999Z</time></trkpt><trkpt lat="41.88334902851496" lon="12.815991833806253"><ele>239.0</ele><time>2026-05-02T08:56:49.999Z</time></trkpt><trkpt lat="41.88346562446495" lon="12.815951583946065"><ele>238.0</ele><time>2026-05-02T08:56:50.999Z</time></trkpt><trkpt lat="41.88358401195454" lon="12.815906278592456"><ele>237.0</ele><time>2026-05-02T08:56:51.999Z</time></trkpt><trkpt lat="41.883704362913925" lon="12.815863751943542"><ele>236.0</ele><time>2026-05-02T08:56:52.999Z</time></trkpt><trkpt lat="41.88382320239603" lon="12.81581643472533"><ele>235.0</ele><time>2026-05-02T08:56:53.999Z</time></trkpt><trkpt lat="41.88394090116501" lon="12.815766234198458"><ele>235.0</ele><time>2026-05-02T08:56:54.999Z</time></trkpt><trkpt lat="41.88405875058155" lon="12.81571047308887"><ele>235.0</ele><time>2026-05-02T08:56:55.999Z</time></trkpt><trkpt lat="41.88416783276013" lon="12.815640680643575"><ele>235.0</ele><time>2026-05-02T08:56:56.999Z</time></trkpt><trkpt lat="41.88425809848157" lon="12.815555574052457"><ele>235.0</ele><time>2026-05-02T08:56:57.999Z</time></trkpt><trkpt lat="41.88434317729413" lon="12.815467463345245"><ele>234.8</ele><time>2026-05-02T08:56:58.999Z</time></trkpt><trkpt lat="41.884430565174284" lon="12.815374772253406"><ele>234.6</ele><time>2026-05-02T08:56:59.999Z</time></trkpt><trkpt lat="41.88451539076325" lon="12.815296696909266"><ele>234.39999999999998</ele><time>2026-05-02T08:57:00.999Z</time></trkpt><trkpt lat="41.88458956132737" lon="12.81522418967804"><ele>234.2</ele><time>2026-05-02T08:57:01.999Z</time></trkpt><trkpt lat="41.884665731647836" lon="12.815171952123139"><ele>234.0</ele><time>2026-05-02T08:57:02.999Z</time></trkpt><trkpt lat="41.88473500578036" lon="12.815126757374228"><ele>234.0</ele><time>2026-05-02T08:57:03.999Z</time></trkpt><trkpt lat="41.88480430209639" lon="12.815100885148283"><ele>234.00000000000003</ele><time>2026-05-02T08:57:04.999Z</time></trkpt><trkpt lat="41.88487353290642" lon="12.81507877495399"><ele>234.0</ele><time>2026-05-02T08:57:05.999Z</time></trkpt><trkpt lat="41.88494309183589" lon="12.815058175484138"><ele>234.0</ele><time>2026-05-02T08:57:06.999Z</time></trkpt><trkpt lat="41.88501022930172" lon="12.815031541754902"><ele>234.00000000000003</ele><time>2026-05-02T08:57:07.999Z</time></trkpt><trkpt lat="41.88507796643317" lon="12.814995792779586"><ele>234.0</ele><time>2026-05-02T08:57:08.999Z</time></trkpt><trkpt lat="41.88514951619244" lon="12.814943173503904"><ele>234.0</ele><time>2026-05-02T08:57:09.999Z</time></trkpt><trkpt lat="41.88521204611278" lon="12.814884226099746"><ele>234.5</ele><time>2026-05-02T08:57:10.999Z</time></trkpt><trkpt lat="41.88527890195291" lon="12.814818904921198"><ele>235.0</ele><time>2026-05-02T08:57:11.999Z</time></trkpt><trkpt lat="41.88532724802662" lon="12.814762560337277"><ele>235.5</ele><time>2026-05-02T08:57:12.999Z</time></trkpt><trkpt lat="41.88537163058074" lon="12.814674797333145"><ele>236.0</ele><time>2026-05-02T08:57:13.999Z</time></trkpt><trkpt lat="41.88541033727308" lon="12.814582417944656"><ele>236.5</ele><time>2026-05-02T08:57:14.999Z</time></trkpt><trkpt lat="41.88544165072709" lon="12.814478561497449"><ele>237.0</ele><time>2026-05-02T08:57:15.999Z</time></trkpt><trkpt lat="41.88547303604024" lon="12.814363790562426"><ele>236.39999999999998</ele><time>2026-05-02T08:57:16.999Z</time></trkpt><trkpt lat="41.88550394325784" lon="12.81425137784901"><ele>235.79999999999998</ele><time>2026-05-02T08:57:17.999Z</time></trkpt><trkpt lat="41.88555466676218" lon="12.814134951081737"><ele>235.2</ele><time>2026-05-02T08:57:18.999Z</time></trkpt><trkpt lat="41.88558079540892" lon="12.814008613595249"><ele>234.6</ele><time>2026-05-02T08:57:19.999Z</time></trkpt><trkpt lat="41.88563791939053" lon="12.813894162174266"><ele>234.0</ele><time>2026-05-02T08:57:20.999Z</time></trkpt><trkpt lat="41.88567808998163" lon="12.813754011998215"><ele>234.0</ele><time>2026-05-02T08:57:21.999Z</time></trkpt><trkpt lat="41.88572386784074" lon="12.81362035450631"><ele>233.99999999999997</ele><time>2026-05-02T08:57:22.999Z</time></trkpt><trkpt lat="41.88577044431455" lon="12.813483202083637"><ele>233.99999999999997</ele><time>2026-05-02T08:57:23.999Z</time></trkpt><trkpt lat="41.88581597301279" lon="12.81334290695683"><ele>234.0</ele><time>2026-05-02T08:57:24.999Z</time></trkpt><trkpt lat="41.88586191071786" lon="12.81320920786698"><ele>234.0</ele><time>2026-05-02T08:57:25.999Z</time></trkpt><trkpt lat="41.885905917667536" lon="12.813070838453626"><ele>234.0</ele><time>2026-05-02T08:57:26.999Z</time></trkpt><trkpt lat="41.885952840450884" lon="12.812935631026484"><ele>233.99999999999997</ele><time>2026-05-02T08:57:27.999Z</time></trkpt><trkpt lat="41.88599578137476" lon="12.812801816660905"><ele>233.99999999999997</ele><time>2026-05-02T08:57:28.999Z</time></trkpt><trkpt lat="41.88603892052528" lon="12.81266671531488"><ele>234.0</ele><time>2026-05-02T08:57:29.999Z</time></trkpt><trkpt lat="41.88609259046782" lon="12.812528677274413"><ele>234.0</ele><time>2026-05-02T08:57:30.999Z</time></trkpt><trkpt lat="41.8861434042412" lon="12.81239641121646"><ele>234.0</ele><time>2026-05-02T08:57:31.999Z</time></trkpt><trkpt lat="41.886192920580974" lon="12.812258894380513"><ele>234.0</ele><time>2026-05-02T08:57:32.999Z</time></trkpt><trkpt lat="41.88624493639564" lon="12.812121415729521"><ele>234.0</ele><time>2026-05-02T08:57:33.999Z</time></trkpt><trkpt lat="41.88629536526471" lon="12.811984361162727"><ele>234.0</ele><time>2026-05-02T08:57:34.999Z</time></trkpt><trkpt lat="41.88634628027061" lon="12.81184964982883"><ele>233.0</ele><time>2026-05-02T08:57:35.999Z</time></trkpt><trkpt lat="41.88639854260277" lon="12.811710796302817"><ele>232.0</ele><time>2026-05-02T08:57:36.999Z</time></trkpt><trkpt lat="41.886451093681416" lon="12.811570231662332"><ele>231.0</ele><time>2026-05-02T08:57:37.999Z</time></trkpt><trkpt lat="41.886508030448674" lon="12.811423325988311"><ele>230.0</ele><time>2026-05-02T08:57:38.999Z</time></trkpt><trkpt lat="41.88656659538676" lon="12.811277017801173"><ele>230.0</ele><time>2026-05-02T08:57:39.999Z</time></trkpt><trkpt lat="41.88662035371873" lon="12.8111240347028"><ele>230.0</ele><time>2026-05-02T08:57:40.999Z</time></trkpt><trkpt lat="41.88667780620488" lon="12.810969430266493"><ele>230.0</ele><time>2026-05-02T08:57:41.999Z</time></trkpt><trkpt lat="41.8867320646321" lon="12.81082453376504"><ele>230.0</ele><time>2026-05-02T08:57:42.999Z</time></trkpt><trkpt lat="41.886784471182516" lon="12.810687818520202"><ele>230.4</ele><time>2026-05-02T08:57:43.999Z</time></trkpt><trkpt lat="41.886833481540876" lon="12.810562978162627"><ele>230.8</ele><time>2026-05-02T08:57:44.999Z</time></trkpt><trkpt lat="41.88687428469239" lon="12.810441068706853"><ele>231.2</ele><time>2026-05-02T08:57:45.999Z</time></trkpt><trkpt lat="41.88692330829573" lon="12.810333594868238"><ele>231.6</ele><time>2026-05-02T08:57:46.999Z</time></trkpt><trkpt lat="41.88698798222348" lon="12.81025771355543"><ele>232.0</ele><time>2026-05-02T08:57:47.999Z</time></trkpt><trkpt lat="41.88705233062015" lon="12.810180767673263"><ele>230.2</ele><time>2026-05-02T08:57:48.999Z</time></trkpt><trkpt lat="41.88713552418826" lon="12.810126819679704"><ele>228.39999999999998</ele><time>2026-05-02T08:57:49.999Z</time></trkpt><trkpt lat="41.88722521783503" lon="12.810065994129696"><ele>226.60000000000002</ele><time>2026-05-02T08:57:50.999Z</time></trkpt><trkpt lat="41.88731969165348" lon="12.81000252979686"><ele>224.8</ele><time>2026-05-02T08:57:51.999Z</time></trkpt><trkpt lat="41.88741405719378" lon="12.80993817088723"><ele>223.0</ele><time>2026-05-02T08:57:52.999Z</time></trkpt><trkpt lat="41.88750658646946" lon="12.80985699106915"><ele>223.5</ele><time>2026-05-02T08:57:53.999Z</time></trkpt><trkpt lat="41.887611277667695" lon="12.809787069101148"><ele>224.0</ele><time>2026-05-02T08:57:54.999Z</time></trkpt><trkpt lat="41.8877197872745" lon="12.80971031746869"><ele>224.5</ele><time>2026-05-02T08:57:55.999Z</time></trkpt><trkpt lat="41.88782647140318" lon="12.809636206101564"><ele>225.0</ele><time>2026-05-02T08:57:56.999Z</time></trkpt><trkpt lat="41.88793334434954" lon="12.809563871335474"><ele>225.0</ele><time>2026-05-02T08:57:57.999Z</time></trkpt><trkpt lat="41.88804217504015" lon="12.809492149568293"><ele>225.0</ele><time>2026-05-02T08:57:58.999Z</time></trkpt><trkpt lat="41.88815255627001" lon="12.809421519833746"><ele>225.0</ele><time>2026-05-02T08:57:59.999Z</time></trkpt><trkpt lat="41.88826409883746" lon="12.809349601477539"><ele>225.0</ele><time>2026-05-02T08:58:00.999Z</time></trkpt><trkpt lat="41.8883787775573" lon="12.809277175747788"><ele>223.5</ele><time>2026-05-02T08:58:01.999Z</time></trkpt><trkpt lat="41.88848961719595" lon="12.809194897448203"><ele>222.0</ele><time>2026-05-02T08:58:02.999Z</time></trkpt><trkpt lat="41.88860509395493" lon="12.809115530278763"><ele>220.5</ele><time>2026-05-02T08:58:03.999Z</time></trkpt><trkpt lat="41.88871788434013" lon="12.80903122563913"><ele>219.0</ele><time>2026-05-02T08:58:04.999Z</time></trkpt><trkpt lat="41.8888345949935" lon="12.808949219003221"><ele>219.0</ele><time>2026-05-02T08:58:05.999Z</time></trkpt><trkpt lat="41.88895583305795" lon="12.808864123299204"><ele>219.0</ele><time>2026-05-02T08:58:06.999Z</time></trkpt><trkpt lat="41.889078099836034" lon="12.80878087704728"><ele>219.0</ele><time>2026-05-02T08:58:07.999Z</time></trkpt><trkpt lat="41.88919859239548" lon="12.808696043347785"><ele>219.0</ele><time>2026-05-02T08:58:08.999Z</time></trkpt><trkpt lat="41.88931660910971" lon="12.808614832957813"><ele>220.0</ele><time>2026-05-02T08:58:09.999Z</time></trkpt><trkpt lat="41.889431030152906" lon="12.80853040757401"><ele>221.0</ele><time>2026-05-02T08:58:10.999Z</time></trkpt><trkpt lat="41.88953742967534" lon="12.808448973475011"><ele>222.0</ele><time>2026-05-02T08:58:11.999Z</time></trkpt><trkpt lat="41.88964087549222" lon="12.80837369461831"><ele>223.0</ele><time>2026-05-02T08:58:12.999Z</time></trkpt><trkpt lat="41.88974572919898" lon="12.808346390456148"><ele>223.0</ele><time>2026-05-02T08:58:13.999Z</time></trkpt><trkpt lat="41.88984958902413" lon="12.80833657553329"><ele>223.0</ele><time>2026-05-02T08:58:14.999Z</time></trkpt><trkpt lat="41.889959084542184" lon="12.808361659272729"><ele>223.0</ele><time>2026-05-02T08:58:15.999Z</time></trkpt><trkpt lat="41.89006066908906" lon="12.8084069993472"><ele>223.0</ele><time>2026-05-02T08:58:16.999Z</time></trkpt><trkpt lat="41.89017092596026" lon="12.808447537961218"><ele>223.0</ele><time>2026-05-02T08:58:17.999Z</time></trkpt><trkpt lat="41.89027965551473" lon="12.808487759647525"><ele>224.0</ele><time>2026-05-02T08:58:18.999Z</time></trkpt><trkpt lat="41.89038623695402" lon="12.808527262730644"><ele>225.0</ele><time>2026-05-02T08:58:19.999Z</time></trkpt><trkpt lat="41.89049912711839" lon="12.808553159774346"><ele>226.0</ele><time>2026-05-02T08:58:20.999Z</time></trkpt><trkpt lat="41.890600837453974" lon="12.808594350340437"><ele>227.0</ele><time>2026-05-02T08:58:21.999Z</time></trkpt><trkpt lat="41.89068185717794" lon="12.808630646188892"><ele>228.0</ele><time>2026-05-02T08:58:22.999Z</time></trkpt><trkpt lat="41.89078119327537" lon="12.808651799435282"><ele>228.0</ele><time>2026-05-02T08:58:24.999Z</time></trkpt><trkpt lat="41.89085322979996" lon="12.808671570641854"><ele>228.0</ele><time>2026-05-02T08:58:36.999Z</time></trkpt><trkpt lat="41.89093531132504" lon="12.80869819496783"><ele>228.0</ele><time>2026-05-02T08:58:39.999Z</time></trkpt><trkpt lat="41.890871005577075" lon="12.808681212809672"><ele>228.0</ele><time>2026-05-02T08:59:16.999Z</time></trkpt><trkpt lat="41.89080404846829" lon="12.808644926647338"><ele>228.0</ele><time>2026-05-02T08:59:20.999Z</time></trkpt><trkpt lat="41.89077600977094" lon="12.808568699203686"><ele>228.0</ele><time>2026-05-02T08:59:32.999Z</time></trkpt><trkpt lat="41.89085408100585" lon="12.808495501100035"><ele>228.2</ele><time>2026-05-02T08:59:34.999Z</time></trkpt><trkpt lat="41.890939952658485" lon="12.808385209699214"><ele>228.4</ele><time>2026-05-02T08:59:36.999Z</time></trkpt><trkpt lat="41.891032976978764" lon="12.80826205363565"><ele>228.59999999999997</ele><time>2026-05-02T08:59:38.999Z</time></trkpt><trkpt lat="41.89107697102514" lon="12.808195629219085"><ele>228.79999999999998</ele><time>2026-05-02T08:59:39.999Z</time></trkpt><trkpt lat="41.891123805478806" lon="12.808128537248974"><ele>229.0</ele><time>2026-05-02T08:59:40.999Z</time></trkpt><trkpt lat="41.89117242019294" lon="12.80805526918731"><ele>229.0</ele><time>2026-05-02T08:59:41.999Z</time></trkpt><trkpt lat="41.89122512074824" lon="12.807978045769332"><ele>228.99999999999997</ele><time>2026-05-02T08:59:42.999Z</time></trkpt><trkpt lat="41.89128532264905" lon="12.807885684413899"><ele>228.99999999999997</ele><time>2026-05-02T08:59:43.999Z</time></trkpt><trkpt lat="41.89134967427658" lon="12.80779819191161"><ele>229.0</ele><time>2026-05-02T08:59:44.999Z</time></trkpt><trkpt lat="41.89141664893127" lon="12.807697509619446"><ele>229.0</ele><time>2026-05-02T08:59:45.999Z</time></trkpt><trkpt lat="41.89148522060857" lon="12.807592951639867"><ele>228.83333333333331</ele><time>2026-05-02T08:59:46.999Z</time></trkpt><trkpt lat="41.89155039616149" lon="12.807495575708057"><ele>228.66666666666666</ele><time>2026-05-02T08:59:47.999Z</time></trkpt><trkpt lat="41.89161773056131" lon="12.80741929702632"><ele>228.5</ele><time>2026-05-02T08:59:48.999Z</time></trkpt><trkpt lat="41.89167314773876" lon="12.807342273835697"><ele>228.33333333333331</ele><time>2026-05-02T08:59:49.999Z</time></trkpt><trkpt lat="41.89172180285452" lon="12.80726933057908"><ele>228.16666666666666</ele><time>2026-05-02T08:59:50.999Z</time></trkpt><trkpt lat="41.891771905484475" lon="12.807202989409625"><ele>228.0</ele><time>2026-05-02T08:59:51.999Z</time></trkpt><trkpt lat="41.8918242033539" lon="12.807119883488065"><ele>227.33333333333334</ele><time>2026-05-02T08:59:52.999Z</time></trkpt><trkpt lat="41.891876662297314" lon="12.807035658424372"><ele>226.66666666666669</ele><time>2026-05-02T08:59:53.999Z</time></trkpt><trkpt lat="41.89193177116783" lon="12.806956768342802"><ele>226.0</ele><time>2026-05-02T08:59:54.999Z</time></trkpt><trkpt lat="41.891984306297985" lon="12.806875709758105"><ele>225.33333333333334</ele><time>2026-05-02T08:59:55.999Z</time></trkpt><trkpt lat="41.892035666394975" lon="12.806792662741739"><ele>224.66666666666669</ele><time>2026-05-02T08:59:56.999Z</time></trkpt><trkpt lat="41.8920887350066" lon="12.806716004673675"><ele>224.0</ele><time>2026-05-02T08:59:57.999Z</time></trkpt><trkpt lat="41.8921391580271" lon="12.806641982393863"><ele>224.00000000000003</ele><time>2026-05-02T08:59:58.999Z</time></trkpt><trkpt lat="41.89218775378155" lon="12.8065797433805"><ele>224.0</ele><time>2026-05-02T08:59:59.999Z</time></trkpt><trkpt lat="41.892233081626344" lon="12.806516268438754"><ele>224.0</ele><time>2026-05-02T09:00:00.999Z</time></trkpt><trkpt lat="41.89228433636641" lon="12.806444626479667"><ele>224.0</ele><time>2026-05-02T09:00:01.999Z</time></trkpt><trkpt lat="41.89233726672729" lon="12.806363383605893"><ele>224.00000000000003</ele><time>2026-05-02T09:00:02.999Z</time></trkpt><trkpt lat="41.89239092955944" lon="12.806282554111649"><ele>224.0</ele><time>2026-05-02T09:00:03.999Z</time></trkpt><trkpt lat="41.89244876254406" lon="12.806201502616316"><ele>224.0</ele><time>2026-05-02T09:00:04.999Z</time></trkpt><trkpt lat="41.89250470202205" lon="12.806120536428427"><ele>223.99999999999997</ele><time>2026-05-02T09:00:05.999Z</time></trkpt><trkpt lat="41.89255834864286" lon="12.806038065573146"><ele>223.99999999999997</ele><time>2026-05-02T09:00:06.999Z</time></trkpt><trkpt lat="41.8926742420214" lon="12.8058946387879"><ele>224.0</ele><time>2026-05-02T09:00:08.999Z</time></trkpt><trkpt lat="41.892725922046694" lon="12.805822885114413"><ele>224.0</ele><time>2026-05-02T09:00:09.999Z</time></trkpt><trkpt lat="41.89277190549981" lon="12.805756045710615"><ele>223.71428571428572</ele><time>2026-05-02T09:00:10.999Z</time></trkpt><trkpt lat="41.892812094960114" lon="12.80568677882331"><ele>223.42857142857144</ele><time>2026-05-02T09:00:11.999Z</time></trkpt><trkpt lat="41.892862810537814" lon="12.805621431787243"><ele>223.14285714285714</ele><time>2026-05-02T09:00:12.999Z</time></trkpt><trkpt lat="41.89291146289994" lon="12.805557474078128"><ele>222.85714285714286</ele><time>2026-05-02T09:00:13.999Z</time></trkpt><trkpt lat="41.89296489904946" lon="12.805492546407917"><ele>222.57142857142858</ele><time>2026-05-02T09:00:14.999Z</time></trkpt><trkpt lat="41.89301009578793" lon="12.80542581998242"><ele>222.28571428571428</ele><time>2026-05-02T09:00:15.999Z</time></trkpt><trkpt lat="41.89305427317347" lon="12.805357856020656"><ele>222.0</ele><time>2026-05-02T09:00:16.999Z</time></trkpt><trkpt lat="41.89310423552204" lon="12.805292744828288"><ele>222.0</ele><time>2026-05-02T09:00:17.999Z</time></trkpt><trkpt lat="41.893149554161894" lon="12.805225595069363"><ele>222.0</ele><time>2026-05-02T09:00:18.999Z</time></trkpt><trkpt lat="41.89319305881178" lon="12.805161028121585"><ele>222.0</ele><time>2026-05-02T09:00:19.999Z</time></trkpt><trkpt lat="41.89324827561323" lon="12.805092273828599"><ele>222.0</ele><time>2026-05-02T09:00:20.999Z</time></trkpt><trkpt lat="41.89329483831586" lon="12.805025020635156"><ele>222.0</ele><time>2026-05-02T09:00:21.999Z</time></trkpt><trkpt lat="41.89334577833933" lon="12.804950138110335"><ele>222.0</ele><time>2026-05-02T09:00:23Z</time></trkpt><trkpt lat="41.89339256201512" lon="12.804878692006838"><ele>222.0</ele><time>2026-05-02T09:00:24Z</time></trkpt><trkpt lat="41.89344316840069" lon="12.804805679035239"><ele>222.2</ele><time>2026-05-02T09:00:25Z</time></trkpt><trkpt lat="41.89350260059599" lon="12.804722767183398"><ele>222.39999999999998</ele><time>2026-05-02T09:00:26Z</time></trkpt><trkpt lat="41.89356758957005" lon="12.804636588806869"><ele>222.60000000000002</ele><time>2026-05-02T09:00:27Z</time></trkpt><trkpt lat="41.89362945153583" lon="12.804546121170048"><ele>222.8</ele><time>2026-05-02T09:00:28Z</time></trkpt><trkpt lat="41.893694099656464" lon="12.804445713028848"><ele>223.0</ele><time>2026-05-02T09:00:29Z</time></trkpt><trkpt lat="41.89376397413978" lon="12.804345817835618"><ele>223.2</ele><time>2026-05-02T09:00:30Z</time></trkpt><trkpt lat="41.893834412436796" lon="12.8042320763255"><ele>223.4</ele><time>2026-05-02T09:00:31Z</time></trkpt><trkpt lat="41.89390989203346" lon="12.804126004007417"><ele>223.59999999999997</ele><time>2026-05-02T09:00:32Z</time></trkpt><trkpt lat="41.89398493922853" lon="12.804020761050277"><ele>223.79999999999998</ele><time>2026-05-02T09:00:33Z</time></trkpt><trkpt lat="41.89406631630482" lon="12.803907963828992"><ele>224.0</ele><time>2026-05-02T09:00:34Z</time></trkpt><trkpt lat="41.894145143492075" lon="12.803793215241225"><ele>224.0</ele><time>2026-05-02T09:00:35Z</time></trkpt><trkpt lat="41.89422367333004" lon="12.803676513762772"><ele>224.0</ele><time>2026-05-02T09:00:36Z</time></trkpt><trkpt lat="41.89430484505117" lon="12.803553882795805"><ele>224.0</ele><time>2026-05-02T09:00:37Z</time></trkpt><trkpt lat="41.89439095085625" lon="12.803433670797943"><ele>224.0</ele><time>2026-05-02T09:00:38Z</time></trkpt><trkpt lat="41.89447579415381" lon="12.80330829525327"><ele>223.5</ele><time>2026-05-02T09:00:39Z</time></trkpt><trkpt lat="41.89456433643281" lon="12.803180183195009"><ele>223.0</ele><time>2026-05-02T09:00:40Z</time></trkpt><trkpt lat="41.89465425307326" lon="12.803056603174019"><ele>222.5</ele><time>2026-05-02T09:00:41Z</time></trkpt><trkpt lat="41.89474823967014" lon="12.802930260760984"><ele>222.0</ele><time>2026-05-02T09:00:42Z</time></trkpt><trkpt lat="41.894839121404665" lon="12.802789912144824"><ele>222.0</ele><time>2026-05-02T09:00:43Z</time></trkpt><trkpt lat="41.89494861700296" lon="12.802666422297944"><ele>222.0</ele><time>2026-05-02T09:00:44Z</time></trkpt><trkpt lat="41.89504494129234" lon="12.8025321173532"><ele>222.0</ele><time>2026-05-02T09:00:45Z</time></trkpt><trkpt lat="41.8951411630621" lon="12.802394076300187"><ele>222.0</ele><time>2026-05-02T09:00:46Z</time></trkpt><trkpt lat="41.89522535732267" lon="12.8022408034923"><ele>221.66666666666669</ele><time>2026-05-02T09:00:47Z</time></trkpt><trkpt lat="41.895434299281334" lon="12.801971608300148"><ele>221.33333333333334</ele><time>2026-05-02T09:00:49Z</time></trkpt><trkpt lat="41.895531972307786" lon="12.801830394448745"><ele>221.0</ele><time>2026-05-02T09:00:50Z</time></trkpt><trkpt lat="41.895626904863555" lon="12.801693651038509"><ele>220.0</ele><time>2026-05-02T09:00:51Z</time></trkpt><trkpt lat="41.895713542233" lon="12.80154430829956"><ele>219.0</ele><time>2026-05-02T09:00:52Z</time></trkpt><trkpt lat="41.89582054044838" lon="12.80142075049775"><ele>218.0</ele><time>2026-05-02T09:00:53Z</time></trkpt><trkpt lat="41.89590718078562" lon="12.80126828653803"><ele>217.0</ele><time>2026-05-02T09:00:54Z</time></trkpt><trkpt lat="41.89601295277924" lon="12.801147117266485"><ele>216.5</ele><time>2026-05-02T09:00:55Z</time></trkpt><trkpt lat="41.89609875448573" lon="12.800997575401661"><ele>216.0</ele><time>2026-05-02T09:00:56Z</time></trkpt><trkpt lat="41.896191171117806" lon="12.800865280070425"><ele>215.5</ele><time>2026-05-02T09:00:57Z</time></trkpt><trkpt lat="41.89628277311764" lon="12.800734027282596"><ele>215.0</ele><time>2026-05-02T09:00:58Z</time></trkpt><trkpt lat="41.896374084983776" lon="12.800603802117152"><ele>215.0</ele><time>2026-05-02T09:00:59Z</time></trkpt><trkpt lat="41.896465461376" lon="12.800469960171805"><ele>215.0</ele><time>2026-05-02T09:01:00Z</time></trkpt><trkpt lat="41.89656844752001" lon="12.800345264618842"><ele>215.0</ele><time>2026-05-02T09:01:01Z</time></trkpt><trkpt lat="41.89666285338437" lon="12.800207845876557"><ele>215.0</ele><time>2026-05-02T09:01:02Z</time></trkpt><trkpt lat="41.896760456721665" lon="12.800072618126878"><ele>213.5</ele><time>2026-05-02T09:01:02.999Z</time></trkpt><trkpt lat="41.89685656484164" lon="12.799925015979811"><ele>212.0</ele><time>2026-05-02T09:01:03.999Z</time></trkpt><trkpt lat="41.89695708721994" lon="12.79977872593004"><ele>210.5</ele><time>2026-05-02T09:01:04.999Z</time></trkpt><trkpt lat="41.897055292723095" lon="12.799635599891495"><ele>209.0</ele><time>2026-05-02T09:01:05.999Z</time></trkpt><trkpt lat="41.89715622248037" lon="12.799489489834679"><ele>209.0</ele><time>2026-05-02T09:01:06.999Z</time></trkpt><trkpt lat="41.897257453555824" lon="12.799341241050556"><ele>209.0</ele><time>2026-05-02T09:01:07.999Z</time></trkpt><trkpt lat="41.89736007490671" lon="12.799192566760015"><ele>209.0</ele><time>2026-05-02T09:01:08.999Z</time></trkpt><trkpt lat="41.89747242068908" lon="12.799066206316546"><ele>209.0</ele><time>2026-05-02T09:01:09.999Z</time></trkpt><trkpt lat="41.89757574314846" lon="12.798919893060125"><ele>208.0</ele><time>2026-05-02T09:01:10.999Z</time></trkpt><trkpt lat="41.89768319104231" lon="12.798767737628939"><ele>207.0</ele><time>2026-05-02T09:01:11.999Z</time></trkpt><trkpt lat="41.8977907164945" lon="12.798615472567839"><ele>206.0</ele><time>2026-05-02T09:01:12.999Z</time></trkpt><trkpt lat="41.89789706395887" lon="12.79846487560934"><ele>205.75</ele><time>2026-05-02T09:01:13.999Z</time></trkpt><trkpt lat="41.89800167913258" lon="12.798315228664867"><ele>205.5</ele><time>2026-05-02T09:01:14.999Z</time></trkpt><trkpt lat="41.8981082371873" lon="12.798160626711285"><ele>205.25</ele><time>2026-05-02T09:01:15.999Z</time></trkpt><trkpt lat="41.89820217238357" lon="12.79802260305832"><ele>205.0</ele><time>2026-05-02T09:01:16.999Z</time></trkpt><trkpt lat="41.89828322498524" lon="12.797873918041626"><ele>205.0</ele><time>2026-05-02T09:01:17.999Z</time></trkpt><trkpt lat="41.898382246987666" lon="12.797761220532434"><ele>205.0</ele><time>2026-05-02T09:01:18.999Z</time></trkpt><trkpt lat="41.89845782991576" lon="12.797643895656478"><ele>205.0</ele><time>2026-05-02T09:01:19.999Z</time></trkpt><trkpt lat="41.89853739268208" lon="12.797529729652247"><ele>205.0</ele><time>2026-05-02T09:01:20.999Z</time></trkpt><trkpt lat="41.89861587632338" lon="12.797412063368668"><ele>204.8</ele><time>2026-05-02T09:01:21.999Z</time></trkpt><trkpt lat="41.898685274996325" lon="12.797307263954194"><ele>204.6</ele><time>2026-05-02T09:01:22.999Z</time></trkpt><trkpt lat="41.89875050103971" lon="12.797213739417037"><ele>204.39999999999998</ele><time>2026-05-02T09:01:23.999Z</time></trkpt><trkpt lat="41.89881605506917" lon="12.797123269381526"><ele>204.2</ele><time>2026-05-02T09:01:24.999Z</time></trkpt><trkpt lat="41.89888507939206" lon="12.797020475537732"><ele>204.0</ele><time>2026-05-02T09:01:25.999Z</time></trkpt><trkpt lat="41.89895766347428" lon="12.796919032164267"><ele>203.79999999999998</ele><time>2026-05-02T09:01:26.999Z</time></trkpt><trkpt lat="41.89903038008606" lon="12.796807963876116"><ele>203.6</ele><time>2026-05-02T09:01:27.999Z</time></trkpt><trkpt lat="41.89911083119843" lon="12.79669885675628"><ele>203.4</ele><time>2026-05-02T09:01:28.999Z</time></trkpt><trkpt lat="41.89918519857707" lon="12.796589122910982"><ele>203.2</ele><time>2026-05-02T09:01:29.999Z</time></trkpt><trkpt lat="41.8992558434398" lon="12.796489551990621"><ele>203.0</ele><time>2026-05-02T09:01:30.999Z</time></trkpt><trkpt lat="41.899320501008205" lon="12.796397651039367"><ele>203.0</ele><time>2026-05-02T09:01:31.999Z</time></trkpt><trkpt lat="41.89937994873709" lon="12.79630248534969"><ele>203.0</ele><time>2026-05-02T09:01:32.999Z</time></trkpt><trkpt lat="41.899433002498334" lon="12.796210936839122"><ele>203.0</ele><time>2026-05-02T09:01:33.999Z</time></trkpt><trkpt lat="41.899485665700276" lon="12.796099600794616"><ele>203.0</ele><time>2026-05-02T09:01:34.999Z</time></trkpt><trkpt lat="41.8995450443294" lon="12.795985210460024"><ele>203.0</ele><time>2026-05-02T09:01:35.999Z</time></trkpt><trkpt lat="41.899597312166236" lon="12.79585823138404"><ele>203.0</ele><time>2026-05-02T09:01:36.999Z</time></trkpt><trkpt lat="41.89965614746516" lon="12.795724819206121"><ele>203.0</ele><time>2026-05-02T09:01:37.999Z</time></trkpt><trkpt lat="41.89971599844661" lon="12.795585578312014"><ele>203.0</ele><time>2026-05-02T09:01:38.999Z</time></trkpt><trkpt lat="41.89978306619318" lon="12.795430440401846"><ele>203.0</ele><time>2026-05-02T09:01:39.999Z</time></trkpt><trkpt lat="41.899859620244634" lon="12.795276592593936"><ele>202.25</ele><time>2026-05-02T09:01:40.999Z</time></trkpt><trkpt lat="41.899928088199246" lon="12.795114896925162"><ele>201.5</ele><time>2026-05-02T09:01:41.999Z</time></trkpt><trkpt lat="41.899999397369996" lon="12.794946357956592"><ele>200.75</ele><time>2026-05-02T09:01:42.999Z</time></trkpt><trkpt lat="41.90007488431261" lon="12.794777534211134"><ele>200.0</ele><time>2026-05-02T09:01:43.999Z</time></trkpt><trkpt lat="41.90014519272103" lon="12.794615544273505"><ele>200.0</ele><time>2026-05-02T09:01:44.999Z</time></trkpt><trkpt lat="41.90021572283515" lon="12.794453116128812"><ele>200.0</ele><time>2026-05-02T09:01:45.999Z</time></trkpt><trkpt lat="41.90028660036808" lon="12.794286785730375"><ele>200.0</ele><time>2026-05-02T09:01:46.999Z</time></trkpt><trkpt lat="41.90035857695368" lon="12.79411990059814"><ele>200.0</ele><time>2026-05-02T09:01:47.999Z</time></trkpt><trkpt lat="41.900433886004386" lon="12.793955690545717"><ele>199.5</ele><time>2026-05-02T09:01:48.999Z</time></trkpt><trkpt lat="41.9005054767279" lon="12.79379065106773"><ele>199.0</ele><time>2026-05-02T09:01:49.999Z</time></trkpt><trkpt lat="41.90057948644874" lon="12.793627805336675"><ele>198.5</ele><time>2026-05-02T09:01:50.999Z</time></trkpt><trkpt lat="41.90064761540852" lon="12.793476017495976"><ele>198.0</ele><time>2026-05-02T09:01:51.999Z</time></trkpt><trkpt lat="41.900712628622216" lon="12.793334859680941"><ele>196.5</ele><time>2026-05-02T09:01:52.999Z</time></trkpt><trkpt lat="41.90077499055682" lon="12.793191502444037"><ele>195.0</ele><time>2026-05-02T09:01:53.999Z</time></trkpt><trkpt lat="41.90083141718152" lon="12.793047346230303"><ele>193.5</ele><time>2026-05-02T09:01:54.999Z</time></trkpt><trkpt lat="41.90087912159749" lon="12.792895021569594"><ele>192.0</ele><time>2026-05-02T09:01:55.999Z</time></trkpt><trkpt lat="41.90090847797571" lon="12.792726266003449"><ele>192.0</ele><time>2026-05-02T09:01:56.999Z</time></trkpt><trkpt lat="41.90095298210169" lon="12.792557138370842"><ele>192.0</ele><time>2026-05-02T09:01:57.999Z</time></trkpt><trkpt lat="41.9009846359775" lon="12.792373622767967"><ele>192.0</ele><time>2026-05-02T09:01:58.999Z</time></trkpt><trkpt lat="41.90100079438533" lon="12.792191943167168"><ele>192.0</ele><time>2026-05-02T09:01:59.999Z</time></trkpt><trkpt lat="41.90102840573842" lon="12.792024139662294"><ele>192.0</ele><time>2026-05-02T09:02:00.999Z</time></trkpt><trkpt lat="41.9010720625385" lon="12.79185747033893"><ele>192.0</ele><time>2026-05-02T09:02:01.999Z</time></trkpt><trkpt lat="41.901101067821834" lon="12.79168212315889"><ele>192.0</ele><time>2026-05-02T09:02:02.999Z</time></trkpt><trkpt lat="41.90112795018784" lon="12.791496538747893"><ele>192.0</ele><time>2026-05-02T09:02:03.999Z</time></trkpt><trkpt lat="41.90115764981197" lon="12.791312897296867"><ele>190.75</ele><time>2026-05-02T09:02:04.999Z</time></trkpt><trkpt lat="41.901188252158015" lon="12.791120957009605"><ele>189.5</ele><time>2026-05-02T09:02:05.999Z</time></trkpt><trkpt lat="41.901217163974174" lon="12.790929426385793"><ele>188.25</ele><time>2026-05-02T09:02:06.999Z</time></trkpt><trkpt lat="41.90124741811124" lon="12.790733012725326"><ele>187.0</ele><time>2026-05-02T09:02:07.999Z</time></trkpt><trkpt lat="41.90128128040165" lon="12.790532169939048"><ele>186.25</ele><time>2026-05-02T09:02:08.999Z</time></trkpt><trkpt lat="41.90131562841126" lon="12.790327798636389"><ele>185.5</ele><time>2026-05-02T09:02:09.999Z</time></trkpt><trkpt lat="41.90134336991001" lon="12.790131817749263"><ele>184.75</ele><time>2026-05-02T09:02:10.999Z</time></trkpt><trkpt lat="41.901374762104155" lon="12.789948623755624"><ele>184.0</ele><time>2026-05-02T09:02:11.999Z</time></trkpt><trkpt lat="41.90140625869334" lon="12.78975888644697"><ele>183.25</ele><time>2026-05-02T09:02:12.999Z</time></trkpt><trkpt lat="41.90143569505366" lon="12.789573153828783"><ele>182.5</ele><time>2026-05-02T09:02:13.999Z</time></trkpt><trkpt lat="41.90146135079718" lon="12.789383269236245"><ele>181.75</ele><time>2026-05-02T09:02:14.999Z</time></trkpt><trkpt lat="41.90150649320013" lon="12.789198373374354"><ele>181.0</ele><time>2026-05-02T09:02:15.999Z</time></trkpt><trkpt lat="41.901537512474306" lon="12.789009064460815"><ele>180.0</ele><time>2026-05-02T09:02:16.999Z</time></trkpt><trkpt lat="41.901552918317066" lon="12.788818348742817"><ele>179.0</ele><time>2026-05-02T09:02:17.999Z</time></trkpt><trkpt lat="41.90159849670731" lon="12.78863722510029"><ele>178.0</ele><time>2026-05-02T09:02:18.999Z</time></trkpt><trkpt lat="41.90162957119122" lon="12.788453238883301"><ele>177.0</ele><time>2026-05-02T09:02:19.999Z</time></trkpt><trkpt lat="41.9016650163022" lon="12.78827214720743"><ele>177.0</ele><time>2026-05-02T09:02:20.999Z</time></trkpt><trkpt lat="41.90170644329309" lon="12.788094409648584"><ele>177.0</ele><time>2026-05-02T09:02:21.999Z</time></trkpt><trkpt lat="41.901756148597975" lon="12.787927198506269"><ele>177.0</ele><time>2026-05-02T09:02:22.999Z</time></trkpt><trkpt lat="41.90181016914478" lon="12.787761534635672"><ele>177.0</ele><time>2026-05-02T09:02:23.999Z</time></trkpt><trkpt lat="41.9018626263129" lon="12.787598277358935"><ele>176.0</ele><time>2026-05-02T09:02:24.999Z</time></trkpt><trkpt lat="41.90191829510085" lon="12.787423927604804"><ele>175.0</ele><time>2026-05-02T09:02:25.999Z</time></trkpt><trkpt lat="41.90197159719004" lon="12.787256108723883"><ele>174.0</ele><time>2026-05-02T09:02:26.999Z</time></trkpt><trkpt lat="41.90200523412218" lon="12.787092003763936"><ele>173.0</ele><time>2026-05-02T09:02:27.999Z</time></trkpt><trkpt lat="41.90205312061226" lon="12.786943793308852"><ele>172.8</ele><time>2026-05-02T09:02:28.999Z</time></trkpt><trkpt lat="41.90209685039791" lon="12.786806054129329"><ele>172.60000000000002</ele><time>2026-05-02T09:02:29.999Z</time></trkpt><trkpt lat="41.90213949508666" lon="12.78667543356689"><ele>172.39999999999998</ele><time>2026-05-02T09:02:30.999Z</time></trkpt><trkpt lat="41.902178398460755" lon="12.78653249769635"><ele>172.2</ele><time>2026-05-02T09:02:31.999Z</time></trkpt><trkpt lat="41.90222764575107" lon="12.786388303121512"><ele>172.0</ele><time>2026-05-02T09:02:32.999Z</time></trkpt><trkpt lat="41.902284360315754" lon="12.786243969371183"><ele>172.0</ele><time>2026-05-02T09:02:33.999Z</time></trkpt><trkpt lat="41.902337483735195" lon="12.78608394353026"><ele>172.0</ele><time>2026-05-02T09:02:34.999Z</time></trkpt><trkpt lat="41.902389634686095" lon="12.785919810972286"><ele>172.0</ele><time>2026-05-02T09:02:35.999Z</time></trkpt><trkpt lat="41.90244147197076" lon="12.785747047283127"><ele>172.0</ele><time>2026-05-02T09:02:36.999Z</time></trkpt><trkpt lat="41.90249360241427" lon="12.785576181590653"><ele>171.75</ele><time>2026-05-02T09:02:37.999Z</time></trkpt><trkpt lat="41.902543518664615" lon="12.785404005129054"><ele>171.5</ele><time>2026-05-02T09:02:38.999Z</time></trkpt><trkpt lat="41.902597682983455" lon="12.785229214622179"><ele>171.25</ele><time>2026-05-02T09:02:39.999Z</time></trkpt><trkpt lat="41.9026521648567" lon="12.78505246563914"><ele>171.0</ele><time>2026-05-02T09:02:40.999Z</time></trkpt><trkpt lat="41.90270587843982" lon="12.784865404582247"><ele>169.5</ele><time>2026-05-02T09:02:42Z</time></trkpt><trkpt lat="41.90276473842187" lon="12.784678886881556"><ele>168.0</ele><time>2026-05-02T09:02:43Z</time></trkpt><trkpt lat="41.902822209377206" lon="12.784496975576625"><ele>166.5</ele><time>2026-05-02T09:02:44Z</time></trkpt><trkpt lat="41.90287431373472" lon="12.784329095674051"><ele>165.0</ele><time>2026-05-02T09:02:45Z</time></trkpt><trkpt lat="41.90292449548277" lon="12.784166395256593"><ele>165.0</ele><time>2026-05-02T09:02:46Z</time></trkpt><trkpt lat="41.90296953978413" lon="12.78400966834832"><ele>165.0</ele><time>2026-05-02T09:02:47Z</time></trkpt><trkpt lat="41.9030291791363" lon="12.783875208980588"><ele>165.0</ele><time>2026-05-02T09:02:48Z</time></trkpt><trkpt lat="41.90307022891103" lon="12.783721555964133"><ele>165.0</ele><time>2026-05-02T09:02:49Z</time></trkpt><trkpt lat="41.90311878270691" lon="12.78356871728179"><ele>163.75</ele><time>2026-05-02T09:02:50Z</time></trkpt><trkpt lat="41.90317097724791" lon="12.783414355311834"><ele>162.5</ele><time>2026-05-02T09:02:51Z</time></trkpt><trkpt lat="41.90321293060248" lon="12.783280713682343"><ele>161.25</ele><time>2026-05-02T09:02:52Z</time></trkpt><trkpt lat="41.903259092831235" lon="12.783144087971001"><ele>160.0</ele><time>2026-05-02T09:02:53Z</time></trkpt><trkpt lat="41.90330026720272" lon="12.783003596406688"><ele>160.0</ele><time>2026-05-02T09:02:54Z</time></trkpt><trkpt lat="41.903348816993905" lon="12.782873171259183"><ele>160.0</ele><time>2026-05-02T09:02:55Z</time></trkpt><trkpt lat="41.903380943255726" lon="12.78275478643835"><ele>160.0</ele><time>2026-05-02T09:02:56Z</time></trkpt><trkpt lat="41.90341994290435" lon="12.782649356985983"><ele>160.0</ele><time>2026-05-02T09:02:57Z</time></trkpt><trkpt lat="41.903457927213196" lon="12.78254812767415"><ele>160.0</ele><time>2026-05-02T09:02:58Z</time></trkpt><trkpt lat="41.90348745098097" lon="12.782442991771296"><ele>159.5</ele><time>2026-05-02T09:02:59Z</time></trkpt><trkpt lat="41.90351652609879" lon="12.782338291874678"><ele>159.0</ele><time>2026-05-02T09:03:00Z</time></trkpt><trkpt lat="41.90354789654176" lon="12.78223595758293"><ele>158.5</ele><time>2026-05-02T09:03:01Z</time></trkpt><trkpt lat="41.90357871963865" lon="12.782130688502784"><ele>158.0</ele><time>2026-05-02T09:03:02Z</time></trkpt><trkpt lat="41.903612284671254" lon="12.782024005376758"><ele>157.5</ele><time>2026-05-02T09:03:03Z</time></trkpt><trkpt lat="41.90364145999086" lon="12.781913006507676"><ele>157.0</ele><time>2026-05-02T09:03:04Z</time></trkpt><trkpt lat="41.90367782296853" lon="12.781798797202516"><ele>155.6</ele><time>2026-05-02T09:03:05Z</time></trkpt><trkpt lat="41.90371206963846" lon="12.781677246214805"><ele>154.2</ele><time>2026-05-02T09:03:06Z</time></trkpt><trkpt lat="41.90374514009806" lon="12.781555522195214"><ele>152.8</ele><time>2026-05-02T09:03:07Z</time></trkpt><trkpt lat="41.90378141939225" lon="12.781428088800896"><ele>151.4</ele><time>2026-05-02T09:03:08Z</time></trkpt><trkpt lat="41.903817894317434" lon="12.78131343667686"><ele>150.0</ele><time>2026-05-02T09:03:09Z</time></trkpt><trkpt lat="41.9038550958602" lon="12.781196996861825"><ele>150.0</ele><time>2026-05-02T09:03:10Z</time></trkpt><trkpt lat="41.9039013708836" lon="12.78107523850667"><ele>150.0</ele><time>2026-05-02T09:03:11Z</time></trkpt><trkpt lat="41.90393561733287" lon="12.780954176482293"><ele>150.0</ele><time>2026-05-02T09:03:12Z</time></trkpt><trkpt lat="41.90396925270483" lon="12.780830332624612"><ele>150.0</ele><time>2026-05-02T09:03:13Z</time></trkpt><trkpt lat="41.9040031889166" lon="12.780704137954908"><ele>150.0</ele><time>2026-05-02T09:03:14Z</time></trkpt><trkpt lat="41.9040312439411" lon="12.780588248643564"><ele>148.57142857142856</ele><time>2026-05-02T09:03:15Z</time></trkpt><trkpt lat="41.90405405955332" lon="12.780484227117238"><ele>147.14285714285714</ele><time>2026-05-02T09:03:16Z</time></trkpt><trkpt lat="41.90407199654716" lon="12.780385743488125"><ele>145.71428571428572</ele><time>2026-05-02T09:03:17Z</time></trkpt><trkpt lat="41.90408486538053" lon="12.780300699546439"><ele>144.28571428571428</ele><time>2026-05-02T09:03:18Z</time></trkpt><trkpt lat="41.90408896026443" lon="12.780199773743123"><ele>142.85714285714286</ele><time>2026-05-02T09:03:20Z</time></trkpt><trkpt lat="41.90407247443535" lon="12.78011526153435"><ele>141.42857142857142</ele><time>2026-05-02T09:03:48.999Z</time></trkpt><trkpt lat="41.904078388440276" lon="12.780019482075858"><ele>140.0</ele><time>2026-05-02T09:03:52.999Z</time></trkpt><trkpt lat="41.904061044569616" lon="12.779921953015606"><ele>138.2</ele><time>2026-05-02T09:03:55.999Z</time></trkpt><trkpt lat="41.904047261317736" lon="12.779811153794718"><ele>136.4</ele><time>2026-05-02T09:03:57.999Z</time></trkpt><trkpt lat="41.90402154955425" lon="12.779654760682469"><ele>134.6</ele><time>2026-05-02T09:03:59.999Z</time></trkpt><trkpt lat="41.90399866421869" lon="12.779565115548168"><ele>132.8</ele><time>2026-05-02T09:04:00.999Z</time></trkpt><trkpt lat="41.903984767206595" lon="12.779443527894777"><ele>131.0</ele><time>2026-05-02T09:04:01.999Z</time></trkpt><trkpt lat="41.90394206212607" lon="12.779322634373083"><ele>130.0</ele><time>2026-05-02T09:04:02.999Z</time></trkpt><trkpt lat="41.903901854381154" lon="12.779198168578992"><ele>129.0</ele><time>2026-05-02T09:04:03.999Z</time></trkpt><trkpt lat="41.903865381495564" lon="12.779082217598791"><ele>128.0</ele><time>2026-05-02T09:04:04.999Z</time></trkpt><trkpt lat="41.90383174117535" lon="12.778975088275939"><ele>127.0</ele><time>2026-05-02T09:04:05.999Z</time></trkpt><trkpt lat="41.90379936240905" lon="12.778865816492146"><ele>126.0</ele><time>2026-05-02T09:04:06.999Z</time></trkpt><trkpt lat="41.90376787439591" lon="12.77875234187701"><ele>126.0</ele><time>2026-05-02T09:04:07.999Z</time></trkpt><trkpt lat="41.90374288576386" lon="12.778639142636345"><ele>126.0</ele><time>2026-05-02T09:04:08.999Z</time></trkpt><trkpt lat="41.903720004079716" lon="12.778516304115115"><ele>126.0</ele><time>2026-05-02T09:04:09.999Z</time></trkpt><trkpt lat="41.90370152837201" lon="12.778396050606174"><ele>126.0</ele><time>2026-05-02T09:04:10.999Z</time></trkpt><trkpt lat="41.90368630196085" lon="12.778277714665796"><ele>126.0</ele><time>2026-05-02T09:04:11.999Z</time></trkpt><trkpt lat="41.903674797801465" lon="12.778163958439038"><ele>126.0</ele><time>2026-05-02T09:04:12.999Z</time></trkpt><trkpt lat="41.90366626491473" lon="12.778051041794477"><ele>125.5</ele><time>2026-05-02T09:04:13.999Z</time></trkpt><trkpt lat="41.90365568875281" lon="12.777937037169512"><ele>125.0</ele><time>2026-05-02T09:04:14.999Z</time></trkpt><trkpt lat="41.9036431707447" lon="12.777838563023622"><ele>124.5</ele><time>2026-05-02T09:04:15.999Z</time></trkpt><trkpt lat="41.903624536524866" lon="12.777739731679642"><ele>124.0</ele><time>2026-05-02T09:04:16.999Z</time></trkpt><trkpt lat="41.90360251822559" lon="12.777624978257984"><ele>123.5</ele><time>2026-05-02T09:04:17.999Z</time></trkpt><trkpt lat="41.90357707342622" lon="12.777508773275343"><ele>123.0</ele><time>2026-05-02T09:04:18.999Z</time></trkpt><trkpt lat="41.903547248947184" lon="12.777387308302135"><ele>122.60000000000001</ele><time>2026-05-02T09:04:19.999Z</time></trkpt><trkpt lat="41.90351101163577" lon="12.777268518497202"><ele>122.20000000000002</ele><time>2026-05-02T09:04:20.999Z</time></trkpt><trkpt lat="41.90346816298606" lon="12.777134390934382"><ele>121.8</ele><time>2026-05-02T09:04:21.999Z</time></trkpt><trkpt lat="41.90342032759869" lon="12.777006329877707"><ele>121.4</ele><time>2026-05-02T09:04:22.999Z</time></trkpt><trkpt lat="41.90336826609599" lon="12.776889820067915"><ele>121.0</ele><time>2026-05-02T09:04:24Z</time></trkpt><trkpt lat="41.90330682692468" lon="12.77681006646851"><ele>120.16666666666667</ele><time>2026-05-02T09:04:25Z</time></trkpt><trkpt lat="41.90324852436856" lon="12.776737182854355"><ele>119.33333333333334</ele><time>2026-05-02T09:04:26Z</time></trkpt><trkpt lat="41.903175840133066" lon="12.776695737723067"><ele>118.5</ele><time>2026-05-02T09:04:27Z</time></trkpt><trkpt lat="41.90309270136986" lon="12.776693020115767"><ele>117.66666666666666</ele><time>2026-05-02T09:04:28Z</time></trkpt><trkpt lat="41.90300034662878" lon="12.776697177851812"><ele>116.83333333333333</ele><time>2026-05-02T09:04:29Z</time></trkpt><trkpt lat="41.90291020359567" lon="12.7766834254402"><ele>116.0</ele><time>2026-05-02T09:04:30Z</time></trkpt><trkpt lat="41.9028204972879" lon="12.776645451340478"><ele>115.99999999999999</ele><time>2026-05-02T09:04:31Z</time></trkpt><trkpt lat="41.90273941708305" lon="12.776605579946102"><ele>116.0</ele><time>2026-05-02T09:04:32Z</time></trkpt><trkpt lat="41.90266905920173" lon="12.7765635399595"><ele>116.0</ele><time>2026-05-02T09:04:33Z</time></trkpt><trkpt lat="41.902598637390746" lon="12.776531518308836"><ele>116.0</ele><time>2026-05-02T09:04:34Z</time></trkpt><trkpt lat="41.90252689459347" lon="12.776524786972995"><ele>115.99999999999999</ele><time>2026-05-02T09:04:35Z</time></trkpt><trkpt lat="41.902453770968954" lon="12.776536634605133"><ele>116.0</ele><time>2026-05-02T09:04:36Z</time></trkpt><trkpt lat="41.90237827096698" lon="12.776565143358853"><ele>115.71428571428572</ele><time>2026-05-02T09:04:37Z</time></trkpt><trkpt lat="41.902314564590725" lon="12.77660170384926"><ele>115.42857142857143</ele><time>2026-05-02T09:04:38Z</time></trkpt><trkpt lat="41.9022552073117" lon="12.77664442779284"><ele>115.14285714285714</ele><time>2026-05-02T09:04:39Z</time></trkpt><trkpt lat="41.90217983321888" lon="12.77668834395271"><ele>114.85714285714286</ele><time>2026-05-02T09:04:40Z</time></trkpt><trkpt lat="41.90211462907386" lon="12.776735260001463"><ele>114.57142857142856</ele><time>2026-05-02T09:04:41Z</time></trkpt><trkpt lat="41.902041476917994" lon="12.77677704994273"><ele>114.28571428571428</ele><time>2026-05-02T09:04:42Z</time></trkpt><trkpt lat="41.9019821826514" lon="12.776806124550461"><ele>114.0</ele><time>2026-05-02T09:04:43Z</time></trkpt><trkpt lat="41.90188389920302" lon="12.776858350715072"><ele>114.0</ele><time>2026-05-02T09:04:45Z</time></trkpt><trkpt lat="41.901794541943794" lon="12.776909986513697"><ele>114.0</ele><time>2026-05-02T09:04:47Z</time></trkpt><trkpt lat="41.901740197930565" lon="12.77695605346235"><ele>114.0</ele><time>2026-05-02T09:04:48Z</time></trkpt><trkpt lat="41.90165206195514" lon="12.776955398668239"><ele>114.0</ele><time>2026-05-02T09:04:50Z</time></trkpt><trkpt lat="41.90158360893631" lon="12.77693610911055"><ele>114.0</ele><time>2026-05-02T09:04:52Z</time></trkpt><trkpt lat="41.90148010509863" lon="12.776895002871898"><ele>114.0</ele><time>2026-05-02T09:04:54Z</time></trkpt><trkpt lat="41.90140779575506" lon="12.776877932598298"><ele>113.33333333333333</ele><time>2026-05-02T09:04:55Z</time></trkpt><trkpt lat="41.90132734784623" lon="12.776874805979926"><ele>112.66666666666666</ele><time>2026-05-02T09:04:56Z</time></trkpt><trkpt lat="41.9012538171421" lon="12.776883396686111"><ele>112.0</ele><time>2026-05-02T09:04:57Z</time></trkpt><trkpt lat="41.90118107483126" lon="12.776900642480921"><ele>111.33333333333333</ele><time>2026-05-02T09:04:58Z</time></trkpt><trkpt lat="41.901098048554005" lon="12.776915620187163"><ele>110.66666666666666</ele><time>2026-05-02T09:04:59Z</time></trkpt><trkpt lat="41.901028460745906" lon="12.776916405993822"><ele>110.0</ele><time>2026-05-02T09:05:00Z</time></trkpt><trkpt lat="41.900937849834214" lon="12.77687604787571"><ele>110.99999999999999</ele><time>2026-05-02T09:05:02Z</time></trkpt><trkpt lat="41.900882150193326" lon="12.776826857200092"><ele>112.0</ele><time>2026-05-02T09:05:03Z</time></trkpt><trkpt lat="41.900834898583234" lon="12.776767713617748"><ele>113.0</ele><time>2026-05-02T09:05:04Z</time></trkpt><trkpt lat="41.900781975233926" lon="12.776710027864343"><ele>114.0</ele><time>2026-05-02T09:05:05Z</time></trkpt><trkpt lat="41.900713572139324" lon="12.776630577717931"><ele>114.99999999999999</ele><time>2026-05-02T09:05:07Z</time></trkpt><trkpt lat="41.900752480613406" lon="12.776425419381455"><ele>116.0</ele><time>2026-05-02T09:06:30Z</time></trkpt><trkpt lat="41.900792322015015" lon="12.77635624248672"><ele>116.0</ele><time>2026-05-02T09:06:31Z</time></trkpt><trkpt lat="41.90084066753748" lon="12.776267060859496"><ele>116.0</ele><time>2026-05-02T09:06:32Z</time></trkpt><trkpt lat="41.900892046168" lon="12.776154065920215"><ele>116.0</ele><time>2026-05-02T09:06:33Z</time></trkpt><trkpt lat="41.900947837725944" lon="12.776049328773782"><ele>116.0</ele><time>2026-05-02T09:06:34Z</time></trkpt><trkpt lat="41.901011850460314" lon="12.775947191276636"><ele>116.0</ele><time>2026-05-02T09:06:35Z</time></trkpt><trkpt lat="41.90108413043134" lon="12.775839462775027"><ele>114.6</ele><time>2026-05-02T09:06:36Z</time></trkpt><trkpt lat="41.901157277907885" lon="12.775732994278982"><ele>113.19999999999999</ele><time>2026-05-02T09:06:37Z</time></trkpt><trkpt lat="41.90123491302428" lon="12.775623124544406"><ele>111.80000000000001</ele><time>2026-05-02T09:06:38Z</time></trkpt><trkpt lat="41.90130750465802" lon="12.775520455379239"><ele>110.4</ele><time>2026-05-02T09:06:39Z</time></trkpt><trkpt lat="41.9013790820487" lon="12.775392068583363"><ele>109.0</ele><time>2026-05-02T09:06:40Z</time></trkpt><trkpt lat="41.90144108966244" lon="12.775251399784587"><ele>110.75</ele><time>2026-05-02T09:06:41Z</time></trkpt><trkpt lat="41.901496275901" lon="12.775107420888391"><ele>112.5</ele><time>2026-05-02T09:06:42Z</time></trkpt><trkpt lat="41.90152536266751" lon="12.774955977873065"><ele>114.25</ele><time>2026-05-02T09:06:43Z</time></trkpt><trkpt lat="41.901540588413944" lon="12.774807317070026"><ele>116.0</ele><time>2026-05-02T09:06:44Z</time></trkpt><trkpt lat="41.90153379430654" lon="12.774660820404984"><ele>116.0</ele><time>2026-05-02T09:06:45Z</time></trkpt><trkpt lat="41.90150675763787" lon="12.774518115636912"><ele>116.0</ele><time>2026-05-02T09:06:46Z</time></trkpt><trkpt lat="41.90146893404794" lon="12.774378523809895"><ele>116.0</ele><time>2026-05-02T09:06:47Z</time></trkpt><trkpt lat="41.90141735682398" lon="12.774249345433528"><ele>116.0</ele><time>2026-05-02T09:06:48Z</time></trkpt><trkpt lat="41.901351288994334" lon="12.774130744042496"><ele>116.0</ele><time>2026-05-02T09:06:49Z</time></trkpt><trkpt lat="41.90127264760364" lon="12.774019884156045"><ele>117.25</ele><time>2026-05-02T09:06:50Z</time></trkpt><trkpt lat="41.90120053945248" lon="12.773903825764247"><ele>118.5</ele><time>2026-05-02T09:06:51Z</time></trkpt><trkpt lat="41.90112322731548" lon="12.77378679661519"><ele>119.75</ele><time>2026-05-02T09:06:52Z</time></trkpt><trkpt lat="41.90104260480598" lon="12.77366714904115"><ele>121.0</ele><time>2026-05-02T09:06:53Z</time></trkpt><trkpt lat="41.900956898554924" lon="12.773540819958768"><ele>120.75</ele><time>2026-05-02T09:06:54Z</time></trkpt><trkpt lat="41.90087288503303" lon="12.773419202263787"><ele>120.5</ele><time>2026-05-02T09:06:55Z</time></trkpt><trkpt lat="41.90079330550336" lon="12.773279644776702"><ele>120.25</ele><time>2026-05-02T09:06:56Z</time></trkpt><trkpt lat="41.900715226234254" lon="12.773167862233656"><ele>120.0</ele><time>2026-05-02T09:06:57Z</time></trkpt><trkpt lat="41.90064768970645" lon="12.773071173157527"><ele>120.0</ele><time>2026-05-02T09:06:58Z</time></trkpt><trkpt lat="41.90058716286673" lon="12.772975113325552"><ele>120.0</ele><time>2026-05-02T09:06:59Z</time></trkpt><trkpt lat="41.90052067191067" lon="12.77285973442361"><ele>120.0</ele><time>2026-05-02T09:07:00Z</time></trkpt><trkpt lat="41.900452331184155" lon="12.772730938830502"><ele>120.0</ele><time>2026-05-02T09:07:01Z</time></trkpt><trkpt lat="41.900381266281514" lon="12.772585455942936"><ele>119.75</ele><time>2026-05-02T09:07:02Z</time></trkpt><trkpt lat="41.90031902143222" lon="12.772424500448464"><ele>119.5</ele><time>2026-05-02T09:07:03Z</time></trkpt><trkpt lat="41.900261168862365" lon="12.772260628525512"><ele>119.25</ele><time>2026-05-02T09:07:04Z</time></trkpt><trkpt lat="41.900201821883236" lon="12.772074801144976"><ele>119.0</ele><time>2026-05-02T09:07:05Z</time></trkpt><trkpt lat="41.90014659091577" lon="12.771900302460686"><ele>119.0</ele><time>2026-05-02T09:07:06Z</time></trkpt><trkpt lat="41.90009723277209" lon="12.771740853389806"><ele>119.0</ele><time>2026-05-02T09:07:07Z</time></trkpt><trkpt lat="41.900049621720605" lon="12.771585823586427"><ele>119.0</ele><time>2026-05-02T09:07:08Z</time></trkpt><trkpt lat="41.90000729508037" lon="12.771435293092107"><ele>119.0</ele><time>2026-05-02T09:07:09Z</time></trkpt><trkpt lat="41.899967602042125" lon="12.77129602638353"><ele>118.0</ele><time>2026-05-02T09:07:10Z</time></trkpt><trkpt lat="41.89992299919339" lon="12.771145005480143"><ele>117.0</ele><time>2026-05-02T09:07:11Z</time></trkpt><trkpt lat="41.89988692673253" lon="12.771024727471975"><ele>116.0</ele><time>2026-05-02T09:07:12Z</time></trkpt><trkpt lat="41.89985009438452" lon="12.770903459632128"><ele>115.0</ele><time>2026-05-02T09:07:13Z</time></trkpt><trkpt lat="41.89979879741005" lon="12.7707927916447"><ele>114.0</ele><time>2026-05-02T09:07:14Z</time></trkpt><trkpt lat="41.89975759179031" lon="12.770656268759414"><ele>112.80000000000001</ele><time>2026-05-02T09:07:15Z</time></trkpt><trkpt lat="41.8997287637553" lon="12.770503985982895"><ele>111.60000000000001</ele><time>2026-05-02T09:07:16Z</time></trkpt><trkpt lat="41.89968748938174" lon="12.770367037864307"><ele>110.4</ele><time>2026-05-02T09:07:17Z</time></trkpt><trkpt lat="41.899650088215616" lon="12.7702429408264"><ele>109.2</ele><time>2026-05-02T09:07:18Z</time></trkpt><trkpt lat="41.899615852997414" lon="12.770130740482402"><ele>108.0</ele><time>2026-05-02T09:07:19Z</time></trkpt><trkpt lat="41.899573246637736" lon="12.770041260362186"><ele>107.33333333333333</ele><time>2026-05-02T09:07:20Z</time></trkpt><trkpt lat="41.8995615290995" lon="12.769952378208723"><ele>106.66666666666666</ele><time>2026-05-02T09:07:21Z</time></trkpt><trkpt lat="41.89955057400299" lon="12.769858753211391"><ele>106.0</ele><time>2026-05-02T09:07:23Z</time></trkpt><trkpt lat="41.899642081082206" lon="12.769808530286095"><ele>105.33333333333333</ele><time>2026-05-02T09:07:24Z</time></trkpt><trkpt lat="41.89974380459785" lon="12.769769260578977"><ele>104.66666666666666</ele><time>2026-05-02T09:07:26Z</time></trkpt><trkpt lat="41.89980292716764" lon="12.76973659049879"><ele>104.0</ele><time>2026-05-02T09:07:27Z</time></trkpt><trkpt lat="41.899863861957485" lon="12.769696284436835"><ele>104.0</ele><time>2026-05-02T09:07:28Z</time></trkpt><trkpt lat="41.89992839997312" lon="12.769658069406228"><ele>104.0</ele><time>2026-05-02T09:07:29Z</time></trkpt><trkpt lat="41.89999743733905" lon="12.769617545800406"><ele>104.0</ele><time>2026-05-02T09:07:30Z</time></trkpt><trkpt lat="41.90008080708363" lon="12.769554163274684"><ele>104.0</ele><time>2026-05-02T09:07:31Z</time></trkpt><trkpt lat="41.90019365439015" lon="12.769473300190443"><ele>104.0</ele><time>2026-05-02T09:07:32Z</time></trkpt><trkpt lat="41.900350205885964" lon="12.769366531450382"><ele>104.33333333333333</ele><time>2026-05-02T09:07:33Z</time></trkpt><trkpt lat="41.90050341864403" lon="12.7692677057057"><ele>104.66666666666666</ele><time>2026-05-02T09:07:34Z</time></trkpt><trkpt lat="41.900705190144336" lon="12.76915488467586"><ele>105.0</ele><time>2026-05-02T09:07:35Z</time></trkpt><trkpt lat="41.90089864693901" lon="12.769037684157214"><ele>105.33333333333334</ele><time>2026-05-02T09:07:36Z</time></trkpt><trkpt lat="41.90111408397273" lon="12.768910150496911"><ele>105.66666666666667</ele><time>2026-05-02T09:07:37Z</time></trkpt><trkpt lat="41.90130349886521" lon="12.768793712235034"><ele>106.0</ele><time>2026-05-02T09:07:38Z</time></trkpt><trkpt lat="41.90146952918195" lon="12.768698145911095"><ele>106.0</ele><time>2026-05-02T09:07:39Z</time></trkpt><trkpt lat="41.90162848082606" lon="12.768610230156531"><ele>106.0</ele><time>2026-05-02T09:07:40Z</time></trkpt><trkpt lat="41.90177398035883" lon="12.768518072866078"><ele>106.0</ele><time>2026-05-02T09:07:41Z</time></trkpt><trkpt lat="41.90189920772084" lon="12.768420631187375"><ele>105.66666666666667</ele><time>2026-05-02T09:07:42Z</time></trkpt><trkpt lat="41.90202018440466" lon="12.76828847895808"><ele>105.33333333333334</ele><time>2026-05-02T09:07:43Z</time></trkpt><trkpt lat="41.902142643025336" lon="12.768154607659646"><ele>105.0</ele><time>2026-05-02T09:07:44Z</time></trkpt><trkpt lat="41.90226174363529" lon="12.768024993232707"><ele>105.0</ele><time>2026-05-02T09:07:45Z</time></trkpt><trkpt lat="41.902380978412204" lon="12.767888086845938"><ele>105.0</ele><time>2026-05-02T09:07:46Z</time></trkpt><trkpt lat="41.90249523021014" lon="12.767747944991898"><ele>105.0</ele><time>2026-05-02T09:07:47Z</time></trkpt><trkpt lat="41.90261872724164" lon="12.767613904646373"><ele>105.33333333333334</ele><time>2026-05-02T09:07:48Z</time></trkpt><trkpt lat="41.90273836227737" lon="12.76748099035136"><ele>105.66666666666667</ele><time>2026-05-02T09:07:49Z</time></trkpt><trkpt lat="41.90285853867464" lon="12.76735085893906"><ele>106.0</ele><time>2026-05-02T09:07:50Z</time></trkpt><trkpt lat="41.902977559883425" lon="12.767228268280594"><ele>106.0</ele><time>2026-05-02T09:07:51Z</time></trkpt><trkpt lat="41.90309558771521" lon="12.767097338267432"><ele>106.0</ele><time>2026-05-02T09:07:52Z</time></trkpt><trkpt lat="41.903217012157455" lon="12.766967307736087"><ele>106.0</ele><time>2026-05-02T09:07:53Z</time></trkpt><trkpt lat="41.90333389450389" lon="12.766837854752708"><ele>106.0</ele><time>2026-05-02T09:07:54Z</time></trkpt><trkpt lat="41.903456094155196" lon="12.766700496576064"><ele>106.0</ele><time>2026-05-02T09:07:55Z</time></trkpt><trkpt lat="41.9035810566724" lon="12.766559761601734"><ele>106.0</ele><time>2026-05-02T09:07:56Z</time></trkpt><trkpt lat="41.90371603239999" lon="12.76642561353689"><ele>106.0</ele><time>2026-05-02T09:07:57Z</time></trkpt><trkpt lat="41.903851739675176" lon="12.76631247351304"><ele>106.0</ele><time>2026-05-02T09:07:58Z</time></trkpt><trkpt lat="41.90398092436686" lon="12.766195596276473"><ele>106.0</ele><time>2026-05-02T09:07:59Z</time></trkpt><trkpt lat="41.904108501562966" lon="12.766073308016088"><ele>105.0</ele><time>2026-05-02T09:08:00Z</time></trkpt><trkpt lat="41.90424565912178" lon="12.765957413534377"><ele>104.0</ele><time>2026-05-02T09:08:01Z</time></trkpt><trkpt lat="41.90438277261095" lon="12.765841186264554"><ele>103.0</ele><time>2026-05-02T09:08:02Z</time></trkpt><trkpt lat="41.904518778635506" lon="12.765712302917377"><ele>103.0</ele><time>2026-05-02T09:08:03Z</time></trkpt><trkpt lat="41.904648926197495" lon="12.765580104472665"><ele>103.0</ele><time>2026-05-02T09:08:04Z</time></trkpt><trkpt lat="41.90478865698309" lon="12.765460653951571"><ele>103.0</ele><time>2026-05-02T09:08:05Z</time></trkpt><trkpt lat="41.90491440174436" lon="12.765347339248798"><ele>103.0</ele><time>2026-05-02T09:08:06Z</time></trkpt><trkpt lat="41.90503144480161" lon="12.765236445403291"><ele>103.0</ele><time>2026-05-02T09:08:07Z</time></trkpt><trkpt lat="41.90513987724024" lon="12.765138724243561"><ele>103.0</ele><time>2026-05-02T09:08:08Z</time></trkpt><trkpt lat="41.90524142370959" lon="12.765047584791082"><ele>103.0</ele><time>2026-05-02T09:08:09Z</time></trkpt><trkpt lat="41.90534607860167" lon="12.7649590061238"><ele>102.5</ele><time>2026-05-02T09:08:10Z</time></trkpt><trkpt lat="41.90544943205784" lon="12.764863961654445"><ele>102.0</ele><time>2026-05-02T09:08:11Z</time></trkpt><trkpt lat="41.90555066074292" lon="12.764771486359715"><ele>101.5</ele><time>2026-05-02T09:08:12Z</time></trkpt><trkpt lat="41.90565369958677" lon="12.764674069995474"><ele>101.0</ele><time>2026-05-02T09:08:13Z</time></trkpt><trkpt lat="41.90575800152475" lon="12.764576988889942"><ele>101.0</ele><time>2026-05-02T09:08:14Z</time></trkpt><trkpt lat="41.905861759508134" lon="12.764469237838847"><ele>101.0</ele><time>2026-05-02T09:08:15Z</time></trkpt><trkpt lat="41.90596558210415" lon="12.76436054233135"><ele>101.0</ele><time>2026-05-02T09:08:16Z</time></trkpt><trkpt lat="41.90607115976666" lon="12.764250174650243"><ele>101.0</ele><time>2026-05-02T09:08:17Z</time></trkpt><trkpt lat="41.9061748040968" lon="12.764134816666873"><ele>102.25</ele><time>2026-05-02T09:08:18Z</time></trkpt><trkpt lat="41.90628117498486" lon="12.764015580327362"><ele>103.5</ele><time>2026-05-02T09:08:19Z</time></trkpt><trkpt lat="41.90638943921395" lon="12.763894771300503"><ele>104.75</ele><time>2026-05-02T09:08:20Z</time></trkpt><trkpt lat="41.90649193690595" lon="12.763775733843069"><ele>106.0</ele><time>2026-05-02T09:08:21Z</time></trkpt><trkpt lat="41.90659378007149" lon="12.76364772143749"><ele>105.5</ele><time>2026-05-02T09:08:22Z</time></trkpt><trkpt lat="41.90668905181518" lon="12.763510298173822"><ele>105.0</ele><time>2026-05-02T09:08:23Z</time></trkpt><trkpt lat="41.90677811903322" lon="12.76337323201005"><ele>104.5</ele><time>2026-05-02T09:08:24Z</time></trkpt><trkpt lat="41.90685634667416" lon="12.763243122522452"><ele>104.0</ele><time>2026-05-02T09:08:25Z</time></trkpt><trkpt lat="41.90693519023015" lon="12.763127949798172"><ele>104.0</ele><time>2026-05-02T09:08:26Z</time></trkpt><trkpt lat="41.90701793692068" lon="12.76301391570463"><ele>104.0</ele><time>2026-05-02T09:08:27Z</time></trkpt><trkpt lat="41.90711384448328" lon="12.762902018087525"><ele>104.0</ele><time>2026-05-02T09:08:28Z</time></trkpt><trkpt lat="41.907224837750334" lon="12.762812632368734"><ele>104.0</ele><time>2026-05-02T09:08:29Z</time></trkpt><trkpt lat="41.90734919040294" lon="12.762746743234741"><ele>101.25</ele><time>2026-05-02T09:08:30Z</time></trkpt><trkpt lat="41.90747335256725" lon="12.76266440144104"><ele>98.5</ele><time>2026-05-02T09:08:31Z</time></trkpt><trkpt lat="41.90760265960784" lon="12.762583762438494"><ele>95.75</ele><time>2026-05-02T09:08:32Z</time></trkpt><trkpt lat="41.907729347500926" lon="12.762505202606263"><ele>93.0</ele><time>2026-05-02T09:08:33Z</time></trkpt><trkpt lat="41.90786277885156" lon="12.762429591519755"><ele>93.0</ele><time>2026-05-02T09:08:34Z</time></trkpt><trkpt lat="41.90800248078191" lon="12.762359652370138"><ele>93.0</ele><time>2026-05-02T09:08:35Z</time></trkpt><trkpt lat="41.908130969985095" lon="12.762308859246978"><ele>93.0</ele><time>2026-05-02T09:08:36Z</time></trkpt><trkpt lat="41.90825163221419" lon="12.762272509119935"><ele>93.0</ele><time>2026-05-02T09:08:37Z</time></trkpt><trkpt lat="41.90837225785328" lon="12.76225755515672"><ele>91.5</ele><time>2026-05-02T09:08:38Z</time></trkpt><trkpt lat="41.908491371713666" lon="12.762298054863042"><ele>90.0</ele><time>2026-05-02T09:08:39Z</time></trkpt><trkpt lat="41.908620635594716" lon="12.762324199158032"><ele>88.5</ele><time>2026-05-02T09:08:40Z</time></trkpt><trkpt lat="41.90875489606813" lon="12.762378515494701"><ele>87.0</ele><time>2026-05-02T09:08:41Z</time></trkpt><trkpt lat="41.90888708463561" lon="12.7624296053387"><ele>87.0</ele><time>2026-05-02T09:08:42Z</time></trkpt><trkpt lat="41.90902745385187" lon="12.762452088532726"><ele>87.0</ele><time>2026-05-02T09:08:43Z</time></trkpt><trkpt lat="41.90917142420682" lon="12.762453590843625"><ele>87.0</ele><time>2026-05-02T09:08:44Z</time></trkpt><trkpt lat="41.90931606091569" lon="12.762445912303042"><ele>87.0</ele><time>2026-05-02T09:08:45Z</time></trkpt><trkpt lat="41.909456309172405" lon="12.762425138903803"><ele>86.5</ele><time>2026-05-02T09:08:46Z</time></trkpt><trkpt lat="41.90960233925914" lon="12.762389894220311"><ele>86.0</ele><time>2026-05-02T09:08:47Z</time></trkpt><trkpt lat="41.90974801661176" lon="12.762359926949268"><ele>85.5</ele><time>2026-05-02T09:08:48Z</time></trkpt><trkpt lat="41.9098932351417" lon="12.762326583818352"><ele>85.0</ele><time>2026-05-02T09:08:49Z</time></trkpt><trkpt lat="41.91002627293293" lon="12.762286491958761"><ele>87.0</ele><time>2026-05-02T09:08:50Z</time></trkpt><trkpt lat="41.91016272161076" lon="12.762243230165865"><ele>89.0</ele><time>2026-05-02T09:08:51Z</time></trkpt><trkpt lat="41.91030003441955" lon="12.762189555263626"><ele>91.0</ele><time>2026-05-02T09:08:52Z</time></trkpt><trkpt lat="41.91043550467746" lon="12.762135480325057"><ele>93.0</ele><time>2026-05-02T09:08:53Z</time></trkpt><trkpt lat="41.91056920108389" lon="12.762080946803074"><ele>93.0</ele><time>2026-05-02T09:08:54Z</time></trkpt><trkpt lat="41.910703481948474" lon="12.762019176677693"><ele>93.0</ele><time>2026-05-02T09:08:55Z</time></trkpt><trkpt lat="41.910839591780835" lon="12.76195752955037"><ele>93.0</ele><time>2026-05-02T09:08:56Z</time></trkpt><trkpt lat="41.91097322559" lon="12.761877457050081"><ele>93.0</ele><time>2026-05-02T09:08:57Z</time></trkpt><trkpt lat="41.911107782326695" lon="12.761804584404373"><ele>91.0</ele><time>2026-05-02T09:08:58Z</time></trkpt><trkpt lat="41.91124571444339" lon="12.761744515640585"><ele>89.0</ele><time>2026-05-02T09:08:59Z</time></trkpt><trkpt lat="41.91139714827358" lon="12.761693461555177"><ele>87.0</ele><time>2026-05-02T09:09:00Z</time></trkpt><trkpt lat="41.91154362465521" lon="12.761664310075117"><ele>85.0</ele><time>2026-05-02T09:09:01Z</time></trkpt><trkpt lat="41.91168511705525" lon="12.761636180102535"><ele>86.25</ele><time>2026-05-02T09:09:02Z</time></trkpt><trkpt lat="41.911837192969024" lon="12.761609734874588"><ele>87.5</ele><time>2026-05-02T09:09:03Z</time></trkpt><trkpt lat="41.91197764803811" lon="12.76158847463082"><ele>88.75</ele><time>2026-05-02T09:09:04Z</time></trkpt><trkpt lat="41.91212430709938" lon="12.761546303182653"><ele>90.0</ele><time>2026-05-02T09:09:05Z</time></trkpt><trkpt lat="41.912263265134264" lon="12.761491645865975"><ele>90.0</ele><time>2026-05-02T09:09:06Z</time></trkpt><trkpt lat="41.91240563590515" lon="12.761431234023982"><ele>90.0</ele><time>2026-05-02T09:09:07Z</time></trkpt><trkpt lat="41.91254550665638" lon="12.761365216745636"><ele>90.0</ele><time>2026-05-02T09:09:08Z</time></trkpt><trkpt lat="41.91267712870148" lon="12.761300727233138"><ele>90.0</ele><time>2026-05-02T09:09:09Z</time></trkpt><trkpt lat="41.912814608205764" lon="12.761230169885627"><ele>89.75</ele><time>2026-05-02T09:09:10Z</time></trkpt><trkpt lat="41.91294426182088" lon="12.761160694290272"><ele>89.5</ele><time>2026-05-02T09:09:11Z</time></trkpt><trkpt lat="41.91309454113279" lon="12.761104990359925"><ele>89.25</ele><time>2026-05-02T09:09:12Z</time></trkpt><trkpt lat="41.91323317395796" lon="12.761060937151496"><ele>89.0</ele><time>2026-05-02T09:09:13Z</time></trkpt><trkpt lat="41.91335327790666" lon="12.761022338998776"><ele>84.0</ele><time>2026-05-02T09:09:14Z</time></trkpt><trkpt lat="41.91350917188834" lon="12.760945898564321"><ele>79.0</ele><time>2026-05-02T09:09:15Z</time></trkpt><trkpt lat="41.913657331627434" lon="12.760889275714302"><ele>74.0</ele><time>2026-05-02T09:09:16Z</time></trkpt><trkpt lat="41.91379872373821" lon="12.760802956600974"><ele>74.0</ele><time>2026-05-02T09:09:17Z</time></trkpt><trkpt lat="41.9139326022377" lon="12.76071241691587"><ele>74.0</ele><time>2026-05-02T09:09:18Z</time></trkpt><trkpt lat="41.91405459349523" lon="12.7606052372582"><ele>74.0</ele><time>2026-05-02T09:09:19Z</time></trkpt><trkpt lat="41.91417884544682" lon="12.76050659064463"><ele>74.0</ele><time>2026-05-02T09:09:20Z</time></trkpt><trkpt lat="41.91429928124008" lon="12.76040182910618"><ele>73.0</ele><time>2026-05-02T09:09:21Z</time></trkpt><trkpt lat="41.91441776359622" lon="12.760295465456592"><ele>72.0</ele><time>2026-05-02T09:09:22Z</time></trkpt><trkpt lat="41.91454185474202" lon="12.760188112643924"><ele>71.0</ele><time>2026-05-02T09:09:23Z</time></trkpt><trkpt lat="41.91466348957972" lon="12.760084149513395"><ele>70.0</ele><time>2026-05-02T09:09:24Z</time></trkpt><trkpt lat="41.91478697701927" lon="12.759982090850311"><ele>70.0</ele><time>2026-05-02T09:09:25Z</time></trkpt><trkpt lat="41.914912679196256" lon="12.759867930461937"><ele>70.0</ele><time>2026-05-02T09:09:26Z</time></trkpt><trkpt lat="41.91504293517297" lon="12.759765118649947"><ele>70.0</ele><time>2026-05-02T09:09:27Z</time></trkpt><trkpt lat="41.91517775328402" lon="12.759667277610525"><ele>70.5</ele><time>2026-05-02T09:09:28Z</time></trkpt><trkpt lat="41.91530976340798" lon="12.759571684693938"><ele>71.0</ele><time>2026-05-02T09:09:29Z</time></trkpt><trkpt lat="41.91544074224233" lon="12.759481749639265"><ele>71.5</ele><time>2026-05-02T09:09:30Z</time></trkpt><trkpt lat="41.91557522013811" lon="12.759397420994887"><ele>72.0</ele><time>2026-05-02T09:09:31Z</time></trkpt><trkpt lat="41.915708323740255" lon="12.759304073891009"><ele>69.0</ele><time>2026-05-02T09:09:32Z</time></trkpt><trkpt lat="41.915845571847555" lon="12.759221962737241"><ele>66.0</ele><time>2026-05-02T09:09:33Z</time></trkpt><trkpt lat="41.91597686401473" lon="12.759150159447742"><ele>63.0</ele><time>2026-05-02T09:09:34Z</time></trkpt><trkpt lat="41.916114128629715" lon="12.759076580143713"><ele>60.0</ele><time>2026-05-02T09:09:35Z</time></trkpt><trkpt lat="41.91624990934973" lon="12.758993871835974"><ele>59.66666666666667</ele><time>2026-05-02T09:09:36Z</time></trkpt><trkpt lat="41.916391110016235" lon="12.758907823139603"><ele>59.333333333333336</ele><time>2026-05-02T09:09:37Z</time></trkpt><trkpt lat="41.916525469720085" lon="12.758821847005454"><ele>59.0</ele><time>2026-05-02T09:09:38Z</time></trkpt><trkpt lat="41.9166661325732" lon="12.758743167372023"><ele>58.25</ele><time>2026-05-02T09:09:39Z</time></trkpt><trkpt lat="41.91680320268209" lon="12.758656977440264"><ele>57.5</ele><time>2026-05-02T09:09:40Z</time></trkpt><trkpt lat="41.916935878289614" lon="12.758569025289878"><ele>56.75</ele><time>2026-05-02T09:09:41Z</time></trkpt><trkpt lat="41.91706297450804" lon="12.758471880945649"><ele>56.0</ele><time>2026-05-02T09:09:42Z</time></trkpt><trkpt lat="41.917183915572565" lon="12.758379630537862"><ele>56.0</ele><time>2026-05-02T09:09:43Z</time></trkpt><trkpt lat="41.91731173001593" lon="12.758286865656535"><ele>56.0</ele><time>2026-05-02T09:09:44Z</time></trkpt><trkpt lat="41.91744122824511" lon="12.758188077511697"><ele>56.0</ele><time>2026-05-02T09:09:45Z</time></trkpt><trkpt lat="41.91756127761074" lon="12.758094690704242"><ele>56.0</ele><time>2026-05-02T09:09:46Z</time></trkpt><trkpt lat="41.917683593434504" lon="12.758000560686657"><ele>55.75</ele><time>2026-05-02T09:09:47Z</time></trkpt><trkpt lat="41.91780783580039" lon="12.757904088388235"><ele>55.5</ele><time>2026-05-02T09:09:48Z</time></trkpt><trkpt lat="41.91793756574884" lon="12.757804919719415"><ele>55.25</ele><time>2026-05-02T09:09:49Z</time></trkpt><trkpt lat="41.918068600486656" lon="12.757713614657963"><ele>55.0</ele><time>2026-05-02T09:09:50Z</time></trkpt><trkpt lat="41.91819318614853" lon="12.75761643944737"><ele>55.0</ele><time>2026-05-02T09:09:51Z</time></trkpt><trkpt lat="41.91831842209543" lon="12.757523833209483"><ele>55.0</ele><time>2026-05-02T09:09:52Z</time></trkpt><trkpt lat="41.91844460213465" lon="12.75742654158571"><ele>55.0</ele><time>2026-05-02T09:09:53Z</time></trkpt><trkpt lat="41.918573175982246" lon="12.757323179668223"><ele>55.0</ele><time>2026-05-02T09:09:54Z</time></trkpt><trkpt lat="41.918706713746346" lon="12.757219581102298"><ele>55.0</ele><time>2026-05-02T09:09:55Z</time></trkpt><trkpt lat="41.91883647076511" lon="12.757134383552785"><ele>55.0</ele><time>2026-05-02T09:09:56Z</time></trkpt><trkpt lat="41.918969433981424" lon="12.757047780630504"><ele>55.0</ele><time>2026-05-02T09:09:57Z</time></trkpt><trkpt lat="41.91910960585679" lon="12.756967168297095"><ele>55.0</ele><time>2026-05-02T09:09:58Z</time></trkpt><trkpt lat="41.91924168350137" lon="12.756885871537497"><ele>54.25</ele><time>2026-05-02T09:09:59Z</time></trkpt><trkpt lat="41.91936842976197" lon="12.756801415948503"><ele>53.5</ele><time>2026-05-02T09:10:00Z</time></trkpt><trkpt lat="41.91949592433277" lon="12.756713102610448"><ele>52.75</ele><time>2026-05-02T09:10:01Z</time></trkpt><trkpt lat="41.919612314532586" lon="12.756617508918028"><ele>52.0</ele><time>2026-05-02T09:10:02Z</time></trkpt><trkpt lat="41.919725767101866" lon="12.756513199165331"><ele>52.0</ele><time>2026-05-02T09:10:03Z</time></trkpt><trkpt lat="41.91983921827038" lon="12.756410850967704"><ele>52.0</ele><time>2026-05-02T09:10:04Z</time></trkpt><trkpt lat="41.91995980772139" lon="12.75632261433038"><ele>52.0</ele><time>2026-05-02T09:10:05Z</time></trkpt><trkpt lat="41.920078477112575" lon="12.756227799660897"><ele>52.0</ele><time>2026-05-02T09:10:06Z</time></trkpt><trkpt lat="41.92019052006632" lon="12.756141726459054"><ele>52.6</ele><time>2026-05-02T09:10:07Z</time></trkpt><trkpt lat="41.92028921296196" lon="12.756061263137491"><ele>53.2</ele><time>2026-05-02T09:10:08Z</time></trkpt><trkpt lat="41.920379747630484" lon="12.75598405427585"><ele>53.8</ele><time>2026-05-02T09:10:09Z</time></trkpt><trkpt lat="41.92046672054016" lon="12.755916645157882"><ele>54.4</ele><time>2026-05-02T09:10:10Z</time></trkpt><trkpt lat="41.92055227466947" lon="12.755847729996853"><ele>55.0</ele><time>2026-05-02T09:10:11Z</time></trkpt><trkpt lat="41.92062563579111" lon="12.755776509018697"><ele>54.99999999999999</ele><time>2026-05-02T09:10:12Z</time></trkpt><trkpt lat="41.920683374510254" lon="12.755696128944223"><ele>55.0</ele><time>2026-05-02T09:10:13Z</time></trkpt><trkpt lat="41.92073312539454" lon="12.755619850215766"><ele>55.0</ele><time>2026-05-02T09:10:14Z</time></trkpt><trkpt lat="41.92077965556833" lon="12.755561530691349"><ele>55.0</ele><time>2026-05-02T09:10:15Z</time></trkpt><trkpt lat="41.920842676178886" lon="12.755473537680869"><ele>54.99999999999999</ele><time>2026-05-02T09:10:17Z</time></trkpt><trkpt lat="41.92089412936813" lon="12.75557206908148"><ele>55.0</ele><time>2026-05-02T09:10:21Z</time></trkpt><trkpt lat="41.92090256520488" lon="12.755657478234014"><ele>55.0</ele><time>2026-05-02T09:10:22Z</time></trkpt><trkpt lat="41.92088661538575" lon="12.75583699440716"><ele>55.0</ele><time>2026-05-02T09:10:24Z</time></trkpt><trkpt lat="41.92087202906098" lon="12.75595203605873"><ele>55.0</ele><time>2026-05-02T09:10:25Z</time></trkpt><trkpt lat="41.920866205495436" lon="12.756078142490571"><ele>55.0</ele><time>2026-05-02T09:10:26Z</time></trkpt><trkpt lat="41.920859599096865" lon="12.75621754466327"><ele>55.0</ele><time>2026-05-02T09:10:27Z</time></trkpt><trkpt lat="41.92085120076766" lon="12.756374033558778"><ele>55.5</ele><time>2026-05-02T09:10:28Z</time></trkpt><trkpt lat="41.92084284001469" lon="12.756538663212558"><ele>56.0</ele><time>2026-05-02T09:10:29Z</time></trkpt><trkpt lat="41.92083705695535" lon="12.756712982540801"><ele>56.5</ele><time>2026-05-02T09:10:30Z</time></trkpt><trkpt lat="41.92082668993561" lon="12.756877336140029"><ele>57.0</ele><time>2026-05-02T09:10:31Z</time></trkpt><trkpt lat="41.92082320119069" lon="12.757061056652304"><ele>58.0</ele><time>2026-05-02T09:10:32Z</time></trkpt><trkpt lat="41.92081980346826" lon="12.757256366851372"><ele>59.0</ele><time>2026-05-02T09:10:33Z</time></trkpt><trkpt lat="41.920820067818056" lon="12.757446771068716"><ele>60.0</ele><time>2026-05-02T09:10:34Z</time></trkpt><trkpt lat="41.920823046682024" lon="12.757637703583782"><ele>61.0</ele><time>2026-05-02T09:10:35Z</time></trkpt><trkpt lat="41.92082973436615" lon="12.757833180905875"><ele>61.5</ele><time>2026-05-02T09:10:36Z</time></trkpt><trkpt lat="41.920850841075776" lon="12.758021235795214"><ele>62.0</ele><time>2026-05-02T09:10:37Z</time></trkpt><trkpt lat="41.92087757724558" lon="12.758210959154233"><ele>62.5</ele><time>2026-05-02T09:10:38Z</time></trkpt><trkpt lat="41.92091019132491" lon="12.758397853213733"><ele>63.0</ele><time>2026-05-02T09:10:39Z</time></trkpt><trkpt lat="41.920955022651775" lon="12.758585571745686"><ele>65.5</ele><time>2026-05-02T09:10:40Z</time></trkpt><trkpt lat="41.9209853653148" lon="12.758768707146913"><ele>68.0</ele><time>2026-05-02T09:10:41Z</time></trkpt><trkpt lat="41.921020880787964" lon="12.758958348340446"><ele>70.5</ele><time>2026-05-02T09:10:42Z</time></trkpt><trkpt lat="41.921052862041385" lon="12.759146573740201"><ele>73.0</ele><time>2026-05-02T09:10:43Z</time></trkpt><trkpt lat="41.92108553154557" lon="12.759335104837607"><ele>73.75</ele><time>2026-05-02T09:10:44Z</time></trkpt><trkpt lat="41.92112360410904" lon="12.759521682356546"><ele>74.5</ele><time>2026-05-02T09:10:45Z</time></trkpt><trkpt lat="41.92115881656822" lon="12.759707116256378"><ele>75.25</ele><time>2026-05-02T09:10:46Z</time></trkpt><trkpt lat="41.92120501591607" lon="12.759880340722168"><ele>76.0</ele><time>2026-05-02T09:10:47Z</time></trkpt><trkpt lat="41.921265746531944" lon="12.760041189149577"><ele>76.0</ele><time>2026-05-02T09:10:48Z</time></trkpt><trkpt lat="41.921360936489855" lon="12.76015913261492"><ele>76.0</ele><time>2026-05-02T09:10:49Z</time></trkpt><trkpt lat="41.921454062344914" lon="12.760269319419175"><ele>76.0</ele><time>2026-05-02T09:10:50Z</time></trkpt><trkpt lat="41.92156611338799" lon="12.760363349137664"><ele>76.0</ele><time>2026-05-02T09:10:51Z</time></trkpt><trkpt lat="41.921685631894654" lon="12.76045537715075"><ele>77.75</ele><time>2026-05-02T09:10:52Z</time></trkpt><trkpt lat="41.92180773268981" lon="12.760539129016014"><ele>79.5</ele><time>2026-05-02T09:10:53Z</time></trkpt><trkpt lat="41.9219248389978" lon="12.760627822267184"><ele>81.25</ele><time>2026-05-02T09:10:54Z</time></trkpt><trkpt lat="41.92205408393593" lon="12.760683137667499"><ele>83.0</ele><time>2026-05-02T09:10:55Z</time></trkpt><trkpt lat="41.92218237426206" lon="12.760738028384118"><ele>83.0</ele><time>2026-05-02T09:10:56Z</time></trkpt><trkpt lat="41.92230903814364" lon="12.760794585422556"><ele>83.0</ele><time>2026-05-02T09:10:57Z</time></trkpt><trkpt lat="41.922434226381554" lon="12.760841741564922"><ele>83.0</ele><time>2026-05-02T09:10:58Z</time></trkpt><trkpt lat="41.92256305903827" lon="12.760889084307626"><ele>83.0</ele><time>2026-05-02T09:10:59Z</time></trkpt><trkpt lat="41.922685845416794" lon="12.760944442797195"><ele>83.75</ele><time>2026-05-02T09:11:00Z</time></trkpt><trkpt lat="41.92280942033706" lon="12.76099375843978"><ele>84.5</ele><time>2026-05-02T09:11:01Z</time></trkpt><trkpt lat="41.92293036212904" lon="12.761044601905457"><ele>85.25</ele><time>2026-05-02T09:11:02Z</time></trkpt><trkpt lat="41.9230333963515" lon="12.761088249153405"><ele>86.0</ele><time>2026-05-02T09:11:03Z</time></trkpt><trkpt lat="41.923132742694555" lon="12.761126822359996"><ele>86.0</ele><time>2026-05-02T09:11:04Z</time></trkpt><trkpt lat="41.92320097886897" lon="12.761171847014879"><ele>86.0</ele><time>2026-05-02T09:11:05Z</time></trkpt><trkpt lat="41.92331020151526" lon="12.761209840105888"><ele>86.0</ele><time>2026-05-02T09:11:07Z</time></trkpt><trkpt lat="41.923399362256326" lon="12.761225297749963"><ele>86.0</ele><time>2026-05-02T09:11:08Z</time></trkpt><trkpt lat="41.92337103708646" lon="12.761459937548496"><ele>86.0</ele><time>2026-05-02T09:11:09Z</time></trkpt><trkpt lat="41.923396152369754" lon="12.761581196873436"><ele>86.0</ele><time>2026-05-02T09:11:10Z</time></trkpt><trkpt lat="41.923413315227634" lon="12.761710629307993"><ele>86.0</ele><time>2026-05-02T09:11:11Z</time></trkpt><trkpt lat="41.92341269513266" lon="12.761846211081215"><ele>86.0</ele><time>2026-05-02T09:11:12Z</time></trkpt><trkpt lat="41.92336482641975" lon="12.761975596331093"><ele>86.0</ele><time>2026-05-02T09:11:13Z</time></trkpt><trkpt lat="41.92332667688426" lon="12.762093642008443"><ele>87.25</ele><time>2026-05-02T09:11:14Z</time></trkpt><trkpt lat="41.92328246437056" lon="12.762202854739801"><ele>88.5</ele><time>2026-05-02T09:11:15Z</time></trkpt><trkpt lat="41.92322300632709" lon="12.76233824802416"><ele>89.75</ele><time>2026-05-02T09:11:16Z</time></trkpt><trkpt lat="41.92315795573824" lon="12.76249157388799"><ele>91.0</ele><time>2026-05-02T09:11:17Z</time></trkpt><trkpt lat="41.92309503120788" lon="12.762639706111573"><ele>92.25</ele><time>2026-05-02T09:11:18Z</time></trkpt><trkpt lat="41.92303233958156" lon="12.762785871340277"><ele>93.5</ele><time>2026-05-02T09:11:19Z</time></trkpt><trkpt lat="41.92296918772727" lon="12.76293203831657"><ele>94.75</ele><time>2026-05-02T09:11:20Z</time></trkpt><trkpt lat="41.92290281865722" lon="12.763085587183381"><ele>96.0</ele><time>2026-05-02T09:11:21Z</time></trkpt><trkpt lat="41.92284128552298" lon="12.763240748102943"><ele>96.0</ele><time>2026-05-02T09:11:22Z</time></trkpt><trkpt lat="41.92277095571057" lon="12.763397659493913"><ele>96.0</ele><time>2026-05-02T09:11:23Z</time></trkpt><trkpt lat="41.92269997238782" lon="12.763562726640814"><ele>96.0</ele><time>2026-05-02T09:11:24Z</time></trkpt><trkpt lat="41.92262506423274" lon="12.763702741511793"><ele>96.0</ele><time>2026-05-02T09:11:25Z</time></trkpt><trkpt lat="41.922556367066946" lon="12.763867697144889"><ele>96.0</ele><time>2026-05-02T09:11:26Z</time></trkpt><trkpt lat="41.92248316591228" lon="12.764027228585274"><ele>96.0</ele><time>2026-05-02T09:11:27Z</time></trkpt><trkpt lat="41.92241548494697" lon="12.76418539384321"><ele>96.0</ele><time>2026-05-02T09:11:28Z</time></trkpt><trkpt lat="41.922341813842635" lon="12.764352547435873"><ele>96.0</ele><time>2026-05-02T09:11:29Z</time></trkpt><trkpt lat="41.92227416899771" lon="12.76452776220518"><ele>94.5</ele><time>2026-05-02T09:11:30Z</time></trkpt><trkpt lat="41.922206450158704" lon="12.764699653284364"><ele>93.0</ele><time>2026-05-02T09:11:31Z</time></trkpt><trkpt lat="41.92213628412845" lon="12.76486585377956"><ele>91.5</ele><time>2026-05-02T09:11:32Z</time></trkpt><trkpt lat="41.92206329938059" lon="12.765032895441252"><ele>90.0</ele><time>2026-05-02T09:11:33Z</time></trkpt><trkpt lat="41.92197894051347" lon="12.765195370361262"><ele>92.25</ele><time>2026-05-02T09:11:34Z</time></trkpt><trkpt lat="41.92188417602073" lon="12.765357106382023"><ele>94.5</ele><time>2026-05-02T09:11:35Z</time></trkpt><trkpt lat="41.92182250875919" lon="12.76552070984884"><ele>96.75</ele><time>2026-05-02T09:11:36Z</time></trkpt><trkpt lat="41.92175148721335" lon="12.765696081970704"><ele>99.0</ele><time>2026-05-02T09:11:37Z</time></trkpt><trkpt lat="41.92168429763725" lon="12.765872989531777"><ele>99.0</ele><time>2026-05-02T09:11:38Z</time></trkpt><trkpt lat="41.92161491510441" lon="12.766051365546092"><ele>99.0</ele><time>2026-05-02T09:11:39Z</time></trkpt><trkpt lat="41.921516719705494" lon="12.7662149981522"><ele>99.0</ele><time>2026-05-02T09:11:40Z</time></trkpt><trkpt lat="41.92142332125468" lon="12.766380172764439"><ele>99.0</ele><time>2026-05-02T09:11:41Z</time></trkpt><trkpt lat="41.92134156782444" lon="12.766573879800482"><ele>99.0</ele><time>2026-05-02T09:11:42Z</time></trkpt><trkpt lat="41.92125009170931" lon="12.76674900834613"><ele>99.0</ele><time>2026-05-02T09:11:43Z</time></trkpt><trkpt lat="41.921150029354" lon="12.766917661434045"><ele>96.0</ele><time>2026-05-02T09:11:44Z</time></trkpt><trkpt lat="41.92105493533245" lon="12.767098725206043"><ele>93.0</ele><time>2026-05-02T09:11:45Z</time></trkpt><trkpt lat="41.92096930062209" lon="12.767290437279359"><ele>90.0</ele><time>2026-05-02T09:11:46Z</time></trkpt><trkpt lat="41.920863167496705" lon="12.767470999907497"><ele>90.0</ele><time>2026-05-02T09:11:47Z</time></trkpt><trkpt lat="41.92077017830381" lon="12.767651551289397"><ele>90.0</ele><time>2026-05-02T09:11:48Z</time></trkpt><trkpt lat="41.920672078928824" lon="12.767841440575117"><ele>90.0</ele><time>2026-05-02T09:11:49Z</time></trkpt><trkpt lat="41.92057540392922" lon="12.768033939038444"><ele>88.0</ele><time>2026-05-02T09:11:50Z</time></trkpt><trkpt lat="41.92048370420875" lon="12.768202129795956"><ele>86.0</ele><time>2026-05-02T09:11:51Z</time></trkpt><trkpt lat="41.920403376824844" lon="12.768355517287915"><ele>84.0</ele><time>2026-05-02T09:11:52Z</time></trkpt><trkpt lat="41.92032466716138" lon="12.76849879791702"><ele>82.0</ele><time>2026-05-02T09:11:53Z</time></trkpt><trkpt lat="41.92024609240778" lon="12.768628682092473"><ele>80.5</ele><time>2026-05-02T09:11:54Z</time></trkpt><trkpt lat="41.9201781968626" lon="12.768764399906424"><ele>79.0</ele><time>2026-05-02T09:11:55Z</time></trkpt><trkpt lat="41.92010640705619" lon="12.76889536367049"><ele>77.5</ele><time>2026-05-02T09:11:56Z</time></trkpt><trkpt lat="41.92003190864999" lon="12.769029055281711"><ele>76.0</ele><time>2026-05-02T09:11:57Z</time></trkpt><trkpt lat="41.91995744279245" lon="12.769162824572124"><ele>81.25</ele><time>2026-05-02T09:11:58Z</time></trkpt><trkpt lat="41.91988414788029" lon="12.769301753959283"><ele>86.5</ele><time>2026-05-02T09:11:59Z</time></trkpt><trkpt lat="41.919797204748626" lon="12.769425709693685"><ele>91.75</ele><time>2026-05-02T09:12:00Z</time></trkpt><trkpt lat="41.91970592614352" lon="12.769549418215409"><ele>97.0</ele><time>2026-05-02T09:12:01Z</time></trkpt><trkpt lat="41.919608162885474" lon="12.7696527018082"><ele>98.0</ele><time>2026-05-02T09:12:02Z</time></trkpt><trkpt lat="41.91949796506984" lon="12.769742670708537"><ele>99.0</ele><time>2026-05-02T09:12:03Z</time></trkpt><trkpt lat="41.91939602381753" lon="12.769842137100094"><ele>100.0</ele><time>2026-05-02T09:12:04Z</time></trkpt><trkpt lat="41.91928829716915" lon="12.769937917297376"><ele>101.0</ele><time>2026-05-02T09:12:05Z</time></trkpt><trkpt lat="41.91918687313678" lon="12.770036767008238"><ele>102.75</ele><time>2026-05-02T09:12:06Z</time></trkpt><trkpt lat="41.91907928165673" lon="12.770133435913728"><ele>104.5</ele><time>2026-05-02T09:12:07Z</time></trkpt><trkpt lat="41.918979320818536" lon="12.770255702352"><ele>106.25</ele><time>2026-05-02T09:12:08Z</time></trkpt><trkpt lat="41.91888306565385" lon="12.770372398489883"><ele>108.0</ele><time>2026-05-02T09:12:09Z</time></trkpt><trkpt lat="41.91878535551996" lon="12.770497783876092"><ele>108.25</ele><time>2026-05-02T09:12:10Z</time></trkpt><trkpt lat="41.91869916888432" lon="12.77063043792452"><ele>108.5</ele><time>2026-05-02T09:12:11Z</time></trkpt><trkpt lat="41.91861435565037" lon="12.770776506129684"><ele>108.75</ele><time>2026-05-02T09:12:12Z</time></trkpt><trkpt lat="41.91852639352278" lon="12.77091717230477"><ele>109.0</ele><time>2026-05-02T09:12:13Z</time></trkpt><trkpt lat="41.91844114099221" lon="12.771058820324763"><ele>110.25</ele><time>2026-05-02T09:12:14Z</time></trkpt><trkpt lat="41.918368101265365" lon="12.771192099238258"><ele>111.5</ele><time>2026-05-02T09:12:15Z</time></trkpt><trkpt lat="41.91827810781292" lon="12.771351305147586"><ele>112.75</ele><time>2026-05-02T09:12:16Z</time></trkpt><trkpt lat="41.918195285007734" lon="12.771513849127512"><ele>114.0</ele><time>2026-05-02T09:12:17Z</time></trkpt><trkpt lat="41.9180219893521" lon="12.771819495606135"><ele>113.25</ele><time>2026-05-02T09:12:19Z</time></trkpt><trkpt lat="41.91793724719017" lon="12.771982397714734"><ele>112.5</ele><time>2026-05-02T09:12:20Z</time></trkpt><trkpt lat="41.917846160554205" lon="12.772139164458668"><ele>111.75</ele><time>2026-05-02T09:12:21Z</time></trkpt><trkpt lat="41.91777024901116" lon="12.772288259454918"><ele>111.0</ele><time>2026-05-02T09:12:22Z</time></trkpt><trkpt lat="41.91768772804171" lon="12.77243843380518"><ele>111.0</ele><time>2026-05-02T09:12:23Z</time></trkpt><trkpt lat="41.91759537264005" lon="12.772587920868745"><ele>111.0</ele><time>2026-05-02T09:12:24Z</time></trkpt><trkpt lat="41.91750352578208" lon="12.77274253308872"><ele>111.0</ele><time>2026-05-02T09:12:25Z</time></trkpt><trkpt lat="41.917411221718034" lon="12.772898224339231"><ele>111.0</ele><time>2026-05-02T09:12:26Z</time></trkpt><trkpt lat="41.91731059052788" lon="12.773041124595634"><ele>111.0</ele><time>2026-05-02T09:12:27Z</time></trkpt><trkpt lat="41.91721842041981" lon="12.773197563547644"><ele>111.0</ele><time>2026-05-02T09:12:28Z</time></trkpt><trkpt lat="41.91712244659907" lon="12.773346460887785"><ele>111.0</ele><time>2026-05-02T09:12:29Z</time></trkpt><trkpt lat="41.917025806117664" lon="12.773493447199984"><ele>111.0</ele><time>2026-05-02T09:12:30Z</time></trkpt><trkpt lat="41.91693400643223" lon="12.773638184673525"><ele>110.0</ele><time>2026-05-02T09:12:31Z</time></trkpt><trkpt lat="41.916843191327786" lon="12.773785025755378"><ele>109.0</ele><time>2026-05-02T09:12:32Z</time></trkpt><trkpt lat="41.91674890757358" lon="12.773925662935762"><ele>108.0</ele><time>2026-05-02T09:12:33Z</time></trkpt><trkpt lat="41.91666031576088" lon="12.774069664583996"><ele>107.0</ele><time>2026-05-02T09:12:34Z</time></trkpt><trkpt lat="41.916573360198534" lon="12.774203926672064"><ele>109.0</ele><time>2026-05-02T09:12:35Z</time></trkpt><trkpt lat="41.91648532800817" lon="12.774336146523599"><ele>111.0</ele><time>2026-05-02T09:12:36Z</time></trkpt><trkpt lat="41.91640263342921" lon="12.774473440006327"><ele>113.0</ele><time>2026-05-02T09:12:37Z</time></trkpt><trkpt lat="41.91632275707183" lon="12.774604485503879"><ele>115.0</ele><time>2026-05-02T09:12:38Z</time></trkpt><trkpt lat="41.91623750678527" lon="12.774735310103276"><ele>115.0</ele><time>2026-05-02T09:12:39Z</time></trkpt><trkpt lat="41.91615747786268" lon="12.774861229006191"><ele>115.0</ele><time>2026-05-02T09:12:40Z</time></trkpt><trkpt lat="41.916077386006116" lon="12.774986065057906"><ele>115.0</ele><time>2026-05-02T09:12:41Z</time></trkpt><trkpt lat="41.91599489950957" lon="12.775112837527258"><ele>115.0</ele><time>2026-05-02T09:12:42Z</time></trkpt><trkpt lat="41.915917632323364" lon="12.775239399968045"><ele>116.25</ele><time>2026-05-02T09:12:43Z</time></trkpt><trkpt lat="41.91583158040026" lon="12.775366355137194"><ele>117.5</ele><time>2026-05-02T09:12:44Z</time></trkpt><trkpt lat="41.915750446994466" lon="12.775499520065878"><ele>118.75</ele><time>2026-05-02T09:12:45Z</time></trkpt><trkpt lat="41.91567147213675" lon="12.775635538251832"><ele>120.0</ele><time>2026-05-02T09:12:46Z</time></trkpt><trkpt lat="41.915597192633655" lon="12.775770041947297"><ele>120.0</ele><time>2026-05-02T09:12:47Z</time></trkpt><trkpt lat="41.91552727373256" lon="12.775917145681628"><ele>120.0</ele><time>2026-05-02T09:12:48Z</time></trkpt><trkpt lat="41.91547350024799" lon="12.776079235807622"><ele>120.0</ele><time>2026-05-02T09:12:49Z</time></trkpt><trkpt lat="41.91542669604151" lon="12.776241110398205"><ele>120.0</ele><time>2026-05-02T09:12:50Z</time></trkpt><trkpt lat="41.915390285560356" lon="12.776410993386666"><ele>120.25</ele><time>2026-05-02T09:12:51Z</time></trkpt><trkpt lat="41.91534550046773" lon="12.77658224559168"><ele>120.5</ele><time>2026-05-02T09:12:52Z</time></trkpt><trkpt lat="41.91530182216916" lon="12.776760006065405"><ele>120.75</ele><time>2026-05-02T09:12:53Z</time></trkpt><trkpt lat="41.91525646964964" lon="12.776929839763557"><ele>121.0</ele><time>2026-05-02T09:12:54Z</time></trkpt><trkpt lat="41.91521514322973" lon="12.777107656500696"><ele>121.0</ele><time>2026-05-02T09:12:55Z</time></trkpt><trkpt lat="41.9151652164692" lon="12.777289024688647"><ele>121.0</ele><time>2026-05-02T09:12:56Z</time></trkpt><trkpt lat="41.9151254748844" lon="12.777468967903697"><ele>121.0</ele><time>2026-05-02T09:12:57Z</time></trkpt><trkpt lat="41.9150758271918" lon="12.777642843621008"><ele>121.0</ele><time>2026-05-02T09:12:58Z</time></trkpt><trkpt lat="41.91503137063673" lon="12.77781883535155"><ele>122.5</ele><time>2026-05-02T09:12:59Z</time></trkpt><trkpt lat="41.914986940175574" lon="12.777990310775232"><ele>124.0</ele><time>2026-05-02T09:13:00Z</time></trkpt><trkpt lat="41.91494052875526" lon="12.778171080623688"><ele>125.5</ele><time>2026-05-02T09:13:01Z</time></trkpt><trkpt lat="41.91489340044491" lon="12.778347567987694"><ele>127.0</ele><time>2026-05-02T09:13:02Z</time></trkpt><trkpt lat="41.91484518569223" lon="12.778521461658386"><ele>127.0</ele><time>2026-05-02T09:13:03Z</time></trkpt><trkpt lat="41.91479459244292" lon="12.778701000479831"><ele>127.0</ele><time>2026-05-02T09:13:04Z</time></trkpt><trkpt lat="41.91474318602844" lon="12.778876596356383"><ele>127.0</ele><time>2026-05-02T09:13:05Z</time></trkpt><trkpt lat="41.91469900629324" lon="12.779056198192409"><ele>127.0</ele><time>2026-05-02T09:13:06Z</time></trkpt><trkpt lat="41.914648804601285" lon="12.779235526307808"><ele>126.5</ele><time>2026-05-02T09:13:07Z</time></trkpt><trkpt lat="41.9146012451884" lon="12.779420991476908"><ele>126.0</ele><time>2026-05-02T09:13:08Z</time></trkpt><trkpt lat="41.914555216849735" lon="12.779603079949345"><ele>125.5</ele><time>2026-05-02T09:13:09Z</time></trkpt><trkpt lat="41.91450991366523" lon="12.779788516138957"><ele>125.0</ele><time>2026-05-02T09:13:10Z</time></trkpt><trkpt lat="41.91446023144626" lon="12.779963695015741"><ele>125.0</ele><time>2026-05-02T09:13:11Z</time></trkpt><trkpt lat="41.91441214570665" lon="12.78014343594094"><ele>125.0</ele><time>2026-05-02T09:13:12Z</time></trkpt><trkpt lat="41.91436266444119" lon="12.780319808694243"><ele>125.0</ele><time>2026-05-02T09:13:13Z</time></trkpt><trkpt lat="41.91431431500207" lon="12.780500701115628"><ele>125.0</ele><time>2026-05-02T09:13:14Z</time></trkpt><trkpt lat="41.91426107084074" lon="12.780667037075585"><ele>126.0</ele><time>2026-05-02T09:13:15Z</time></trkpt><trkpt lat="41.91420235535897" lon="12.780833699652959"><ele>127.0</ele><time>2026-05-02T09:13:16Z</time></trkpt><trkpt lat="41.91413321296923" lon="12.780991835120211"><ele>128.0</ele><time>2026-05-02T09:13:17Z</time></trkpt><trkpt lat="41.914063328980134" lon="12.78115994452351"><ele>129.0</ele><time>2026-05-02T09:13:18Z</time></trkpt><trkpt lat="41.913980041633046" lon="12.781313509664837"><ele>129.0</ele><time>2026-05-02T09:13:19Z</time></trkpt><trkpt lat="41.913900255848056" lon="12.78145413801041"><ele>129.0</ele><time>2026-05-02T09:13:20Z</time></trkpt><trkpt lat="41.9138092104848" lon="12.781596291693262"><ele>129.0</ele><time>2026-05-02T09:13:21Z</time></trkpt><trkpt lat="41.91371728588949" lon="12.781733099238819"><ele>129.0</ele><time>2026-05-02T09:13:22Z</time></trkpt><trkpt lat="41.91362431069537" lon="12.78186746988667"><ele>129.75</ele><time>2026-05-02T09:13:23Z</time></trkpt><trkpt lat="41.91352469129993" lon="12.782001536420514"><ele>130.5</ele><time>2026-05-02T09:13:24Z</time></trkpt><trkpt lat="41.91343403843679" lon="12.782137912269537"><ele>131.25</ele><time>2026-05-02T09:13:25Z</time></trkpt><trkpt lat="41.91333429101869" lon="12.782270656844272"><ele>132.0</ele><time>2026-05-02T09:13:26Z</time></trkpt><trkpt lat="41.913243309469614" lon="12.782410283383976"><ele>132.0</ele><time>2026-05-02T09:13:27Z</time></trkpt><trkpt lat="41.91314996900453" lon="12.78254607952059"><ele>132.0</ele><time>2026-05-02T09:13:28Z</time></trkpt><trkpt lat="41.91305710183643" lon="12.782683051450194"><ele>132.0</ele><time>2026-05-02T09:13:29Z</time></trkpt><trkpt lat="41.91296879083002" lon="12.782816431868753"><ele>132.0</ele><time>2026-05-02T09:13:30Z</time></trkpt><trkpt lat="41.91287745457706" lon="12.782951707549866"><ele>131.25</ele><time>2026-05-02T09:13:31Z</time></trkpt><trkpt lat="41.912787196421604" lon="12.783085221623933"><ele>130.5</ele><time>2026-05-02T09:13:32Z</time></trkpt><trkpt lat="41.91269900841089" lon="12.783220212395623"><ele>129.75</ele><time>2026-05-02T09:13:33Z</time></trkpt><trkpt lat="41.91261319486272" lon="12.783353449942288"><ele>129.0</ele><time>2026-05-02T09:13:34Z</time></trkpt><trkpt lat="41.9125286743276" lon="12.783491815747395"><ele>131.0</ele><time>2026-05-02T09:13:35Z</time></trkpt><trkpt lat="41.912446406338844" lon="12.78363674549748"><ele>133.0</ele><time>2026-05-02T09:13:36Z</time></trkpt><trkpt lat="41.91236809981875" lon="12.783788448060205"><ele>135.0</ele><time>2026-05-02T09:13:37Z</time></trkpt><trkpt lat="41.91228941353603" lon="12.78394231808473"><ele>137.0</ele><time>2026-05-02T09:13:38Z</time></trkpt><trkpt lat="41.912210563501375" lon="12.784101239910973"><ele>137.0</ele><time>2026-05-02T09:13:39Z</time></trkpt><trkpt lat="41.91213539210674" lon="12.784258781534435"><ele>137.0</ele><time>2026-05-02T09:13:40Z</time></trkpt><trkpt lat="41.912056731020655" lon="12.784426354107875"><ele>137.0</ele><time>2026-05-02T09:13:41Z</time></trkpt><trkpt lat="41.91198059338625" lon="12.78458153609464"><ele>137.0</ele><time>2026-05-02T09:13:42Z</time></trkpt><trkpt lat="41.911916011350115" lon="12.78476228093331"><ele>136.5</ele><time>2026-05-02T09:13:43Z</time></trkpt><trkpt lat="41.91185609456862" lon="12.784943788859826"><ele>136.0</ele><time>2026-05-02T09:13:44Z</time></trkpt><trkpt lat="41.91180172351234" lon="12.785130575805859"><ele>135.5</ele><time>2026-05-02T09:13:45Z</time></trkpt><trkpt lat="41.911750750008466" lon="12.785308592259298"><ele>135.0</ele><time>2026-05-02T09:13:46Z</time></trkpt><trkpt lat="41.91170087610645" lon="12.785492118684363"><ele>137.5</ele><time>2026-05-02T09:13:47Z</time></trkpt><trkpt lat="41.91164858741716" lon="12.785683394400428"><ele>140.0</ele><time>2026-05-02T09:13:48Z</time></trkpt><trkpt lat="41.91159943589134" lon="12.785865820418506"><ele>142.5</ele><time>2026-05-02T09:13:49Z</time></trkpt><trkpt lat="41.91153988549292" lon="12.786044417552784"><ele>145.0</ele><time>2026-05-02T09:13:50Z</time></trkpt><trkpt lat="41.91147295605576" lon="12.786219208412074"><ele>145.0</ele><time>2026-05-02T09:13:51Z</time></trkpt><trkpt lat="41.911400627125566" lon="12.786379923485528"><ele>145.0</ele><time>2026-05-02T09:13:52Z</time></trkpt><trkpt lat="41.91130279201353" lon="12.786515316039578"><ele>145.0</ele><time>2026-05-02T09:13:53Z</time></trkpt><trkpt lat="41.91120968522299" lon="12.78665551303102"><ele>145.0</ele><time>2026-05-02T09:13:54Z</time></trkpt><trkpt lat="41.91111371069671" lon="12.786790618320339"><ele>146.5</ele><time>2026-05-02T09:13:55Z</time></trkpt><trkpt lat="41.91102858724552" lon="12.786936262893052"><ele>148.0</ele><time>2026-05-02T09:13:56Z</time></trkpt><trkpt lat="41.91092245112506" lon="12.787043281472997"><ele>149.5</ele><time>2026-05-02T09:13:57Z</time></trkpt><trkpt lat="41.91082995044408" lon="12.78718840609304"><ele>151.0</ele><time>2026-05-02T09:13:58Z</time></trkpt><trkpt lat="41.91072393470641" lon="12.787313361609062"><ele>151.0</ele><time>2026-05-02T09:13:59Z</time></trkpt><trkpt lat="41.910622193984345" lon="12.78744416360551"><ele>151.0</ele><time>2026-05-02T09:14:00Z</time></trkpt><trkpt lat="41.9105224012635" lon="12.787574196383128"><ele>151.0</ele><time>2026-05-02T09:14:01Z</time></trkpt><trkpt lat="41.910418738946625" lon="12.787719095474678"><ele>151.0</ele><time>2026-05-02T09:14:02Z</time></trkpt><trkpt lat="41.910325373562266" lon="12.787859320796855"><ele>153.0</ele><time>2026-05-02T09:14:03Z</time></trkpt><trkpt lat="41.910231638760116" lon="12.788003367948537"><ele>155.0</ele><time>2026-05-02T09:14:04Z</time></trkpt><trkpt lat="41.91014505106554" lon="12.788150903844382"><ele>157.0</ele><time>2026-05-02T09:14:05Z</time></trkpt><trkpt lat="41.910064785368725" lon="12.788301159196573"><ele>159.0</ele><time>2026-05-02T09:14:06Z</time></trkpt><trkpt lat="41.90998990846891" lon="12.788457935767681"><ele>158.75</ele><time>2026-05-02T09:14:07Z</time></trkpt><trkpt lat="41.90991384393335" lon="12.788615936395129"><ele>158.5</ele><time>2026-05-02T09:14:08Z</time></trkpt><trkpt lat="41.90984352627339" lon="12.788775751555848"><ele>158.25</ele><time>2026-05-02T09:14:09Z</time></trkpt><trkpt lat="41.909770319893404" lon="12.788926795681931"><ele>158.0</ele><time>2026-05-02T09:14:10Z</time></trkpt><trkpt lat="41.90969153773416" lon="12.789078722081177"><ele>158.0</ele><time>2026-05-02T09:14:11Z</time></trkpt><trkpt lat="41.90958982388188" lon="12.789204299239826"><ele>158.0</ele><time>2026-05-02T09:14:12Z</time></trkpt><trkpt lat="41.90950474644022" lon="12.78933581367694"><ele>158.0</ele><time>2026-05-02T09:14:13Z</time></trkpt><trkpt lat="41.90939971526587" lon="12.789468803131482"><ele>158.0</ele><time>2026-05-02T09:14:14Z</time></trkpt><trkpt lat="41.90929569762753" lon="12.789583508551294"><ele>159.25</ele><time>2026-05-02T09:14:15Z</time></trkpt><trkpt lat="41.90918446533399" lon="12.789693153615254"><ele>160.5</ele><time>2026-05-02T09:14:16Z</time></trkpt><trkpt lat="41.9090803595862" lon="12.789806137271086"><ele>161.75</ele><time>2026-05-02T09:14:17Z</time></trkpt><trkpt lat="41.90897700929959" lon="12.78992920462364"><ele>163.0</ele><time>2026-05-02T09:14:18Z</time></trkpt><trkpt lat="41.90887148389613" lon="12.790048204945673"><ele>163.0</ele><time>2026-05-02T09:14:19Z</time></trkpt><trkpt lat="41.90876434045246" lon="12.790168162017572"><ele>163.0</ele><time>2026-05-02T09:14:20Z</time></trkpt><trkpt lat="41.908658761633575" lon="12.790284955444235"><ele>163.0</ele><time>2026-05-02T09:14:21Z</time></trkpt><trkpt lat="41.90855002385861" lon="12.790406763905006"><ele>163.0</ele><time>2026-05-02T09:14:22Z</time></trkpt><trkpt lat="41.90844328796492" lon="12.790533181908897"><ele>164.75</ele><time>2026-05-02T09:14:23Z</time></trkpt><trkpt lat="41.90833687136781" lon="12.790658290920678"><ele>166.5</ele><time>2026-05-02T09:14:24Z</time></trkpt><trkpt lat="41.90822680587015" lon="12.790782179967362"><ele>168.25</ele><time>2026-05-02T09:14:25Z</time></trkpt><trkpt lat="41.908122563064474" lon="12.790921381570245"><ele>170.0</ele><time>2026-05-02T09:14:26Z</time></trkpt><trkpt lat="41.90802914358722" lon="12.791076974909663"><ele>171.0</ele><time>2026-05-02T09:14:27Z</time></trkpt><trkpt lat="41.90794438778808" lon="12.791245542782463"><ele>172.0</ele><time>2026-05-02T09:14:28Z</time></trkpt><trkpt lat="41.90786692715232" lon="12.791418549415354"><ele>173.0</ele><time>2026-05-02T09:14:29Z</time></trkpt><trkpt lat="41.907794213833185" lon="12.791583782542647"><ele>174.0</ele><time>2026-05-02T09:14:30Z</time></trkpt><trkpt lat="41.907710573402014" lon="12.79175036218812"><ele>174.0</ele><time>2026-05-02T09:14:31Z</time></trkpt><trkpt lat="41.907630717676405" lon="12.791915604827997"><ele>174.0</ele><time>2026-05-02T09:14:32Z</time></trkpt><trkpt lat="41.90755222847546" lon="12.792077168511415"><ele>174.0</ele><time>2026-05-02T09:14:33Z</time></trkpt><trkpt lat="41.90747403944673" lon="12.792241531485574"><ele>174.0</ele><time>2026-05-02T09:14:34Z</time></trkpt><trkpt lat="41.907392961738196" lon="12.792399714776048"><ele>174.75</ele><time>2026-05-02T09:14:35Z</time></trkpt><trkpt lat="41.907311765595466" lon="12.792552062471268"><ele>175.5</ele><time>2026-05-02T09:14:36Z</time></trkpt><trkpt lat="41.90722839458673" lon="12.792706199228167"><ele>176.25</ele><time>2026-05-02T09:14:37Z</time></trkpt><trkpt lat="41.90713760282212" lon="12.79285806458302"><ele>177.0</ele><time>2026-05-02T09:14:38Z</time></trkpt><trkpt lat="41.907051184633424" lon="12.793004774756861"><ele>177.5</ele><time>2026-05-02T09:14:39Z</time></trkpt><trkpt lat="41.90696114493904" lon="12.793153027672368"><ele>178.0</ele><time>2026-05-02T09:14:40Z</time></trkpt><trkpt lat="41.90686817097133" lon="12.793295937575722"><ele>178.5</ele><time>2026-05-02T09:14:41Z</time></trkpt><trkpt lat="41.906770103624346" lon="12.793437378025729"><ele>179.0</ele><time>2026-05-02T09:14:42Z</time></trkpt><trkpt lat="41.90666940970402" lon="12.793580672829638"><ele>179.75</ele><time>2026-05-02T09:14:43Z</time></trkpt><trkpt lat="41.906571122508396" lon="12.79372132117078"><ele>180.5</ele><time>2026-05-02T09:14:44Z</time></trkpt><trkpt lat="41.90647146700558" lon="12.793857508080022"><ele>181.25</ele><time>2026-05-02T09:14:45Z</time></trkpt><trkpt lat="41.906369967418186" lon="12.793991950147841"><ele>182.0</ele><time>2026-05-02T09:14:46Z</time></trkpt><trkpt lat="41.90626589278472" lon="12.794121903866445"><ele>182.0</ele><time>2026-05-02T09:14:47Z</time></trkpt><trkpt lat="41.90615855661448" lon="12.794243077662381"><ele>182.0</ele><time>2026-05-02T09:14:48Z</time></trkpt><trkpt lat="41.90605550376898" lon="12.794361160092725"><ele>182.0</ele><time>2026-05-02T09:14:49Z</time></trkpt><trkpt lat="41.905947048065315" lon="12.794472768786061"><ele>182.0</ele><time>2026-05-02T09:14:50Z</time></trkpt><trkpt lat="41.90583290986877" lon="12.794582525902769"><ele>183.0</ele><time>2026-05-02T09:14:51Z</time></trkpt><trkpt lat="41.90571739701805" lon="12.794692826319984"><ele>184.0</ele><time>2026-05-02T09:14:52Z</time></trkpt><trkpt lat="41.90560811528524" lon="12.794792695306855"><ele>185.0</ele><time>2026-05-02T09:14:53Z</time></trkpt><trkpt lat="41.90549341014205" lon="12.794890200288581"><ele>186.0</ele><time>2026-05-02T09:14:54Z</time></trkpt><trkpt lat="41.90538627217968" lon="12.794988455535984"><ele>186.0</ele><time>2026-05-02T09:14:55Z</time></trkpt><trkpt lat="41.90527278444407" lon="12.795105120812357"><ele>186.0</ele><time>2026-05-02T09:14:56Z</time></trkpt><trkpt lat="41.905162001117176" lon="12.795212499687366"><ele>186.0</ele><time>2026-05-02T09:14:57Z</time></trkpt><trkpt lat="41.90505641695827" lon="12.795333667821017"><ele>186.0</ele><time>2026-05-02T09:14:58Z</time></trkpt><trkpt lat="41.90495533133869" lon="12.795461051560407"><ele>186.75</ele><time>2026-05-02T09:14:59Z</time></trkpt><trkpt lat="41.90485269749248" lon="12.795589017062428"><ele>187.5</ele><time>2026-05-02T09:15:00Z</time></trkpt><trkpt lat="41.90475460810626" lon="12.79572841660968"><ele>188.25</ele><time>2026-05-02T09:15:01Z</time></trkpt><trkpt lat="41.904655701305934" lon="12.79587437374568"><ele>189.0</ele><time>2026-05-02T09:15:02Z</time></trkpt><trkpt lat="41.904558363626904" lon="12.79602659401799"><ele>190.0</ele><time>2026-05-02T09:15:03Z</time></trkpt><trkpt lat="41.90446355104487" lon="12.796179488196936"><ele>191.0</ele><time>2026-05-02T09:15:04Z</time></trkpt><trkpt lat="41.90436820592931" lon="12.79633832185293"><ele>192.0</ele><time>2026-05-02T09:15:05Z</time></trkpt><trkpt lat="41.904269059037254" lon="12.796492373233132"><ele>192.33333333333331</ele><time>2026-05-02T09:15:06Z</time></trkpt><trkpt lat="41.9041728458905" lon="12.796651203126755"><ele>192.66666666666666</ele><time>2026-05-02T09:15:07Z</time></trkpt><trkpt lat="41.904078727533054" lon="12.796813160933654"><ele>193.0</ele><time>2026-05-02T09:15:08Z</time></trkpt><trkpt lat="41.90398675051149" lon="12.796975329030444"><ele>193.0</ele><time>2026-05-02T09:15:09Z</time></trkpt><trkpt lat="41.903893594960266" lon="12.797133977775596"><ele>193.0</ele><time>2026-05-02T09:15:10Z</time></trkpt><trkpt lat="41.90379842236691" lon="12.79728835427186"><ele>193.0</ele><time>2026-05-02T09:15:11Z</time></trkpt><trkpt lat="41.90370363359648" lon="12.79744491916203"><ele>193.0</ele><time>2026-05-02T09:15:12Z</time></trkpt><trkpt lat="41.903608864740974" lon="12.797605339349845"><ele>193.0</ele><time>2026-05-02T09:15:13Z</time></trkpt><trkpt lat="41.903513996911116" lon="12.797761823081915"><ele>193.0</ele><time>2026-05-02T09:15:14Z</time></trkpt><trkpt lat="41.903420276479935" lon="12.797921603195073"><ele>194.0</ele><time>2026-05-02T09:15:15Z</time></trkpt><trkpt lat="41.903325125397856" lon="12.79807860946715"><ele>195.0</ele><time>2026-05-02T09:15:16Z</time></trkpt><trkpt lat="41.903231814668594" lon="12.798234077449896"><ele>196.0</ele><time>2026-05-02T09:15:17Z</time></trkpt><trkpt lat="41.90313091755627" lon="12.798394591010371"><ele>197.33333333333331</ele><time>2026-05-02T09:15:18Z</time></trkpt><trkpt lat="41.90303948259477" lon="12.798556449393832"><ele>198.66666666666669</ele><time>2026-05-02T09:15:19Z</time></trkpt><trkpt lat="41.90294127705666" lon="12.798717520716199"><ele>200.0</ele><time>2026-05-02T09:15:20Z</time></trkpt><trkpt lat="41.90285025591082" lon="12.798878443672931"><ele>200.0</ele><time>2026-05-02T09:15:21Z</time></trkpt><trkpt lat="41.902756955018475" lon="12.799037373160761"><ele>200.0</ele><time>2026-05-02T09:15:22Z</time></trkpt><trkpt lat="41.902661530545075" lon="12.799198646099867"><ele>200.0</ele><time>2026-05-02T09:15:23Z</time></trkpt><trkpt lat="41.902569325432424" lon="12.799351683008616"><ele>200.0</ele><time>2026-05-02T09:15:24Z</time></trkpt><trkpt lat="41.90246865268784" lon="12.799512085147272"><ele>200.0</ele><time>2026-05-02T09:15:25Z</time></trkpt><trkpt lat="41.90236354610447" lon="12.799652078760326"><ele>200.0</ele><time>2026-05-02T09:15:26Z</time></trkpt><trkpt lat="41.902264742287706" lon="12.799806881882079"><ele>200.0</ele><time>2026-05-02T09:15:27Z</time></trkpt><trkpt lat="41.90216470792207" lon="12.799956517697483"><ele>200.0</ele><time>2026-05-02T09:15:28Z</time></trkpt><trkpt lat="41.902059240427604" lon="12.800105384210646"><ele>200.0</ele><time>2026-05-02T09:15:29Z</time></trkpt><trkpt lat="41.90195685459757" lon="12.800257250218369"><ele>201.33333333333334</ele><time>2026-05-02T09:15:30Z</time></trkpt><trkpt lat="41.90186703148834" lon="12.800421634116237"><ele>202.66666666666669</ele><time>2026-05-02T09:15:31Z</time></trkpt><trkpt lat="41.90174669962405" lon="12.800565666020148"><ele>204.0</ele><time>2026-05-02T09:15:32Z</time></trkpt><trkpt lat="41.90165718597309" lon="12.800721492604476"><ele>203.0</ele><time>2026-05-02T09:15:33Z</time></trkpt><trkpt lat="41.90155976742752" lon="12.800868306333497"><ele>202.0</ele><time>2026-05-02T09:15:34Z</time></trkpt><trkpt lat="41.90147071703845" lon="12.801031030929193"><ele>201.0</ele><time>2026-05-02T09:15:35Z</time></trkpt><trkpt lat="41.9013930238642" lon="12.801198937480104"><ele>200.0</ele><time>2026-05-02T09:15:36Z</time></trkpt><trkpt lat="41.901325050580795" lon="12.801376993223117"><ele>200.0</ele><time>2026-05-02T09:15:37Z</time></trkpt><trkpt lat="41.901272493934364" lon="12.801562670508043"><ele>200.0</ele><time>2026-05-02T09:15:38Z</time></trkpt><trkpt lat="41.901231651861806" lon="12.801753573805387"><ele>200.0</ele><time>2026-05-02T09:15:39Z</time></trkpt><trkpt lat="41.90120126530143" lon="12.801946386121692"><ele>200.0</ele><time>2026-05-02T09:15:40Z</time></trkpt><trkpt lat="41.90117628155351" lon="12.802147942561247"><ele>202.33333333333334</ele><time>2026-05-02T09:15:41Z</time></trkpt><trkpt lat="41.90115943860848" lon="12.802352535866703"><ele>204.66666666666669</ele><time>2026-05-02T09:15:42Z</time></trkpt><trkpt lat="41.90113440256261" lon="12.802548105927512"><ele>207.0</ele><time>2026-05-02T09:15:43Z</time></trkpt><trkpt lat="41.901109595378735" lon="12.802751585300435"><ele>207.75</ele><time>2026-05-02T09:15:44Z</time></trkpt><trkpt lat="41.90108726467736" lon="12.802942093506722"><ele>208.5</ele><time>2026-05-02T09:15:45Z</time></trkpt><trkpt lat="41.901070042110305" lon="12.803144008147457"><ele>209.25</ele><time>2026-05-02T09:15:46Z</time></trkpt><trkpt lat="41.901050130695594" lon="12.8033429253936"><ele>210.0</ele><time>2026-05-02T09:15:47Z</time></trkpt><trkpt lat="41.901032529831625" lon="12.80354489586931"><ele>210.66666666666669</ele><time>2026-05-02T09:15:48Z</time></trkpt><trkpt lat="41.90101976545776" lon="12.803753356116024"><ele>211.33333333333334</ele><time>2026-05-02T09:15:49Z</time></trkpt><trkpt lat="41.90100542264034" lon="12.803960041070143"><ele>212.0</ele><time>2026-05-02T09:15:50Z</time></trkpt><trkpt lat="41.90099465892079" lon="12.804162312853963"><ele>210.33333333333334</ele><time>2026-05-02T09:15:51Z</time></trkpt><trkpt lat="41.900968332134255" lon="12.804377503727762"><ele>208.66666666666669</ele><time>2026-05-02T09:15:52Z</time></trkpt><trkpt lat="41.9009502929077" lon="12.804584312336043"><ele>207.0</ele><time>2026-05-02T09:15:53Z</time></trkpt><trkpt lat="41.90094870203849" lon="12.804780314150264"><ele>207.0</ele><time>2026-05-02T09:15:54Z</time></trkpt><trkpt lat="41.9009457247184" lon="12.80496182450087"><ele>207.0</ele><time>2026-05-02T09:15:55Z</time></trkpt><trkpt lat="41.900941964435276" lon="12.805140857162705"><ele>207.0</ele><time>2026-05-02T09:15:56Z</time></trkpt><trkpt lat="41.90094810305885" lon="12.805304180045514"><ele>207.0</ele><time>2026-05-02T09:15:57Z</time></trkpt><trkpt lat="41.900937417359444" lon="12.805472526228368"><ele>205.75</ele><time>2026-05-02T09:15:58Z</time></trkpt><trkpt lat="41.90093319781096" lon="12.805641517590294"><ele>204.5</ele><time>2026-05-02T09:15:59Z</time></trkpt><trkpt lat="41.90093115455306" lon="12.805810091090708"><ele>203.25</ele><time>2026-05-02T09:16:00Z</time></trkpt><trkpt lat="41.900930086429014" lon="12.805979317944644"><ele>202.0</ele><time>2026-05-02T09:16:01Z</time></trkpt><trkpt lat="41.900931573490666" lon="12.806136428009797"><ele>201.2</ele><time>2026-05-02T09:16:02Z</time></trkpt><trkpt lat="41.90093571298094" lon="12.806284290803"><ele>200.39999999999998</ele><time>2026-05-02T09:16:03Z</time></trkpt><trkpt lat="41.90093328248548" lon="12.806437259539408"><ele>199.60000000000002</ele><time>2026-05-02T09:16:04Z</time></trkpt><trkpt lat="41.90092937077742" lon="12.806578108949962"><ele>198.8</ele><time>2026-05-02T09:16:05Z</time></trkpt><trkpt lat="41.900932811949026" lon="12.806692895672464"><ele>198.0</ele><time>2026-05-02T09:16:06Z</time></trkpt><trkpt lat="41.900938822653444" lon="12.806811610884086"><ele>197.83333333333334</ele><time>2026-05-02T09:16:07Z</time></trkpt><trkpt lat="41.900944674076875" lon="12.806921006117935"><ele>197.66666666666669</ele><time>2026-05-02T09:16:08Z</time></trkpt><trkpt lat="41.900955441196494" lon="12.807029071580663"><ele>197.5</ele><time>2026-05-02T09:16:09Z</time></trkpt><trkpt lat="41.900960451184304" lon="12.80713955027205"><ele>197.33333333333334</ele><time>2026-05-02T09:16:10Z</time></trkpt><trkpt lat="41.900965788957826" lon="12.807252244900214"><ele>197.16666666666669</ele><time>2026-05-02T09:16:11Z</time></trkpt><trkpt lat="41.90098773888457" lon="12.807380814156112"><ele>197.0</ele><time>2026-05-02T09:16:12Z</time></trkpt><trkpt lat="41.90099390856959" lon="12.807518514952614"><ele>197.0</ele><time>2026-05-02T09:16:13Z</time></trkpt><trkpt lat="41.900979264775906" lon="12.807656037891588"><ele>197.0</ele><time>2026-05-02T09:16:14Z</time></trkpt><trkpt lat="41.9009472022128" lon="12.807790857396029"><ele>197.0</ele><time>2026-05-02T09:16:15Z</time></trkpt><trkpt lat="41.90088159613848" lon="12.807872379227883"><ele>197.0</ele><time>2026-05-02T09:16:16Z</time></trkpt><trkpt lat="41.90084128105794" lon="12.807971671886694"><ele>197.0</ele><time>2026-05-02T09:16:17Z</time></trkpt><trkpt lat="41.9008008463094" lon="12.808051460267821"><ele>196.2</ele><time>2026-05-02T09:16:18Z</time></trkpt><trkpt lat="41.90071897455171" lon="12.808177594646942"><ele>195.39999999999998</ele><time>2026-05-02T09:16:20Z</time></trkpt><trkpt lat="41.90082028464526" lon="12.80832770000857"><ele>194.60000000000002</ele><time>2026-05-02T09:16:23Z</time></trkpt><trkpt lat="41.90083584278894" lon="12.80841067511987"><ele>193.8</ele><time>2026-05-02T09:16:25Z</time></trkpt><trkpt lat="41.90084017354539" lon="12.80850214844207"><ele>193.0</ele><time>2026-05-02T09:16:29Z</time></trkpt><trkpt lat="41.900849278840084" lon="12.808694831827344"><ele>193.0</ele><time>2026-05-02T09:18:46Z</time></trkpt><trkpt lat="41.900845240611346" lon="12.80879053699679"><ele>193.0</ele><time>2026-05-02T09:18:47Z</time></trkpt><trkpt lat="41.900836322727734" lon="12.808911177946296"><ele>193.0</ele><time>2026-05-02T09:18:48Z</time></trkpt><trkpt lat="41.9008272344229" lon="12.809041918168406"><ele>193.0</ele><time>2026-05-02T09:18:49Z</time></trkpt><trkpt lat="41.900818949185705" lon="12.809176386276361"><ele>193.0</ele><time>2026-05-02T09:18:50Z</time></trkpt><trkpt lat="41.90081360171199" lon="12.809338589348018"><ele>192.25</ele><time>2026-05-02T09:18:51Z</time></trkpt><trkpt lat="41.90080573377258" lon="12.809503159868958"><ele>191.5</ele><time>2026-05-02T09:18:52Z</time></trkpt><trkpt lat="41.900802673376276" lon="12.809667298132844"><ele>190.75</ele><time>2026-05-02T09:18:53Z</time></trkpt><trkpt lat="41.90079125617435" lon="12.80982945630945"><ele>190.0</ele><time>2026-05-02T09:18:54Z</time></trkpt><trkpt lat="41.90077065276278" lon="12.809981320253382"><ele>190.0</ele><time>2026-05-02T09:18:55Z</time></trkpt><trkpt lat="41.900735283018626" lon="12.810128342454533"><ele>190.0</ele><time>2026-05-02T09:18:56Z</time></trkpt><trkpt lat="41.90069617676094" lon="12.810267729426105"><ele>190.0</ele><time>2026-05-02T09:18:57Z</time></trkpt><trkpt lat="41.90063325868257" lon="12.810401119895392"><ele>190.0</ele><time>2026-05-02T09:18:58Z</time></trkpt><trkpt lat="41.900589610676505" lon="12.810530061397968"><ele>190.0</ele><time>2026-05-02T09:18:59Z</time></trkpt><trkpt lat="41.90054213843107" lon="12.81065873779322"><ele>187.6</ele><time>2026-05-02T09:19:00Z</time></trkpt><trkpt lat="41.90050027589467" lon="12.810786024755174"><ele>185.2</ele><time>2026-05-02T09:19:01.001Z</time></trkpt><trkpt lat="41.90044732173791" lon="12.81091024001787"><ele>182.8</ele><time>2026-05-02T09:19:02.001Z</time></trkpt><trkpt lat="41.9003788074234" lon="12.811030301687"><ele>180.4</ele><time>2026-05-02T09:19:03.001Z</time></trkpt><trkpt lat="41.90031260944298" lon="12.811138882176296"><ele>178.0</ele><time>2026-05-02T09:19:04.001Z</time></trkpt><trkpt lat="41.90024566612491" lon="12.811258659296083"><ele>175.25</ele><time>2026-05-02T09:19:05.001Z</time></trkpt><trkpt lat="41.900168556248246" lon="12.811370041779794"><ele>172.5</ele><time>2026-05-02T09:19:06.001Z</time></trkpt><trkpt lat="41.90008520668233" lon="12.811471568559627"><ele>169.75</ele><time>2026-05-02T09:19:07.001Z</time></trkpt><trkpt lat="41.90000063336878" lon="12.811589936512215"><ele>167.0</ele><time>2026-05-02T09:19:08.001Z</time></trkpt><trkpt lat="41.89990087516552" lon="12.811699440817547"><ele>167.0</ele><time>2026-05-02T09:19:09.001Z</time></trkpt><trkpt lat="41.899790079257336" lon="12.811787520667876"><ele>167.0</ele><time>2026-05-02T09:19:10.001Z</time></trkpt><trkpt lat="41.899683398478274" lon="12.811903852143569"><ele>167.0</ele><time>2026-05-02T09:19:11.001Z</time></trkpt><trkpt lat="41.899589623151044" lon="12.811990657832977"><ele>167.0</ele><time>2026-05-02T09:19:12.001Z</time></trkpt><trkpt lat="41.89949375584231" lon="12.81208809798727"><ele>163.6</ele><time>2026-05-02T09:19:13.001Z</time></trkpt><trkpt lat="41.89941140077584" lon="12.812189760394187"><ele>160.2</ele><time>2026-05-02T09:19:14.001Z</time></trkpt><trkpt lat="41.8993566724853" lon="12.81226985492784"><ele>156.8</ele><time>2026-05-02T09:19:15.001Z</time></trkpt><trkpt lat="41.89932900954031" lon="12.812366293754167"><ele>153.4</ele><time>2026-05-02T09:19:16.001Z</time></trkpt><trkpt lat="41.8993194254037" lon="12.812462655870217"><ele>150.0</ele><time>2026-05-02T09:19:17.001Z</time></trkpt><trkpt lat="41.899381417382095" lon="12.812591103442616"><ele>150.0</ele><time>2026-05-02T09:19:19.001Z</time></trkpt><trkpt lat="41.89945884642833" lon="12.81258838919037"><ele>150.0</ele><time>2026-05-02T09:19:20.001Z</time></trkpt><trkpt lat="41.89958934249471" lon="12.812539609347983"><ele>150.0</ele><time>2026-05-02T09:19:22Z</time></trkpt><trkpt lat="41.89968421497867" lon="12.812500513674886"><ele>150.0</ele><time>2026-05-02T09:19:23Z</time></trkpt><trkpt lat="41.89978005469969" lon="12.812460023756204"><ele>150.0</ele><time>2026-05-02T09:19:24Z</time></trkpt><trkpt lat="41.89988765876416" lon="12.812422762984637"><ele>150.0</ele><time>2026-05-02T09:19:25Z</time></trkpt><trkpt lat="41.90001255340482" lon="12.812382243944882"><ele>150.0</ele><time>2026-05-02T09:19:26Z</time></trkpt><trkpt lat="41.900126688763635" lon="12.812346487388318"><ele>150.0</ele><time>2026-05-02T09:19:27Z</time></trkpt><trkpt lat="41.90023775383551" lon="12.812311069969645"><ele>150.0</ele><time>2026-05-02T09:19:28Z</time></trkpt><trkpt lat="41.900335837648605" lon="12.812285560512233"><ele>149.0</ele><time>2026-05-02T09:19:29Z</time></trkpt><trkpt lat="41.90042264212125" lon="12.812264194604753"><ele>148.0</ele><time>2026-05-02T09:19:30Z</time></trkpt><trkpt lat="41.900499653173846" lon="12.81225099416568"><ele>147.0</ele><time>2026-05-02T09:19:31Z</time></trkpt><trkpt lat="41.900572053680605" lon="12.812245850833918"><ele>146.0</ele><time>2026-05-02T09:19:32Z</time></trkpt><trkpt lat="41.90064627678326" lon="12.812265287294503"><ele>145.0</ele><time>2026-05-02T09:19:33Z</time></trkpt><trkpt lat="41.900727848095194" lon="12.81231243716539"><ele>144.0</ele><time>2026-05-02T09:19:34Z</time></trkpt><trkpt lat="41.90079808676462" lon="12.812421749307793"><ele>144.0</ele><time>2026-05-02T09:19:35Z</time></trkpt><trkpt lat="41.90088371244611" lon="12.81252858411682"><ele>144.0</ele><time>2026-05-02T09:19:36Z</time></trkpt><trkpt lat="41.90096967575084" lon="12.812625735683822"><ele>144.0</ele><time>2026-05-02T09:19:37Z</time></trkpt><trkpt lat="41.901022930212115" lon="12.812761126712951"><ele>144.0</ele><time>2026-05-02T09:19:38Z</time></trkpt><trkpt lat="41.90108039510664" lon="12.812904339001005"><ele>144.0</ele><time>2026-05-02T09:19:39Z</time></trkpt><trkpt lat="41.901152687410494" lon="12.813052032778518"><ele>144.0</ele><time>2026-05-02T09:19:40Z</time></trkpt><trkpt lat="41.90120306364261" lon="12.813217918530132"><ele>144.0</ele><time>2026-05-02T09:19:41Z</time></trkpt><trkpt lat="41.90125980060631" lon="12.813391359301951"><ele>144.0</ele><time>2026-05-02T09:19:42Z</time></trkpt><trkpt lat="41.9013167283997" lon="12.813565254385205"><ele>144.0</ele><time>2026-05-02T09:19:43Z</time></trkpt><trkpt lat="41.901373005785324" lon="12.813743213623923"><ele>144.0</ele><time>2026-05-02T09:19:44Z</time></trkpt><trkpt lat="41.901422265669844" lon="12.813917425189828"><ele>144.0</ele><time>2026-05-02T09:19:45Z</time></trkpt><trkpt lat="41.901465947875806" lon="12.81408185561082"><ele>144.0</ele><time>2026-05-02T09:19:46Z</time></trkpt><trkpt lat="41.90150884143857" lon="12.814243822557811"><ele>144.75</ele><time>2026-05-02T09:19:47Z</time></trkpt><trkpt lat="41.90155025692778" lon="12.814409167689686"><ele>145.5</ele><time>2026-05-02T09:19:48Z</time></trkpt><trkpt lat="41.90160163109305" lon="12.81456721181728"><ele>146.25</ele><time>2026-05-02T09:19:49Z</time></trkpt><trkpt lat="41.9016682133261" lon="12.814712446928704"><ele>147.0</ele><time>2026-05-02T09:19:50Z</time></trkpt><trkpt lat="41.90174895561645" lon="12.814848125111352"><ele>147.25</ele><time>2026-05-02T09:19:51Z</time></trkpt><trkpt lat="41.90185569553141" lon="12.814947411655604"><ele>147.5</ele><time>2026-05-02T09:19:52Z</time></trkpt><trkpt lat="41.90196783190954" lon="12.8150279926637"><ele>147.75</ele><time>2026-05-02T09:19:53Z</time></trkpt><trkpt lat="41.90208378136814" lon="12.815091856729623"><ele>148.0</ele><time>2026-05-02T09:19:54Z</time></trkpt><trkpt lat="41.902196923345365" lon="12.815165393935983"><ele>149.5</ele><time>2026-05-02T09:19:55Z</time></trkpt><trkpt lat="41.90231598955591" lon="12.81521842669135"><ele>151.0</ele><time>2026-05-02T09:19:56Z</time></trkpt><trkpt lat="41.90243435620096" lon="12.815266108109563"><ele>152.5</ele><time>2026-05-02T09:19:57Z</time></trkpt><trkpt lat="41.902547611214864" lon="12.815352696981783"><ele>154.0</ele><time>2026-05-02T09:19:58Z</time></trkpt><trkpt lat="41.902643389746224" lon="12.815442358519054"><ele>154.0</ele><time>2026-05-02T09:19:59Z</time></trkpt><trkpt lat="41.90271841790163" lon="12.815527676431875"><ele>154.0</ele><time>2026-05-02T09:20:00Z</time></trkpt><trkpt lat="41.90277645692406" lon="12.815611940115307"><ele>154.0</ele><time>2026-05-02T09:20:01Z</time></trkpt><trkpt lat="41.90281411198765" lon="12.815695390913405"><ele>154.0</ele><time>2026-05-02T09:20:02Z</time></trkpt><trkpt lat="41.90285118280034" lon="12.81577980602694"><ele>154.0</ele><time>2026-05-02T09:20:04Z</time></trkpt><trkpt lat="41.90291859366198" lon="12.815721638693148"><ele>154.0</ele><time>2026-05-02T09:20:07Z</time></trkpt><trkpt lat="41.90300340615207" lon="12.815684153990627"><ele>154.0</ele><time>2026-05-02T09:20:10Z</time></trkpt><trkpt lat="41.90309235672114" lon="12.815655256573017"><ele>154.0</ele><time>2026-05-02T09:20:13Z</time></trkpt><trkpt lat="41.90316371212626" lon="12.815648925612809"><ele>154.0</ele><time>2026-05-02T09:20:15Z</time></trkpt><trkpt lat="41.9032290485715" lon="12.815723316566688"><ele>154.0</ele><time>2026-05-02T09:20:18Z</time></trkpt><trkpt lat="41.9033448522835" lon="12.815729243886265"><ele>154.0</ele><time>2026-05-02T09:20:20Z</time></trkpt><trkpt lat="41.903444513307605" lon="12.815756293460048"><ele>154.0</ele><time>2026-05-02T09:20:22Z</time></trkpt><trkpt lat="41.90351921084891" lon="12.815777495257528"><ele>154.0</ele><time>2026-05-02T09:22:44Z</time></trkpt><trkpt lat="41.903560106615984" lon="12.815852578079133"><ele>154.0</ele><time>2026-05-02T09:22:45Z</time></trkpt><trkpt lat="41.903635277497294" lon="12.815903752725626"><ele>154.0</ele><time>2026-05-02T09:22:48Z</time></trkpt><trkpt lat="41.9036970260722" lon="12.816021463384498"><ele>154.0</ele><time>2026-05-02T09:24:34Z</time></trkpt><trkpt lat="41.903634723358174" lon="12.816063447044558"><ele>154.0</ele><time>2026-05-02T09:26:02Z</time></trkpt><trkpt lat="41.90362450990532" lon="12.815976713289926"><ele>154.0</ele><time>2026-05-02T09:26:25Z</time></trkpt><trkpt lat="41.90361604950212" lon="12.815873179026829"><ele>154.0</ele><time>2026-05-02T09:26:34Z</time></trkpt><trkpt lat="41.90366869879885" lon="12.815953168562345"><ele>154.0</ele><time>2026-05-02T09:27:02Z</time></trkpt><trkpt lat="41.90369005279264" lon="12.81603699822849"><ele>154.0</ele><time>2026-05-02T09:27:34Z</time></trkpt><trkpt lat="41.903623099959525" lon="12.816076635980533"><ele>154.0</ele><time>2026-05-02T09:37:35Z</time></trkpt><trkpt lat="41.90366306108975" lon="12.81614454835415"><ele>154.0</ele><time>2026-05-02T09:37:46Z</time></trkpt><trkpt lat="41.90366669360862" lon="12.816235949648963"><ele>154.0</ele><time>2026-05-02T09:37:53Z</time></trkpt><trkpt lat="41.90364171061487" lon="12.816317214215228"><ele>155.0</ele><time>2026-05-02T09:38:02Z</time></trkpt><trkpt lat="41.90363593171143" lon="12.816414312912478"><ele>156.0</ele><time>2026-05-02T09:38:09Z</time></trkpt><trkpt lat="41.90365188842578" lon="12.816499994373308"><ele>157.0</ele><time>2026-05-02T09:38:17Z</time></trkpt><trkpt lat="41.9036452745242" lon="12.816603333238337"><ele>158.0</ele><time>2026-05-02T09:38:26Z</time></trkpt><trkpt lat="41.90360821761973" lon="12.81669577085341"><ele>159.0</ele><time>2026-05-02T09:38:34Z</time></trkpt><trkpt lat="41.90361393928298" lon="12.816826258911302"><ele>160.0</ele><time>2026-05-02T09:38:38Z</time></trkpt><trkpt lat="41.903651964461844" lon="12.816746066340233"><ele>160.0</ele><time>2026-05-02T09:40:09.001Z</time></trkpt><trkpt lat="41.90364171413127" lon="12.816657876403454"><ele>160.0</ele><time>2026-05-02T09:40:17.001Z</time></trkpt><trkpt lat="41.90365154708222" lon="12.816536489043452"><ele>160.0</ele><time>2026-05-02T09:40:39.001Z</time></trkpt><trkpt lat="41.90361748888309" lon="12.816450651161498"><ele>160.0</ele><time>2026-05-02T09:40:47.001Z</time></trkpt><trkpt lat="41.90367307973798" lon="12.81637491478724"><ele>160.0</ele><time>2026-05-02T09:40:55.001Z</time></trkpt><trkpt lat="41.90361985156642" lon="12.816328048052641"><ele>160.0</ele><time>2026-05-02T09:41:06.001Z</time></trkpt><trkpt lat="41.903661426052885" lon="12.81621097702502"><ele>160.0</ele><time>2026-05-02T09:41:14.001Z</time></trkpt><trkpt lat="41.903615737902875" lon="12.816147443902736"><ele>160.0</ele><time>2026-05-02T09:41:19.001Z</time></trkpt><trkpt lat="41.90369024367126" lon="12.816115476348077"><ele>160.0</ele><time>2026-05-02T09:46:56Z</time></trkpt><trkpt lat="41.90369289632052" lon="12.816210611615523"><ele>160.0</ele><time>2026-05-02T09:47:19Z</time></trkpt><trkpt lat="41.90367356250808" lon="12.81629577321984"><ele>160.0</ele><time>2026-05-02T09:47:25Z</time></trkpt><trkpt lat="41.90368614097248" lon="12.816380200336312"><ele>160.0</ele><time>2026-05-02T09:47:31Z</time></trkpt><trkpt lat="41.903652355772685" lon="12.816458715638879"><ele>160.0</ele><time>2026-05-02T09:47:39Z</time></trkpt><trkpt lat="41.90366543371089" lon="12.81654719737237"><ele>160.0</ele><time>2026-05-02T09:47:50Z</time></trkpt><trkpt lat="41.903668971289726" lon="12.816639742115827"><ele>160.0</ele><time>2026-05-02T09:48:07Z</time></trkpt><trkpt lat="41.9036571736311" lon="12.816734491967722"><ele>160.0</ele><time>2026-05-02T09:48:13Z</time></trkpt><trkpt lat="41.903617964504626" lon="12.816820680551722"><ele>160.0</ele><time>2026-05-02T09:48:18Z</time></trkpt><trkpt lat="41.90354739739031" lon="12.816836713751066"><ele>160.0</ele><time>2026-05-02T10:04:16Z</time></trkpt><trkpt lat="41.90361509511715" lon="12.816756981950695"><ele>160.0</ele><time>2026-05-02T10:04:25.999Z</time></trkpt><trkpt lat="41.903649818569626" lon="12.816677294097158"><ele>160.0</ele><time>2026-05-02T10:04:32.999Z</time></trkpt><trkpt lat="41.90375942726254" lon="12.816779816550886"><ele>160.0</ele><time>2026-05-02T10:06:11Z</time></trkpt><trkpt lat="41.90365734396725" lon="12.816689325632586"><ele>160.0</ele><time>2026-05-02T10:07:34Z</time></trkpt><trkpt lat="41.90361846208709" lon="12.81676131510928"><ele>160.0</ele><time>2026-05-02T10:16:34Z</time></trkpt><trkpt lat="41.90355462922826" lon="12.816793149735057"><ele>160.0</ele><time>2026-05-02T10:17:31Z</time></trkpt><trkpt lat="41.90361029644033" lon="12.816731465255359"><ele>160.0</ele><time>2026-05-02T10:19:15Z</time></trkpt><trkpt lat="41.90364300827547" lon="12.816647973714844"><ele>160.0</ele><time>2026-05-02T10:19:21Z</time></trkpt><trkpt lat="41.90362837661381" lon="12.816565698958353"><ele>160.0</ele><time>2026-05-02T10:19:31Z</time></trkpt><trkpt lat="41.90363982088246" lon="12.816474260172907"><ele>160.0</ele><time>2026-05-02T10:19:39Z</time></trkpt><trkpt lat="41.903629716056194" lon="12.81635714305398"><ele>160.0</ele><time>2026-05-02T10:19:49.999Z</time></trkpt><trkpt lat="41.90364295191991" lon="12.816272065308079"><ele>160.0</ele><time>2026-05-02T10:19:52.999Z</time></trkpt><trkpt lat="41.903654060335015" lon="12.81617583757362"><ele>160.0</ele><time>2026-05-02T10:19:56Z</time></trkpt><trkpt lat="41.90363181556102" lon="12.816075158895648"><ele>160.0</ele><time>2026-05-02T10:19:58Z</time></trkpt><trkpt lat="41.9036158218011" lon="12.815964518165655"><ele>159.0</ele><time>2026-05-02T10:20:01Z</time></trkpt><trkpt lat="41.90359671834994" lon="12.815875247281875"><ele>158.0</ele><time>2026-05-02T10:20:04Z</time></trkpt><trkpt lat="41.90353364656698" lon="12.815804449345489"><ele>157.0</ele><time>2026-05-02T10:20:07Z</time></trkpt><trkpt lat="41.90350500340187" lon="12.815716740110274"><ele>156.0</ele><time>2026-05-02T10:20:11Z</time></trkpt><trkpt lat="41.90357948639941" lon="12.815743955266136"><ele>155.0</ele><time>2026-05-02T10:20:14Z</time></trkpt><trkpt lat="41.90366169238714" lon="12.815774011080936"><ele>154.0</ele><time>2026-05-02T10:20:17Z</time></trkpt><trkpt lat="41.90372167047176" lon="12.815806405095177"><ele>154.0</ele><time>2026-05-02T10:20:20Z</time></trkpt><trkpt lat="41.9038902287343" lon="12.815805324085987"><ele>154.0</ele><time>2026-05-02T10:21:25.999Z</time></trkpt><trkpt lat="41.90397251316336" lon="12.815776423177802"><ele>154.0</ele><time>2026-05-02T10:21:27.999Z</time></trkpt><trkpt lat="41.904045015733736" lon="12.81572994537496"><ele>154.0</ele><time>2026-05-02T10:21:29.999Z</time></trkpt><trkpt lat="41.90411930532592" lon="12.815691651267896"><ele>154.0</ele><time>2026-05-02T10:21:31.999Z</time></trkpt><trkpt lat="41.904188298062756" lon="12.815670475505776"><ele>155.0</ele><time>2026-05-02T10:21:33.999Z</time></trkpt><trkpt lat="41.904258527384115" lon="12.815644768885605"><ele>156.0</ele><time>2026-05-02T10:21:35.999Z</time></trkpt><trkpt lat="41.90432777068884" lon="12.815613458892264"><ele>157.0</ele><time>2026-05-02T10:21:38.999Z</time></trkpt><trkpt lat="41.90440199409814" lon="12.815584698388909"><ele>158.0</ele><time>2026-05-02T10:21:44.999Z</time></trkpt><trkpt lat="41.904473667056855" lon="12.815561141613207"><ele>159.0</ele><time>2026-05-02T10:21:46.999Z</time></trkpt><trkpt lat="41.90454006522745" lon="12.815538759178844"><ele>160.0</ele><time>2026-05-02T10:21:48.999Z</time></trkpt><trkpt lat="41.904627750146794" lon="12.815494870561903"><ele>160.0</ele><time>2026-05-02T10:21:50.999Z</time></trkpt><trkpt lat="41.90479400557432" lon="12.815483435457136"><ele>160.0</ele><time>2026-05-02T10:21:55.999Z</time></trkpt><trkpt lat="41.904890104754706" lon="12.815474996681106"><ele>160.0</ele><time>2026-05-02T10:21:57.999Z</time></trkpt><trkpt lat="41.904977096004494" lon="12.815466451450305"><ele>160.0</ele><time>2026-05-02T10:21:59.999Z</time></trkpt><trkpt lat="41.905072378743334" lon="12.815456477494063"><ele>160.0</ele><time>2026-05-02T10:22:01.999Z</time></trkpt><trkpt lat="41.90528362135167" lon="12.815488851636296"><ele>160.0</ele><time>2026-05-02T10:22:06.999Z</time></trkpt><trkpt lat="41.9053630083859" lon="12.815502948153172"><ele>160.0</ele><time>2026-05-02T10:22:08.999Z</time></trkpt><trkpt lat="41.90544168498814" lon="12.815493736188955"><ele>160.0</ele><time>2026-05-02T10:22:10.999Z</time></trkpt><trkpt lat="41.90553107831653" lon="12.815531786191418"><ele>160.0</ele><time>2026-05-02T10:22:12.999Z</time></trkpt><trkpt lat="41.90560713853472" lon="12.815526347969604"><ele>160.0</ele><time>2026-05-02T10:22:14.999Z</time></trkpt><trkpt lat="41.90569497951562" lon="12.815513257268087"><ele>160.0</ele><time>2026-05-02T10:22:16.999Z</time></trkpt><trkpt lat="41.90576886642388" lon="12.815505390512385"><ele>160.0</ele><time>2026-05-02T10:22:19Z</time></trkpt><trkpt lat="41.90583400563455" lon="12.815501031834314"><ele>160.0</ele><time>2026-05-02T10:22:21Z</time></trkpt><trkpt lat="41.90593165165314" lon="12.815512802004914"><ele>160.0</ele><time>2026-05-02T10:22:24Z</time></trkpt><trkpt lat="41.90599784562748" lon="12.815529669884075"><ele>160.0</ele><time>2026-05-02T10:22:26Z</time></trkpt><trkpt lat="41.90606590279919" lon="12.815525401113453"><ele>160.0</ele><time>2026-05-02T10:22:28Z</time></trkpt><trkpt lat="41.90612887369167" lon="12.815538633697882"><ele>160.0</ele><time>2026-05-02T10:22:30Z</time></trkpt><trkpt lat="41.90619503567475" lon="12.815551026177225"><ele>160.0</ele><time>2026-05-02T10:22:32Z</time></trkpt><trkpt lat="41.90627905115057" lon="12.815589876852988"><ele>160.5</ele><time>2026-05-02T10:22:35Z</time></trkpt><trkpt lat="41.906341096301745" lon="12.815666277359526"><ele>161.0</ele><time>2026-05-02T10:22:37Z</time></trkpt><trkpt lat="41.90642547981812" lon="12.815659278887825"><ele>161.5</ele><time>2026-05-02T10:22:40Z</time></trkpt><trkpt lat="41.90652499287866" lon="12.81558257982382"><ele>162.0</ele><time>2026-05-02T10:22:43Z</time></trkpt><trkpt lat="41.90659984208059" lon="12.815539873339032"><ele>162.5</ele><time>2026-05-02T10:22:45Z</time></trkpt><trkpt lat="41.90665833738996" lon="12.815487531889069"><ele>163.0</ele><time>2026-05-02T10:22:47Z</time></trkpt><trkpt lat="41.90675722159391" lon="12.81544599154459"><ele>163.0</ele><time>2026-05-02T10:22:50Z</time></trkpt><trkpt lat="41.90682087725237" lon="12.81538772518453"><ele>163.0</ele><time>2026-05-02T10:22:51.999Z</time></trkpt><trkpt lat="41.9069068196379" lon="12.815385647047"><ele>163.0</ele><time>2026-05-02T10:22:54.999Z</time></trkpt><trkpt lat="41.90697059506314" lon="12.815423226169305"><ele>163.0</ele><time>2026-05-02T10:22:56.999Z</time></trkpt><trkpt lat="41.90714256602047" lon="12.815449936322798"><ele>163.0</ele><time>2026-05-02T10:23:01.999Z</time></trkpt><trkpt lat="41.90721047780236" lon="12.815472497282183"><ele>163.0</ele><time>2026-05-02T10:23:03.999Z</time></trkpt><trkpt lat="41.90730242477963" lon="12.815509193480223"><ele>163.0</ele><time>2026-05-02T10:23:05.999Z</time></trkpt><trkpt lat="41.907388108045566" lon="12.81554863826173"><ele>163.0</ele><time>2026-05-02T10:23:07.999Z</time></trkpt><trkpt lat="41.907461898934336" lon="12.815584847861311"><ele>163.0</ele><time>2026-05-02T10:23:09.999Z</time></trkpt><trkpt lat="41.90755442319301" lon="12.815603573046285"><ele>163.0</ele><time>2026-05-02T10:23:11.999Z</time></trkpt><trkpt lat="41.90762588299112" lon="12.815611947873213"><ele>163.0</ele><time>2026-05-02T10:23:13.999Z</time></trkpt><trkpt lat="41.90771282913873" lon="12.81562494746968"><ele>162.66666666666669</ele><time>2026-05-02T10:23:15.999Z</time></trkpt><trkpt lat="41.90779280379099" lon="12.815659711753016"><ele>162.33333333333334</ele><time>2026-05-02T10:23:17.999Z</time></trkpt><trkpt lat="41.90788095757437" lon="12.815715326503343"><ele>162.0</ele><time>2026-05-02T10:23:20.999Z</time></trkpt><trkpt lat="41.90795746967881" lon="12.815785453843976"><ele>161.66666666666666</ele><time>2026-05-02T10:23:23.999Z</time></trkpt><trkpt lat="41.90803542533023" lon="12.815815302864422"><ele>161.33333333333331</ele><time>2026-05-02T10:23:25.999Z</time></trkpt><trkpt lat="41.90811423215359" lon="12.815873751768496"><ele>161.0</ele><time>2026-05-02T10:23:27.999Z</time></trkpt><trkpt lat="41.90818204716226" lon="12.815942439625442"><ele>161.0</ele><time>2026-05-02T10:23:29.999Z</time></trkpt><trkpt lat="41.90825395137294" lon="12.815975802107545"><ele>161.0</ele><time>2026-05-02T10:23:30.999Z</time></trkpt><trkpt lat="41.9083234871701" lon="12.816036182616863"><ele>161.0</ele><time>2026-05-02T10:23:32.999Z</time></trkpt><trkpt lat="41.90839271722063" lon="12.816088573385649"><ele>161.0</ele><time>2026-05-02T10:23:34.999Z</time></trkpt><trkpt lat="41.908457372054364" lon="12.816147054053596"><ele>161.0</ele><time>2026-05-02T10:23:36.999Z</time></trkpt><trkpt lat="41.90852323384522" lon="12.816209363300185"><ele>161.0</ele><time>2026-05-02T10:23:39.999Z</time></trkpt><trkpt lat="41.90859742070181" lon="12.81624492343431"><ele>162.20000000000002</ele><time>2026-05-02T10:23:41.999Z</time></trkpt><trkpt lat="41.908708733540735" lon="12.81632037905607"><ele>163.4</ele><time>2026-05-02T10:23:44.999Z</time></trkpt><trkpt lat="41.90878278723579" lon="12.816381224265584"><ele>164.6</ele><time>2026-05-02T10:23:46.999Z</time></trkpt><trkpt lat="41.908846659027596" lon="12.816425519223532"><ele>165.8</ele><time>2026-05-02T10:23:48.999Z</time></trkpt><trkpt lat="41.9089214957325" lon="12.816488752462469"><ele>167.0</ele><time>2026-05-02T10:23:51.999Z</time></trkpt><trkpt lat="41.90898665790921" lon="12.816559404454901"><ele>167.0</ele><time>2026-05-02T10:23:53.999Z</time></trkpt><trkpt lat="41.909046082839396" lon="12.816652841512134"><ele>167.0</ele><time>2026-05-02T10:23:55.999Z</time></trkpt><trkpt lat="41.90908569752433" lon="12.816756092612142"><ele>167.0</ele><time>2026-05-02T10:23:57.999Z</time></trkpt><trkpt lat="41.909113119169014" lon="12.816840034921304"><ele>167.0</ele><time>2026-05-02T10:23:59.999Z</time></trkpt><trkpt lat="41.909178577179695" lon="12.816936930745223"><ele>167.0</ele><time>2026-05-02T10:24:01.999Z</time></trkpt><trkpt lat="41.90932853249693" lon="12.816941798687584"><ele>169.0</ele><time>2026-05-02T10:24:04.999Z</time></trkpt><trkpt lat="41.90942921441057" lon="12.816915737062443"><ele>171.0</ele><time>2026-05-02T10:24:07Z</time></trkpt><trkpt lat="41.90951867181716" lon="12.816938407400361"><ele>173.0</ele><time>2026-05-02T10:24:09Z</time></trkpt><trkpt lat="41.90958597823788" lon="12.816947512636883"><ele>175.0</ele><time>2026-05-02T10:24:11Z</time></trkpt><trkpt lat="41.90963356978767" lon="12.817014254967628"><ele>177.0</ele><time>2026-05-02T10:24:13Z</time></trkpt><trkpt lat="41.90973170426649" lon="12.817118268667219"><ele>177.0</ele><time>2026-05-02T10:24:16Z</time></trkpt><trkpt lat="41.90982209157584" lon="12.817160686889098"><ele>177.0</ele><time>2026-05-02T10:24:19Z</time></trkpt><trkpt lat="41.90990669656307" lon="12.817254100664865"><ele>177.0</ele><time>2026-05-02T10:24:21Z</time></trkpt><trkpt lat="41.90996754675176" lon="12.817282258735162"><ele>177.0</ele><time>2026-05-02T10:24:22Z</time></trkpt><trkpt lat="41.9100409986493" lon="12.817376932663867"><ele>177.0</ele><time>2026-05-02T10:24:24Z</time></trkpt><trkpt lat="41.910103429919715" lon="12.817443564673866"><ele>177.33333333333334</ele><time>2026-05-02T10:24:26Z</time></trkpt><trkpt lat="41.91016197040619" lon="12.817532714013364"><ele>177.66666666666666</ele><time>2026-05-02T10:24:28Z</time></trkpt><trkpt lat="41.910220433372594" lon="12.817639778045962"><ele>178.0</ele><time>2026-05-02T10:24:31Z</time></trkpt><trkpt lat="41.91024954949926" lon="12.817719438274874"><ele>178.33333333333331</ele><time>2026-05-02T10:24:34Z</time></trkpt><trkpt lat="41.91027145843095" lon="12.81781299179591"><ele>178.66666666666666</ele><time>2026-05-02T10:24:37Z</time></trkpt><trkpt lat="41.91028678745632" lon="12.817899589307128"><ele>179.0</ele><time>2026-05-02T10:24:41Z</time></trkpt><trkpt lat="41.91041854851109" lon="12.817878419119763"><ele>179.0</ele><time>2026-05-02T10:25:27Z</time></trkpt><trkpt lat="41.91043868091871" lon="12.817791646595145"><ele>179.0</ele><time>2026-05-02T10:25:29Z</time></trkpt><trkpt lat="41.91049174418711" lon="12.817696184906701"><ele>179.0</ele><time>2026-05-02T10:25:32Z</time></trkpt><trkpt lat="41.910515159451336" lon="12.81760706782541"><ele>179.0</ele><time>2026-05-02T10:25:34Z</time></trkpt><trkpt lat="41.91074034727062" lon="12.817532081077562"><ele>179.0</ele><time>2026-05-02T10:25:41.999Z</time></trkpt><trkpt lat="41.91083812214571" lon="12.817558238673582"><ele>179.0</ele><time>2026-05-02T10:25:43.999Z</time></trkpt><trkpt lat="41.9109047261133" lon="12.817582545610804"><ele>179.0</ele><time>2026-05-02T10:25:45.999Z</time></trkpt><trkpt lat="41.910979845989324" lon="12.817595640888074"><ele>179.0</ele><time>2026-05-02T10:25:47.999Z</time></trkpt><trkpt lat="41.9110564625669" lon="12.817635948277985"><ele>179.0</ele><time>2026-05-02T10:25:49.999Z</time></trkpt><trkpt lat="41.91113049306466" lon="12.817664773832949"><ele>179.0</ele><time>2026-05-02T10:25:51.999Z</time></trkpt><trkpt lat="41.9112034300835" lon="12.817702807941858"><ele>182.5</ele><time>2026-05-02T10:25:53.999Z</time></trkpt><trkpt lat="41.91126877307096" lon="12.81778320552069"><ele>186.0</ele><time>2026-05-02T10:25:55.999Z</time></trkpt><trkpt lat="41.91132255359395" lon="12.817838435814368"><ele>189.5</ele><time>2026-05-02T10:25:56.999Z</time></trkpt><trkpt lat="41.91136545391938" lon="12.81791577533621"><ele>193.0</ele><time>2026-05-02T10:25:58.999Z</time></trkpt><trkpt lat="41.91142671036998" lon="12.818012332849106"><ele>196.50000000000003</ele><time>2026-05-02T10:26:00.999Z</time></trkpt><trkpt lat="41.911477076522836" lon="12.818098058152556"><ele>200.0</ele><time>2026-05-02T10:26:02.999Z</time></trkpt><trkpt lat="41.91151956616324" lon="12.818195294964415"><ele>200.00000000000003</ele><time>2026-05-02T10:26:04.999Z</time></trkpt><trkpt lat="41.91152338958535" lon="12.818297994242341"><ele>200.0</ele><time>2026-05-02T10:26:06.999Z</time></trkpt><trkpt lat="41.91154736767188" lon="12.818381056675586"><ele>200.0</ele><time>2026-05-02T10:26:08.999Z</time></trkpt><trkpt lat="41.91159297949872" lon="12.818500345421937"><ele>200.0</ele><time>2026-05-02T10:26:10.999Z</time></trkpt><trkpt lat="41.911615432854845" lon="12.81861485046494"><ele>200.00000000000003</ele><time>2026-05-02T10:26:13Z</time></trkpt><trkpt lat="41.91162470249681" lon="12.8187367035396"><ele>200.0</ele><time>2026-05-02T10:26:15Z</time></trkpt><trkpt lat="41.9116347560562" lon="12.81885066322344"><ele>201.4</ele><time>2026-05-02T10:26:17Z</time></trkpt><trkpt lat="41.911637232904546" lon="12.818982678399225"><ele>202.8</ele><time>2026-05-02T10:26:19Z</time></trkpt><trkpt lat="41.91163453498495" lon="12.819113851896365"><ele>204.2</ele><time>2026-05-02T10:26:21Z</time></trkpt><trkpt lat="41.911623119848855" lon="12.819226362417586"><ele>205.6</ele><time>2026-05-02T10:26:23Z</time></trkpt><trkpt lat="41.91160573865037" lon="12.819310988712669"><ele>207.0</ele><time>2026-05-02T10:26:24Z</time></trkpt><trkpt lat="41.911621940257135" lon="12.81945609167858"><ele>208.0</ele><time>2026-05-02T10:26:26Z</time></trkpt><trkpt lat="41.91160511147182" lon="12.81958291286396"><ele>209.0</ele><time>2026-05-02T10:26:28Z</time></trkpt><trkpt lat="41.911611218496084" lon="12.819698108835063"><ele>210.0</ele><time>2026-05-02T10:26:30Z</time></trkpt><trkpt lat="41.91161390800089" lon="12.81981791393266"><ele>211.0</ele><time>2026-05-02T10:26:33Z</time></trkpt><trkpt lat="41.91164196050175" lon="12.819907219179074"><ele>212.0</ele><time>2026-05-02T10:26:37Z</time></trkpt><trkpt lat="41.911705217101776" lon="12.81998178437864"><ele>213.0</ele><time>2026-05-02T10:26:40Z</time></trkpt><trkpt lat="41.911797434702024" lon="12.820051417300006"><ele>213.8</ele><time>2026-05-02T10:26:57Z</time></trkpt><trkpt lat="41.911767763196615" lon="12.82015076761931"><ele>214.60000000000002</ele><time>2026-05-02T10:27:03Z</time></trkpt><trkpt lat="41.911747345838535" lon="12.820278337690652"><ele>215.39999999999998</ele><time>2026-05-02T10:27:05Z</time></trkpt><trkpt lat="41.91169052451191" lon="12.82040371685569"><ele>216.2</ele><time>2026-05-02T10:27:07Z</time></trkpt><trkpt lat="41.911636237375774" lon="12.820506278626164"><ele>217.0</ele><time>2026-05-02T10:27:09Z</time></trkpt><trkpt lat="41.9115918846482" lon="12.820633584631551"><ele>216.99999999999997</ele><time>2026-05-02T10:27:11Z</time></trkpt><trkpt lat="41.91153334600979" lon="12.820777299417415"><ele>217.0</ele><time>2026-05-02T10:27:13Z</time></trkpt><trkpt lat="41.91149238376439" lon="12.820858508666499"><ele>217.0</ele><time>2026-05-02T10:27:14Z</time></trkpt><trkpt lat="41.91143903884523" lon="12.820940265603976"><ele>217.0</ele><time>2026-05-02T10:27:16Z</time></trkpt><trkpt lat="41.91139607967176" lon="12.821017564766622"><ele>216.99999999999997</ele><time>2026-05-02T10:27:17Z</time></trkpt><trkpt lat="41.91137695692876" lon="12.821100132530674"><ele>217.0</ele><time>2026-05-02T10:27:18Z</time></trkpt><trkpt lat="41.91133317326107" lon="12.821162379187616"><ele>218.0</ele><time>2026-05-02T10:27:19Z</time></trkpt><trkpt lat="41.91129991010722" lon="12.821238642629575"><ele>219.0</ele><time>2026-05-02T10:27:20Z</time></trkpt><trkpt lat="41.91123631135615" lon="12.821371815851894"><ele>220.0</ele><time>2026-05-02T10:27:22Z</time></trkpt><trkpt lat="41.911169019708275" lon="12.821510827309455"><ele>221.0</ele><time>2026-05-02T10:27:24Z</time></trkpt><trkpt lat="41.91114878800279" lon="12.82159780494587"><ele>222.0</ele><time>2026-05-02T10:27:25Z</time></trkpt><trkpt lat="41.91108409573308" lon="12.821706869426944"><ele>222.39999999999998</ele><time>2026-05-02T10:27:27Z</time></trkpt><trkpt lat="41.9110339643735" lon="12.821826423038377"><ele>222.79999999999998</ele><time>2026-05-02T10:27:29Z</time></trkpt><trkpt lat="41.910981836738706" lon="12.821968701516345"><ele>223.2</ele><time>2026-05-02T10:27:31Z</time></trkpt><trkpt lat="41.910959043217034" lon="12.822095981931472"><ele>223.6</ele><time>2026-05-02T10:27:33Z</time></trkpt><trkpt lat="41.910916956535345" lon="12.82224572879004"><ele>224.0</ele><time>2026-05-02T10:27:35Z</time></trkpt><trkpt lat="41.910904279867275" lon="12.822330034458764"><ele>224.0</ele><time>2026-05-02T10:27:36Z</time></trkpt><trkpt lat="41.91088089875123" lon="12.822489953110708"><ele>224.0</ele><time>2026-05-02T10:27:38Z</time></trkpt><trkpt lat="41.91089660598835" lon="12.822648485763864"><ele>224.0</ele><time>2026-05-02T10:27:40Z</time></trkpt><trkpt lat="41.910909922370855" lon="12.822806743661832"><ele>224.0</ele><time>2026-05-02T10:27:42Z</time></trkpt><trkpt lat="41.91094526358701" lon="12.82295484162264"><ele>224.66666666666669</ele><time>2026-05-02T10:27:44Z</time></trkpt><trkpt lat="41.91098017281502" lon="12.823030628577609"><ele>225.33333333333334</ele><time>2026-05-02T10:27:45Z</time></trkpt><trkpt lat="41.91100114824852" lon="12.823113021379664"><ele>226.0</ele><time>2026-05-02T10:27:46Z</time></trkpt><trkpt lat="41.91105148465952" lon="12.823283339203657"><ele>226.66666666666669</ele><time>2026-05-02T10:27:48Z</time></trkpt><trkpt lat="41.91108183691183" lon="12.823377238242912"><ele>227.33333333333334</ele><time>2026-05-02T10:27:49Z</time></trkpt><trkpt lat="41.9111029772395" lon="12.823481012620462"><ele>228.0</ele><time>2026-05-02T10:27:50Z</time></trkpt><trkpt lat="41.91113907080509" lon="12.823582903846738"><ele>228.16666666666666</ele><time>2026-05-02T10:27:51Z</time></trkpt><trkpt lat="41.91118136957317" lon="12.823668332554101"><ele>228.33333333333331</ele><time>2026-05-02T10:27:52Z</time></trkpt><trkpt lat="41.91122025665552" lon="12.823826538176329"><ele>228.5</ele><time>2026-05-02T10:27:54Z</time></trkpt><trkpt lat="41.91125451709681" lon="12.823968317079526"><ele>228.66666666666666</ele><time>2026-05-02T10:27:56Z</time></trkpt><trkpt lat="41.91127932292149" lon="12.824055296908915"><ele>228.83333333333331</ele><time>2026-05-02T10:27:57Z</time></trkpt><trkpt lat="41.911308043688244" lon="12.824138576775892"><ele>229.0</ele><time>2026-05-02T10:27:58Z</time></trkpt><trkpt lat="41.91133557262823" lon="12.824220220760889"><ele>228.66666666666666</ele><time>2026-05-02T10:27:58.999Z</time></trkpt><trkpt lat="41.9113700737804" lon="12.824393975931681"><ele>228.33333333333331</ele><time>2026-05-02T10:28:00.999Z</time></trkpt><trkpt lat="41.9113934682706" lon="12.824485063169286"><ele>228.0</ele><time>2026-05-02T10:28:01.999Z</time></trkpt><trkpt lat="41.911430030835724" lon="12.82456014882477"><ele>227.66666666666669</ele><time>2026-05-02T10:28:02.999Z</time></trkpt><trkpt lat="41.91144656351626" lon="12.824644699999684"><ele>227.33333333333334</ele><time>2026-05-02T10:28:03.999Z</time></trkpt><trkpt lat="41.91145772772463" lon="12.824738877339504"><ele>227.0</ele><time>2026-05-02T10:28:04.999Z</time></trkpt><trkpt lat="41.91150354290084" lon="12.824898783715046"><ele>227.0</ele><time>2026-05-02T10:28:06.999Z</time></trkpt><trkpt lat="41.911542785545045" lon="12.824987609642633"><ele>227.0</ele><time>2026-05-02T10:28:07.999Z</time></trkpt><trkpt lat="41.91158613466869" lon="12.825077273386198"><ele>227.0</ele><time>2026-05-02T10:28:08.999Z</time></trkpt><trkpt lat="41.91162972348154" lon="12.825169935226924"><ele>227.0</ele><time>2026-05-02T10:28:09.999Z</time></trkpt><trkpt lat="41.911699378151845" lon="12.825286684242293"><ele>227.0</ele><time>2026-05-02T10:28:10.999Z</time></trkpt><trkpt lat="41.91175764912472" lon="12.825403868191122"><ele>227.6</ele><time>2026-05-02T10:28:11.999Z</time></trkpt><trkpt lat="41.91180990448912" lon="12.825506576577286"><ele>228.2</ele><time>2026-05-02T10:28:12.999Z</time></trkpt><trkpt lat="41.91186149684024" lon="12.825609021960512"><ele>228.8</ele><time>2026-05-02T10:28:13.999Z</time></trkpt><trkpt lat="41.911928576174965" lon="12.82571147145043"><ele>229.4</ele><time>2026-05-02T10:28:14.999Z</time></trkpt><trkpt lat="41.91199079606796" lon="12.825803815921043"><ele>230.0</ele><time>2026-05-02T10:28:15.999Z</time></trkpt><trkpt lat="41.91204804531435" lon="12.825877931350055"><ele>230.0</ele><time>2026-05-02T10:28:16.999Z</time></trkpt><trkpt lat="41.91209887915012" lon="12.825941514399727"><ele>230.0</ele><time>2026-05-02T10:28:17.999Z</time></trkpt><trkpt lat="41.912201513946265" lon="12.82603883996931"><ele>230.0</ele><time>2026-05-02T10:28:20Z</time></trkpt><trkpt lat="41.912312185665144" lon="12.826099434784577"><ele>230.0</ele><time>2026-05-02T10:28:22Z</time></trkpt><trkpt lat="41.91240429120397" lon="12.82617983868409"><ele>230.0</ele><time>2026-05-02T10:28:23Z</time></trkpt><trkpt lat="41.912501484933514" lon="12.826278122167658"><ele>230.6</ele><time>2026-05-02T10:28:24Z</time></trkpt><trkpt lat="41.912575612114814" lon="12.826348332384283"><ele>231.2</ele><time>2026-05-02T10:28:25Z</time></trkpt><trkpt lat="41.91263289057964" lon="12.826408698725645"><ele>231.8</ele><time>2026-05-02T10:28:26Z</time></trkpt><trkpt lat="41.91268988360139" lon="12.826462550342068"><ele>232.4</ele><time>2026-05-02T10:28:27Z</time></trkpt><trkpt lat="41.91278596361333" lon="12.826545289576007"><ele>233.0</ele><time>2026-05-02T10:28:29Z</time></trkpt><trkpt lat="41.91289045539655" lon="12.82664870766947"><ele>233.00000000000003</ele><time>2026-05-02T10:28:31Z</time></trkpt><trkpt lat="41.91295671539579" lon="12.826711236809256"><ele>233.0</ele><time>2026-05-02T10:28:32Z</time></trkpt><trkpt lat="41.91301271213369" lon="12.826780710435495"><ele>233.0</ele><time>2026-05-02T10:28:33Z</time></trkpt><trkpt lat="41.913068719352104" lon="12.82685887839822"><ele>233.0</ele><time>2026-05-02T10:28:34Z</time></trkpt><trkpt lat="41.91313729397362" lon="12.826933742246256"><ele>233.00000000000003</ele><time>2026-05-02T10:28:35Z</time></trkpt><trkpt lat="41.91320794872228" lon="12.827024656549039"><ele>233.0</ele><time>2026-05-02T10:28:36Z</time></trkpt><trkpt lat="41.913287485935214" lon="12.827114082606496"><ele>232.83333333333334</ele><time>2026-05-02T10:28:37Z</time></trkpt><trkpt lat="41.91334775299782" lon="12.827191284990848"><ele>232.66666666666669</ele><time>2026-05-02T10:28:38Z</time></trkpt><trkpt lat="41.913408011255996" lon="12.827271689565439"><ele>232.5</ele><time>2026-05-02T10:28:39Z</time></trkpt><trkpt lat="41.91345837788059" lon="12.827354361641449"><ele>232.33333333333331</ele><time>2026-05-02T10:28:40Z</time></trkpt><trkpt lat="41.913512303523355" lon="12.827449183561843"><ele>232.16666666666666</ele><time>2026-05-02T10:28:41Z</time></trkpt><trkpt lat="41.91356579955393" lon="12.827529360329835"><ele>232.0</ele><time>2026-05-02T10:28:42Z</time></trkpt><trkpt lat="41.91362696254608" lon="12.827608414167647"><ele>233.16666666666666</ele><time>2026-05-02T10:28:43Z</time></trkpt><trkpt lat="41.91367074630311" lon="12.827708026110175"><ele>234.33333333333331</ele><time>2026-05-02T10:28:44Z</time></trkpt><trkpt lat="41.913719065515096" lon="12.827800060014837"><ele>235.5</ele><time>2026-05-02T10:28:45Z</time></trkpt><trkpt lat="41.91375841785728" lon="12.82788143204262"><ele>236.66666666666669</ele><time>2026-05-02T10:28:46Z</time></trkpt><trkpt lat="41.91380993620556" lon="12.827973113891755"><ele>237.83333333333334</ele><time>2026-05-02T10:28:47Z</time></trkpt><trkpt lat="41.913865532556194" lon="12.828065450662814"><ele>239.0</ele><time>2026-05-02T10:28:48Z</time></trkpt><trkpt lat="41.913921821247406" lon="12.828142890181784"><ele>239.00000000000003</ele><time>2026-05-02T10:28:49Z</time></trkpt><trkpt lat="41.91396466247238" lon="12.828246956858584"><ele>239.0</ele><time>2026-05-02T10:28:50Z</time></trkpt><trkpt lat="41.91401466675383" lon="12.82833556546757"><ele>239.0</ele><time>2026-05-02T10:28:51Z</time></trkpt><trkpt lat="41.91406387458496" lon="12.828422762739283"><ele>239.0</ele><time>2026-05-02T10:28:52Z</time></trkpt><trkpt lat="41.914109412143425" lon="12.828504880856432"><ele>239.00000000000003</ele><time>2026-05-02T10:28:53Z</time></trkpt><trkpt lat="41.9141558542151" lon="12.828589072703197"><ele>239.0</ele><time>2026-05-02T10:28:54Z</time></trkpt><trkpt lat="41.91420154562828" lon="12.828675775980003"><ele>240.2</ele><time>2026-05-02T10:28:55Z</time></trkpt><trkpt lat="41.914245744717796" lon="12.828759899339882"><ele>241.39999999999998</ele><time>2026-05-02T10:28:56Z</time></trkpt><trkpt lat="41.91431623989643" lon="12.828895892068147"><ele>242.6</ele><time>2026-05-02T10:28:58Z</time></trkpt><trkpt lat="41.914388874578194" lon="12.82902300751802"><ele>243.8</ele><time>2026-05-02T10:29:00Z</time></trkpt><trkpt lat="41.91442347367553" lon="12.829097898864058"><ele>245.0</ele><time>2026-05-02T10:29:01Z</time></trkpt><trkpt lat="41.914461255551664" lon="12.82916953493794"><ele>245.0</ele><time>2026-05-02T10:29:02Z</time></trkpt><trkpt lat="41.91449844837488" lon="12.829237990505447"><ele>245.0</ele><time>2026-05-02T10:29:03Z</time></trkpt><trkpt lat="41.91453535255762" lon="12.82930772224768"><ele>245.0</ele><time>2026-05-02T10:29:04Z</time></trkpt><trkpt lat="41.91460231960316" lon="12.829442693704294"><ele>245.0</ele><time>2026-05-02T10:29:06Z</time></trkpt><trkpt lat="41.91467321184178" lon="12.829577853166603"><ele>245.0</ele><time>2026-05-02T10:29:08Z</time></trkpt><trkpt lat="41.91474157274566" lon="12.829720522966424"><ele>246.4</ele><time>2026-05-02T10:29:10Z</time></trkpt><trkpt lat="41.91481581304735" lon="12.829856050507813"><ele>247.8</ele><time>2026-05-02T10:29:12Z</time></trkpt><trkpt lat="41.91488374664158" lon="12.829993692838055"><ele>249.2</ele><time>2026-05-02T10:29:14Z</time></trkpt><trkpt lat="41.91491894580492" lon="12.830065582312097"><ele>250.6</ele><time>2026-05-02T10:29:15Z</time></trkpt><trkpt lat="41.91499101111324" lon="12.830196181043508"><ele>252.0</ele><time>2026-05-02T10:29:17Z</time></trkpt><trkpt lat="41.915060638675214" lon="12.830328252060543"><ele>254.39999999999998</ele><time>2026-05-02T10:29:19Z</time></trkpt><trkpt lat="41.91511593619855" lon="12.830448269285691"><ele>256.79999999999995</ele><time>2026-05-02T10:29:21Z</time></trkpt><trkpt lat="41.9151837568954" lon="12.830562503197084"><ele>259.2</ele><time>2026-05-02T10:29:23Z</time></trkpt><trkpt lat="41.91525215612023" lon="12.830675108366616"><ele>261.59999999999997</ele><time>2026-05-02T10:29:25Z</time></trkpt><trkpt lat="41.915318644456136" lon="12.830788873341842"><ele>264.0</ele><time>2026-05-02T10:29:27Z</time></trkpt><trkpt lat="41.91538762440456" lon="12.830909857412255"><ele>266.0</ele><time>2026-05-02T10:29:29Z</time></trkpt><trkpt lat="41.91546679538706" lon="12.831028292639918"><ele>268.0</ele><time>2026-05-02T10:29:31Z</time></trkpt><trkpt lat="41.91553490187293" lon="12.831130217238222"><ele>270.0</ele><time>2026-05-02T10:29:33Z</time></trkpt><trkpt lat="41.915613076825956" lon="12.831231138358513"><ele>272.0</ele><time>2026-05-02T10:29:35Z</time></trkpt><trkpt lat="41.91569632634527" lon="12.831323857632963"><ele>274.0</ele><time>2026-05-02T10:29:37Z</time></trkpt><trkpt lat="41.91577452099091" lon="12.831402051962845"><ele>274.0</ele><time>2026-05-02T10:29:39Z</time></trkpt><trkpt lat="41.91585943915326" lon="12.831436606959567"><ele>274.0</ele><time>2026-05-02T10:29:41Z</time></trkpt><trkpt lat="41.91593816528714" lon="12.831448709222844"><ele>274.0</ele><time>2026-05-02T10:29:43Z</time></trkpt><trkpt lat="41.9160066254438" lon="12.831453033559972"><ele>274.0</ele><time>2026-05-02T10:29:45Z</time></trkpt><trkpt lat="41.916104003570496" lon="12.831402817868103"><ele>274.0</ele><time>2026-05-02T10:29:48Z</time></trkpt><trkpt lat="41.91614139454983" lon="12.831294487093711"><ele>274.0</ele><time>2026-05-02T10:29:50Z</time></trkpt><trkpt lat="41.91615847763031" lon="12.831158298810541"><ele>274.66666666666663</ele><time>2026-05-02T10:29:52Z</time></trkpt><trkpt lat="41.91620536419385" lon="12.831074670440183"><ele>275.3333333333333</ele><time>2026-05-02T10:29:54Z</time></trkpt><trkpt lat="41.9162666947218" lon="12.831039018855398"><ele>276.0</ele><time>2026-05-02T10:29:57Z</time></trkpt><trkpt lat="41.9163456256126" lon="12.831017597831154"><ele>276.6666666666667</ele><time>2026-05-02T10:30:16Z</time></trkpt><trkpt lat="41.91642841632201" lon="12.83097812718258"><ele>277.33333333333337</ele><time>2026-05-02T10:30:18Z</time></trkpt><trkpt lat="41.91650669192433" lon="12.830948277888256"><ele>278.0</ele><time>2026-05-02T10:30:20Z</time></trkpt><trkpt lat="41.91661534552716" lon="12.83089682418684"><ele>278.0</ele><time>2026-05-02T10:30:22Z</time></trkpt><trkpt lat="41.91667842474243" lon="12.830884668500305"><ele>278.0</ele><time>2026-05-02T10:30:23Z</time></trkpt><trkpt lat="41.91678263824429" lon="12.830877820927022"><ele>278.0</ele><time>2026-05-02T10:30:25Z</time></trkpt><trkpt lat="41.91684533630585" lon="12.830867422646309"><ele>278.0</ele><time>2026-05-02T10:30:26Z</time></trkpt><trkpt lat="41.91690868986668" lon="12.830802265595318"><ele>278.0</ele><time>2026-05-02T10:30:27Z</time></trkpt><trkpt lat="41.917011805325494" lon="12.830769163510647"><ele>278.0</ele><time>2026-05-02T10:30:29Z</time></trkpt><trkpt lat="41.9170890160765" lon="12.83073474400737"><ele>278.8</ele><time>2026-05-02T10:30:31Z</time></trkpt><trkpt lat="41.9171565972706" lon="12.830751024299826"><ele>279.6</ele><time>2026-05-02T10:30:33Z</time></trkpt><trkpt lat="41.917256672831385" lon="12.830791407074878"><ele>280.4</ele><time>2026-05-02T10:30:35Z</time></trkpt><trkpt lat="41.91736882622095" lon="12.830839244727999"><ele>281.2</ele><time>2026-05-02T10:30:37Z</time></trkpt><trkpt lat="41.91746595639318" lon="12.830853340172053"><ele>282.0</ele><time>2026-05-02T10:30:39Z</time></trkpt><trkpt lat="41.91753998785678" lon="12.83083887778172"><ele>281.0</ele><time>2026-05-02T10:30:40Z</time></trkpt><trkpt lat="41.91764600111437" lon="12.830841801281986"><ele>280.0</ele><time>2026-05-02T10:30:42Z</time></trkpt><trkpt lat="41.917760082773555" lon="12.830841271991543"><ele>279.0</ele><time>2026-05-02T10:30:44Z</time></trkpt><trkpt lat="41.91787675692215" lon="12.83087890398539"><ele>278.0</ele><time>2026-05-02T10:30:46Z</time></trkpt><trkpt lat="41.91798026775392" lon="12.830894093741966"><ele>277.0</ele><time>2026-05-02T10:30:48Z</time></trkpt><trkpt lat="41.918063769960135" lon="12.830920603921275"><ele>277.0</ele><time>2026-05-02T10:30:50Z</time></trkpt><trkpt lat="41.91816740315796" lon="12.830935366397465"><ele>277.0</ele><time>2026-05-02T10:30:52Z</time></trkpt><trkpt lat="41.9182481083369" lon="12.830960905922352"><ele>277.0</ele><time>2026-05-02T10:30:54Z</time></trkpt><trkpt lat="41.918332489473315" lon="12.830971044934007"><ele>277.0</ele><time>2026-05-02T10:30:56Z</time></trkpt><trkpt lat="41.918412056290364" lon="12.830994734447351"><ele>277.0</ele><time>2026-05-02T10:30:58Z</time></trkpt><trkpt lat="41.918497296292266" lon="12.831027785921394"><ele>277.0</ele><time>2026-05-02T10:31:01Z</time></trkpt><trkpt lat="41.91856979007146" lon="12.830956397726391"><ele>279.66666666666663</ele><time>2026-05-02T10:31:05Z</time></trkpt><trkpt lat="41.91859007497182" lon="12.830855790660523"><ele>282.3333333333333</ele><time>2026-05-02T10:31:07Z</time></trkpt><trkpt lat="41.9185858960473" lon="12.830750336869789"><ele>285.0</ele><time>2026-05-02T10:31:09Z</time></trkpt><trkpt lat="41.91859936952755" lon="12.83065058976127"><ele>287.6666666666667</ele><time>2026-05-02T10:31:11Z</time></trkpt><trkpt lat="41.918605898792315" lon="12.830554477456763"><ele>290.33333333333337</ele><time>2026-05-02T10:31:13Z</time></trkpt><trkpt lat="41.918616168697866" lon="12.830426939269048"><ele>293.0</ele><time>2026-05-02T10:31:16Z</time></trkpt><trkpt lat="41.918640823721255" lon="12.830342364078236"><ele>293.0</ele><time>2026-05-02T10:31:18Z</time></trkpt><trkpt lat="41.918665005571555" lon="12.830260374965592"><ele>293.0</ele><time>2026-05-02T10:31:20Z</time></trkpt><trkpt lat="41.918674796412695" lon="12.830152479820388"><ele>293.0</ele><time>2026-05-02T10:31:22Z</time></trkpt><trkpt lat="41.91870513899662" lon="12.830065154204704"><ele>293.0</ele><time>2026-05-02T10:31:24Z</time></trkpt><trkpt lat="41.918740317839166" lon="12.829960405897452"><ele>293.0</ele><time>2026-05-02T10:31:26Z</time></trkpt><trkpt lat="41.9187688083521" lon="12.829879350547898"><ele>293.0</ele><time>2026-05-02T10:31:27Z</time></trkpt><trkpt lat="41.91881316243079" lon="12.829772510953763"><ele>289.83333333333337</ele><time>2026-05-02T10:31:30Z</time></trkpt><trkpt lat="41.91885208752353" lon="12.82968242594664"><ele>286.6666666666667</ele><time>2026-05-02T10:31:32Z</time></trkpt><trkpt lat="41.91889564200462" lon="12.829603084797062"><ele>283.5</ele><time>2026-05-02T10:31:34Z</time></trkpt><trkpt lat="41.918930806645456" lon="12.829524796809537"><ele>280.3333333333333</ele><time>2026-05-02T10:31:36Z</time></trkpt><trkpt lat="41.919004520682215" lon="12.829453537394896"><ele>277.16666666666663</ele><time>2026-05-02T10:31:39Z</time></trkpt><trkpt lat="41.91908412676809" lon="12.82941781035346"><ele>274.0</ele><time>2026-05-02T10:31:42Z</time></trkpt><trkpt lat="41.919159021158656" lon="12.829380151817025"><ele>272.8</ele><time>2026-05-02T10:31:45Z</time></trkpt><trkpt lat="41.91923569787667" lon="12.829324150866125"><ele>271.59999999999997</ele><time>2026-05-02T10:31:48Z</time></trkpt><trkpt lat="41.91933670004263" lon="12.829246866182164"><ele>270.4</ele><time>2026-05-02T10:31:51Z</time></trkpt><trkpt lat="41.91940426500434" lon="12.829196886271985"><ele>269.2</ele><time>2026-05-02T10:31:54Z</time></trkpt><trkpt lat="41.919472664047255" lon="12.829149681304791"><ele>268.0</ele><time>2026-05-02T10:31:56Z</time></trkpt><trkpt lat="41.91949874304713" lon="12.829016151273406"><ele>268.0</ele><time>2026-05-02T10:31:58Z</time></trkpt><trkpt lat="41.91955879629756" lon="12.828989539291404"><ele>268.0</ele><time>2026-05-02T10:32:00Z</time></trkpt><trkpt lat="41.91964313568622" lon="12.828954377382178"><ele>268.0</ele><time>2026-05-02T10:32:03Z</time></trkpt><trkpt lat="41.91969144348519" lon="12.82886331916537"><ele>268.0</ele><time>2026-05-02T10:32:06Z</time></trkpt><trkpt lat="41.91966367644253" lon="12.828784760046203"><ele>268.0</ele><time>2026-05-02T10:32:08Z</time></trkpt><trkpt lat="41.919617147017945" lon="12.828713027298956"><ele>268.0</ele><time>2026-05-02T10:32:10Z</time></trkpt><trkpt lat="41.919585178042546" lon="12.828625620102871"><ele>268.0</ele><time>2026-05-02T10:32:12Z</time></trkpt><trkpt lat="41.91954214439813" lon="12.828542093731981"><ele>266.66666666666663</ele><time>2026-05-02T10:32:14Z</time></trkpt><trkpt lat="41.91949973171039" lon="12.82844484140965"><ele>265.3333333333333</ele><time>2026-05-02T10:32:16Z</time></trkpt><trkpt lat="41.919465938565544" lon="12.828355301338863"><ele>264.0</ele><time>2026-05-02T10:32:17.999Z</time></trkpt><trkpt lat="41.919424657597695" lon="12.828260924598888"><ele>262.6666666666667</ele><time>2026-05-02T10:32:19.999Z</time></trkpt><trkpt lat="41.91939545819377" lon="12.82816974933049"><ele>261.33333333333337</ele><time>2026-05-02T10:32:21.999Z</time></trkpt><trkpt lat="41.91936863888112" lon="12.828075383746105"><ele>260.0</ele><time>2026-05-02T10:32:23.999Z</time></trkpt><trkpt lat="41.919346091368595" lon="12.82798006503531"><ele>260.0</ele><time>2026-05-02T10:32:25.999Z</time></trkpt><trkpt lat="41.919323161127885" lon="12.827883166663343"><ele>260.0</ele><time>2026-05-02T10:32:27.999Z</time></trkpt><trkpt lat="41.91930139737354" lon="12.827784298315002"><ele>260.0</ele><time>2026-05-02T10:32:29.999Z</time></trkpt><trkpt lat="41.91927997259881" lon="12.8276877112157"><ele>260.0</ele><time>2026-05-02T10:32:32Z</time></trkpt><trkpt lat="41.91925577222558" lon="12.827604637934233"><ele>260.0</ele><time>2026-05-02T10:32:34Z</time></trkpt><trkpt lat="41.919233919570594" lon="12.827488189069626"><ele>260.0</ele><time>2026-05-02T10:32:37Z</time></trkpt><trkpt lat="41.91920823271023" lon="12.827381644107838"><ele>256.6666666666667</ele><time>2026-05-02T10:32:40Z</time></trkpt><trkpt lat="41.91918735022053" lon="12.82727542405026"><ele>253.33333333333334</ele><time>2026-05-02T10:32:43Z</time></trkpt><trkpt lat="41.9191727360721" lon="12.8271711615282"><ele>250.0</ele><time>2026-05-02T10:32:46Z</time></trkpt><trkpt lat="41.91914510340876" lon="12.827072176045036"><ele>246.66666666666669</ele><time>2026-05-02T10:32:49Z</time></trkpt><trkpt lat="41.91911782287239" lon="12.826955687747635"><ele>243.33333333333334</ele><time>2026-05-02T10:32:52Z</time></trkpt><trkpt lat="41.91909048028738" lon="12.826831148626459"><ele>240.0</ele><time>2026-05-02T10:32:55Z</time></trkpt><trkpt lat="41.9190686789165" lon="12.826736180170155"><ele>239.16666666666666</ele><time>2026-05-02T10:32:57Z</time></trkpt><trkpt lat="41.919051265444686" lon="12.826638302279084"><ele>238.33333333333331</ele><time>2026-05-02T10:32:59Z</time></trkpt><trkpt lat="41.91902556732775" lon="12.826539460276958"><ele>237.5</ele><time>2026-05-02T10:33:01Z</time></trkpt><trkpt lat="41.91900563036659" lon="12.826445735901888"><ele>236.66666666666666</ele><time>2026-05-02T10:33:03Z</time></trkpt><trkpt lat="41.91898634540961" lon="12.82634720756257"><ele>235.83333333333331</ele><time>2026-05-02T10:33:05Z</time></trkpt><trkpt lat="41.91896049120826" lon="12.82625186900943"><ele>235.0</ele><time>2026-05-02T10:33:07Z</time></trkpt><trkpt lat="41.918936492393755" lon="12.826151202810976"><ele>234.99999999999997</ele><time>2026-05-02T10:33:09Z</time></trkpt><trkpt lat="41.91891593101716" lon="12.826028887710919"><ele>235.0</ele><time>2026-05-02T10:33:12Z</time></trkpt><trkpt lat="41.918918537991956" lon="12.8259034879812"><ele>235.0</ele><time>2026-05-02T10:33:15Z</time></trkpt><trkpt lat="41.91893613200012" lon="12.825789673229067"><ele>235.0</ele><time>2026-05-02T10:33:18Z</time></trkpt><trkpt lat="41.91894383881618" lon="12.825689286823536"><ele>234.99999999999997</ele><time>2026-05-02T10:33:20Z</time></trkpt><trkpt lat="41.91896235275451" lon="12.8255835625088"><ele>235.0</ele><time>2026-05-02T10:33:22Z</time></trkpt><trkpt lat="41.9189812588019" lon="12.8254704981258"><ele>234.49999999999997</ele><time>2026-05-02T10:33:24Z</time></trkpt><trkpt lat="41.919003534371946" lon="12.82534650183105"><ele>234.0</ele><time>2026-05-02T10:33:26Z</time></trkpt><trkpt lat="41.91901294778039" lon="12.825221949632235"><ele>233.5</ele><time>2026-05-02T10:33:28Z</time></trkpt><trkpt lat="41.919025791411464" lon="12.825102318699365"><ele>233.0</ele><time>2026-05-02T10:33:30Z</time></trkpt><trkpt lat="41.91902843853724" lon="12.824995126393466"><ele>232.49999999999997</ele><time>2026-05-02T10:33:32Z</time></trkpt><trkpt lat="41.91902513851601" lon="12.824875061695206"><ele>232.0</ele><time>2026-05-02T10:33:34Z</time></trkpt><trkpt lat="41.91901788373041" lon="12.824769167297061"><ele>231.66666666666666</ele><time>2026-05-02T10:33:36Z</time></trkpt><trkpt lat="41.91900018216644" lon="12.824663087239145"><ele>231.33333333333331</ele><time>2026-05-02T10:33:38Z</time></trkpt><trkpt lat="41.91898263598974" lon="12.82456719161658"><ele>231.0</ele><time>2026-05-02T10:33:40Z</time></trkpt><trkpt lat="41.91896094657112" lon="12.824478701166267"><ele>230.66666666666669</ele><time>2026-05-02T10:33:42Z</time></trkpt><trkpt lat="41.918938582553274" lon="12.824375600184526"><ele>230.33333333333334</ele><time>2026-05-02T10:33:44Z</time></trkpt><trkpt lat="41.918908103963865" lon="12.82427464139434"><ele>230.0</ele><time>2026-05-02T10:33:46Z</time></trkpt><trkpt lat="41.91887222393499" lon="12.824187757934974"><ele>229.85714285714283</ele><time>2026-05-02T10:33:48Z</time></trkpt><trkpt lat="41.918854734669665" lon="12.824099894792608"><ele>229.71428571428572</ele><time>2026-05-02T10:33:50Z</time></trkpt><trkpt lat="41.918846423102686" lon="12.823991498998256"><ele>229.57142857142856</ele><time>2026-05-02T10:33:52Z</time></trkpt><trkpt lat="41.91884346866906" lon="12.823904651171924"><ele>229.42857142857142</ele><time>2026-05-02T10:33:54Z</time></trkpt><trkpt lat="41.91881978399475" lon="12.82380737638618"><ele>229.28571428571428</ele><time>2026-05-02T10:33:56Z</time></trkpt><trkpt lat="41.9188170210889" lon="12.823712342211572"><ele>229.14285714285714</ele><time>2026-05-02T10:33:58Z</time></trkpt><trkpt lat="41.91882832995689" lon="12.823611308654504"><ele>229.0</ele><time>2026-05-02T10:34:01Z</time></trkpt><trkpt lat="41.918802184755094" lon="12.82352312136387"><ele>229.0</ele><time>2026-05-02T10:34:18Z</time></trkpt><trkpt lat="41.918740966029304" lon="12.823581311448276"><ele>229.0</ele><time>2026-05-02T10:34:21Z</time></trkpt><trkpt lat="41.9187859902892" lon="12.823659284377932"><ele>229.0</ele><time>2026-05-02T10:34:25Z</time></trkpt><trkpt lat="41.91880487737635" lon="12.823750565068329"><ele>229.0</ele><time>2026-05-02T10:34:27Z</time></trkpt><trkpt lat="41.918830077185774" lon="12.823843320926152"><ele>229.0</ele><time>2026-05-02T10:34:29Z</time></trkpt><trkpt lat="41.91885018380351" lon="12.823945760884675"><ele>229.0</ele><time>2026-05-02T10:34:30.999Z</time></trkpt><trkpt lat="41.91886029242584" lon="12.824040451862382"><ele>229.0</ele><time>2026-05-02T10:34:32.999Z</time></trkpt><trkpt lat="41.91884811035474" lon="12.82413178193302"><ele>228.99999999999997</ele><time>2026-05-02T10:34:34.999Z</time></trkpt><trkpt lat="41.91887566521881" lon="12.824223764916955"><ele>229.0</ele><time>2026-05-02T10:34:37Z</time></trkpt><trkpt lat="41.91891589099502" lon="12.824312379805216"><ele>229.0</ele><time>2026-05-02T10:34:39Z</time></trkpt><trkpt lat="41.91895464222518" lon="12.824416179932001"><ele>229.0</ele><time>2026-05-02T10:34:41Z</time></trkpt><trkpt lat="41.918967256920965" lon="12.824528870145443"><ele>228.99999999999997</ele><time>2026-05-02T10:34:43Z</time></trkpt><trkpt lat="41.918992062932354" lon="12.82462649830288"><ele>229.0</ele><time>2026-05-02T10:34:45Z</time></trkpt><trkpt lat="41.91902026893825" lon="12.82474003622303"><ele>229.2</ele><time>2026-05-02T10:34:47Z</time></trkpt><trkpt lat="41.91903566826061" lon="12.824843825970024"><ele>229.39999999999998</ele><time>2026-05-02T10:34:49Z</time></trkpt><trkpt lat="41.919038542137656" lon="12.824957400756755"><ele>229.6</ele><time>2026-05-02T10:34:51Z</time></trkpt><trkpt lat="41.91903402762209" lon="12.825091978261947"><ele>229.8</ele><time>2026-05-02T10:34:53Z</time></trkpt><trkpt lat="41.91902564631138" lon="12.82521026339708"><ele>230.0</ele><time>2026-05-02T10:34:55Z</time></trkpt><trkpt lat="41.919007309541676" lon="12.825341975804811"><ele>230.33333333333334</ele><time>2026-05-02T10:34:57Z</time></trkpt><trkpt lat="41.91899660163699" lon="12.825457638131601"><ele>230.66666666666669</ele><time>2026-05-02T10:34:59Z</time></trkpt><trkpt lat="41.91897899435671" lon="12.82557528956075"><ele>231.0</ele><time>2026-05-02T10:35:01Z</time></trkpt><trkpt lat="41.91896219411925" lon="12.825691624767856"><ele>231.33333333333331</ele><time>2026-05-02T10:35:03Z</time></trkpt><trkpt lat="41.918941251093216" lon="12.825792145975614"><ele>231.66666666666666</ele><time>2026-05-02T10:35:05Z</time></trkpt><trkpt lat="41.91897095779642" lon="12.825887450138067"><ele>232.0</ele><time>2026-05-02T10:35:09Z</time></trkpt><trkpt lat="41.9190329027019" lon="12.825970214396753"><ele>232.00000000000003</ele><time>2026-05-02T10:35:12Z</time></trkpt><trkpt lat="41.91909491387536" lon="12.826012854073456"><ele>232.0</ele><time>2026-05-02T10:35:14Z</time></trkpt><trkpt lat="41.919162419417496" lon="12.826003610611663"><ele>232.00000000000003</ele><time>2026-05-02T10:35:16Z</time></trkpt><trkpt lat="41.91922336527027" lon="12.825968496385109"><ele>232.00000000000003</ele><time>2026-05-02T10:35:18Z</time></trkpt><trkpt lat="41.91929245084001" lon="12.82593143333605"><ele>232.0</ele><time>2026-05-02T10:35:20Z</time></trkpt><trkpt lat="41.919379871353556" lon="12.825881527628363"><ele>232.00000000000003</ele><time>2026-05-02T10:35:23Z</time></trkpt><trkpt lat="41.91944312034126" lon="12.825851409305915"><ele>232.00000000000003</ele><time>2026-05-02T10:35:25Z</time></trkpt><trkpt lat="41.91950934570385" lon="12.825801454680295"><ele>232.66666666666666</ele><time>2026-05-02T10:35:27Z</time></trkpt><trkpt lat="41.919571269615204" lon="12.825760047416868"><ele>233.33333333333331</ele><time>2026-05-02T10:35:29Z</time></trkpt><trkpt lat="41.91963315203713" lon="12.825717495309892"><ele>234.0</ele><time>2026-05-02T10:35:31Z</time></trkpt><trkpt lat="41.919709950477625" lon="12.825677670125739"><ele>234.66666666666669</ele><time>2026-05-02T10:35:33Z</time></trkpt><trkpt lat="41.919782085667904" lon="12.825644012635612"><ele>235.33333333333334</ele><time>2026-05-02T10:35:35Z</time></trkpt><trkpt lat="41.91984653249614" lon="12.825637513688212"><ele>236.0</ele><time>2026-05-02T10:35:37Z</time></trkpt><trkpt lat="41.919899855653505" lon="12.825751582688564"><ele>236.0</ele><time>2026-05-02T10:35:40Z</time></trkpt><trkpt lat="41.91992023736603" lon="12.825844541635345"><ele>236.0</ele><time>2026-05-02T10:35:42Z</time></trkpt><trkpt lat="41.919949360800736" lon="12.825921915270834"><ele>236.0</ele><time>2026-05-02T10:35:44Z</time></trkpt><trkpt lat="41.92000813593103" lon="12.825970185936617"><ele>236.0</ele><time>2026-05-02T10:35:46Z</time></trkpt><trkpt lat="41.92003061308112" lon="12.826054594448827"><ele>236.0</ele><time>2026-05-02T10:35:50Z</time></trkpt><trkpt lat="41.92006425958641" lon="12.826143805202197"><ele>236.0</ele><time>2026-05-02T10:35:54Z</time></trkpt><trkpt lat="41.92002267637576" lon="12.82624009680911"><ele>236.0</ele><time>2026-05-02T10:36:31.999Z</time></trkpt><trkpt lat="41.92000212094539" lon="12.826325181550311"><ele>236.83333333333334</ele><time>2026-05-02T10:36:34.999Z</time></trkpt><trkpt lat="41.920007335742035" lon="12.826420170609959"><ele>237.66666666666669</ele><time>2026-05-02T10:36:36.999Z</time></trkpt><trkpt lat="41.91992844046607" lon="12.826460662386307"><ele>238.5</ele><time>2026-05-02T10:36:39.999Z</time></trkpt><trkpt lat="41.91986053352131" lon="12.82645045254268"><ele>239.33333333333331</ele><time>2026-05-02T10:36:41.999Z</time></trkpt><trkpt lat="41.91977820626785" lon="12.826474343813238"><ele>240.16666666666666</ele><time>2026-05-02T10:36:45Z</time></trkpt><trkpt lat="41.9197150007662" lon="12.82651547739813"><ele>241.0</ele><time>2026-05-02T10:36:48Z</time></trkpt><trkpt lat="41.91964484379723" lon="12.826537369356048"><ele>241.0</ele><time>2026-05-02T10:36:52Z</time></trkpt><trkpt lat="41.919575930034355" lon="12.826506732877078"><ele>241.00000000000003</ele><time>2026-05-02T10:36:55Z</time></trkpt><trkpt lat="41.91952138158724" lon="12.826452378123237"><ele>241.0</ele><time>2026-05-02T10:36:57Z</time></trkpt><trkpt lat="41.91945467207" lon="12.826408190761706"><ele>241.0</ele><time>2026-05-02T10:36:59Z</time></trkpt><trkpt lat="41.91938305029669" lon="12.82638351892711"><ele>241.00000000000003</ele><time>2026-05-02T10:37:02Z</time></trkpt><trkpt lat="41.919324823250534" lon="12.826350984962117"><ele>241.0</ele><time>2026-05-02T10:37:05Z</time></trkpt><trkpt lat="41.91927260312965" lon="12.826265149516749"><ele>241.0</ele><time>2026-05-02T10:37:08Z</time></trkpt><trkpt lat="41.91922675644317" lon="12.826193638877898"><ele>239.99999999999997</ele><time>2026-05-02T10:37:11Z</time></trkpt><trkpt lat="41.91918895207303" lon="12.826093260842189"><ele>239.0</ele><time>2026-05-02T10:37:14Z</time></trkpt><trkpt lat="41.91914499501262" lon="12.826004956271738"><ele>238.0</ele><time>2026-05-02T10:37:17Z</time></trkpt><trkpt lat="41.91906129792622" lon="12.825986737351068"><ele>237.0</ele><time>2026-05-02T10:37:20Z</time></trkpt><trkpt lat="41.91899736641057" lon="12.82595457317386"><ele>235.99999999999997</ele><time>2026-05-02T10:37:23Z</time></trkpt><trkpt lat="41.91892108892923" lon="12.825966034400512"><ele>235.0</ele><time>2026-05-02T10:37:26Z</time></trkpt><trkpt lat="41.91891861645377" lon="12.826069348642061"><ele>234.99999999999997</ele><time>2026-05-02T10:37:29Z</time></trkpt><trkpt lat="41.91893615629291" lon="12.826154060906486"><ele>235.0</ele><time>2026-05-02T10:37:31Z</time></trkpt><trkpt lat="41.91896266473967" lon="12.826237237042587"><ele>235.0</ele><time>2026-05-02T10:37:33Z</time></trkpt><trkpt lat="41.918998147753385" lon="12.826357946175165"><ele>235.0</ele><time>2026-05-02T10:37:36Z</time></trkpt><trkpt lat="41.91902223889267" lon="12.826453851788736"><ele>234.99999999999997</ele><time>2026-05-02T10:37:38Z</time></trkpt><trkpt lat="41.919042876387" lon="12.826551813029546"><ele>235.0</ele><time>2026-05-02T10:37:40Z</time></trkpt><trkpt lat="41.91906626557676" lon="12.826672325922637"><ele>235.0</ele><time>2026-05-02T10:37:43Z</time></trkpt><trkpt lat="41.919088245682744" lon="12.826764349238248"><ele>234.99999999999997</ele><time>2026-05-02T10:37:45Z</time></trkpt><trkpt lat="41.919113665898664" lon="12.826853791314274"><ele>235.0</ele><time>2026-05-02T10:37:47Z</time></trkpt><trkpt lat="41.919135208951054" lon="12.826938845736068"><ele>235.0</ele><time>2026-05-02T10:37:49Z</time></trkpt><trkpt lat="41.9191569240519" lon="12.827031023150976"><ele>234.99999999999997</ele><time>2026-05-02T10:37:51Z</time></trkpt><trkpt lat="41.91916668385668" lon="12.82712604330648"><ele>235.0</ele><time>2026-05-02T10:37:53Z</time></trkpt><trkpt lat="41.91919113246189" lon="12.827206449516869"><ele>235.0</ele><time>2026-05-02T10:37:55Z</time></trkpt><trkpt lat="41.919220940613634" lon="12.827330610148868"><ele>237.83333333333331</ele><time>2026-05-02T10:37:58Z</time></trkpt><trkpt lat="41.919246807857014" lon="12.82745162667708"><ele>240.66666666666666</ele><time>2026-05-02T10:38:01Z</time></trkpt><trkpt lat="41.91926534977509" lon="12.82754394061572"><ele>243.5</ele><time>2026-05-02T10:38:03Z</time></trkpt><trkpt lat="41.91928722509584" lon="12.827660918381802"><ele>246.33333333333331</ele><time>2026-05-02T10:38:06Z</time></trkpt><trkpt lat="41.91930908944416" lon="12.827740386928467"><ele>249.16666666666666</ele><time>2026-05-02T10:38:08Z</time></trkpt><trkpt lat="41.919333340746945" lon="12.827857409373316"><ele>252.0</ele><time>2026-05-02T10:38:11Z</time></trkpt><trkpt lat="41.91935375950545" lon="12.827947598167496"><ele>253.33333333333334</ele><time>2026-05-02T10:38:13Z</time></trkpt><trkpt lat="41.91938180837381" lon="12.828069729615773"><ele>254.66666666666669</ele><time>2026-05-02T10:38:16Z</time></trkpt><trkpt lat="41.91941553143621" lon="12.828180544354673"><ele>256.0</ele><time>2026-05-02T10:38:19Z</time></trkpt><trkpt lat="41.91944966421345" lon="12.828280443000567"><ele>257.33333333333337</ele><time>2026-05-02T10:38:22Z</time></trkpt><trkpt lat="41.91948263458389" lon="12.828392692254866"><ele>258.6666666666667</ele><time>2026-05-02T10:38:25Z</time></trkpt><trkpt lat="41.91952897516594" lon="12.8284898195211"><ele>260.0</ele><time>2026-05-02T10:38:28Z</time></trkpt><trkpt lat="41.919562444076" lon="12.828586678498318"><ele>261.33333333333337</ele><time>2026-05-02T10:38:31Z</time></trkpt><trkpt lat="41.9196144246271" lon="12.828676617674637"><ele>262.6666666666667</ele><time>2026-05-02T10:38:34Z</time></trkpt><trkpt lat="41.91965400761212" lon="12.828775230225496"><ele>264.0</ele><time>2026-05-02T10:38:37Z</time></trkpt><trkpt lat="41.919704784524804" lon="12.828851266279557"><ele>265.3333333333333</ele><time>2026-05-02T10:38:39.999Z</time></trkpt><trkpt lat="41.9197651632438" lon="12.828821762815107"><ele>266.66666666666663</ele><time>2026-05-02T10:39:10Z</time></trkpt><trkpt lat="41.91982483831125" lon="12.828762088632425"><ele>268.0</ele><time>2026-05-02T10:39:13Z</time></trkpt><trkpt lat="41.91989866741738" lon="12.828783894146786"><ele>268.0</ele><time>2026-05-02T10:39:16Z</time></trkpt><trkpt lat="41.919976941623005" lon="12.828776989444911"><ele>268.0</ele><time>2026-05-02T10:39:19Z</time></trkpt><trkpt lat="41.9200555145126" lon="12.828713777152384"><ele>268.0</ele><time>2026-05-02T10:39:22Z</time></trkpt><trkpt lat="41.92010555255454" lon="12.82865427802746"><ele>268.0</ele><time>2026-05-02T10:39:24Z</time></trkpt><trkpt lat="41.920163027325295" lon="12.828614766617074"><ele>268.0</ele><time>2026-05-02T10:39:26Z</time></trkpt><trkpt lat="41.920235365929734" lon="12.828549230594739"><ele>268.0</ele><time>2026-05-02T10:39:28Z</time></trkpt><trkpt lat="41.92031604713171" lon="12.828532751691728"><ele>267.5</ele><time>2026-05-02T10:39:31Z</time></trkpt><trkpt lat="41.9203821333215" lon="12.828567727805904"><ele>267.0</ele><time>2026-05-02T10:39:33Z</time></trkpt><trkpt lat="41.92046524892202" lon="12.828539603215836"><ele>266.5</ele><time>2026-05-02T10:39:35Z</time></trkpt><trkpt lat="41.92055068684473" lon="12.828490727508614"><ele>266.0</ele><time>2026-05-02T10:39:38Z</time></trkpt><trkpt lat="41.920626848363185" lon="12.828467346680998"><ele>265.5</ele><time>2026-05-02T10:39:40Z</time></trkpt><trkpt lat="41.92070247065134" lon="12.828464456741957"><ele>265.0</ele><time>2026-05-02T10:39:42Z</time></trkpt><trkpt lat="41.92077776986581" lon="12.828476713043576"><ele>265.0</ele><time>2026-05-02T10:39:45Z</time></trkpt><trkpt lat="41.92085401892862" lon="12.828468863848588"><ele>265.0</ele><time>2026-05-02T10:39:48Z</time></trkpt><trkpt lat="41.92092333136153" lon="12.828442680331431"><ele>265.0</ele><time>2026-05-02T10:40:19Z</time></trkpt><trkpt lat="41.92099737880895" lon="12.828386663776499"><ele>265.0</ele><time>2026-05-02T10:40:23Z</time></trkpt><trkpt lat="41.921070969217354" lon="12.828351068174861"><ele>265.0</ele><time>2026-05-02T10:40:26Z</time></trkpt><trkpt lat="41.92115051737987" lon="12.828326010682563"><ele>265.0</ele><time>2026-05-02T10:40:29Z</time></trkpt><trkpt lat="41.92124020271456" lon="12.828330752192146"><ele>264.85714285714283</ele><time>2026-05-02T10:40:32Z</time></trkpt><trkpt lat="41.92130568860378" lon="12.828347868519012"><ele>264.7142857142857</ele><time>2026-05-02T10:40:34Z</time></trkpt><trkpt lat="41.92136468764603" lon="12.828309989581106"><ele>264.57142857142856</ele><time>2026-05-02T10:40:36Z</time></trkpt><trkpt lat="41.92143363725646" lon="12.828290363119223"><ele>264.42857142857144</ele><time>2026-05-02T10:40:38Z</time></trkpt><trkpt lat="41.921514749729255" lon="12.82828609297501"><ele>264.2857142857143</ele><time>2026-05-02T10:40:40Z</time></trkpt><trkpt lat="41.921595756497084" lon="12.82828300113297"><ele>264.1428571428571</ele><time>2026-05-02T10:40:42Z</time></trkpt><trkpt lat="41.921669723091505" lon="12.828309020584902"><ele>264.0</ele><time>2026-05-02T10:40:44Z</time></trkpt><trkpt lat="41.92173124103951" lon="12.828327982085781"><ele>264.6666666666667</ele><time>2026-05-02T10:40:46Z</time></trkpt><trkpt lat="41.92179766128784" lon="12.828349103883058"><ele>265.3333333333333</ele><time>2026-05-02T10:40:48Z</time></trkpt><trkpt lat="41.92187898311249" lon="12.828369652210833"><ele>266.0</ele><time>2026-05-02T10:40:51Z</time></trkpt><trkpt lat="41.92194914837234" lon="12.828365382397209"><ele>266.66666666666663</ele><time>2026-05-02T10:40:53Z</time></trkpt><trkpt lat="41.92202422126834" lon="12.82839489400072"><ele>267.3333333333333</ele><time>2026-05-02T10:40:55.999Z</time></trkpt><trkpt lat="41.92213079029029" lon="12.828397532239133"><ele>268.0</ele><time>2026-05-02T10:40:59.999Z</time></trkpt><trkpt lat="41.9221508099539" lon="12.828313631096822"><ele>268.0</ele><time>2026-05-02T10:41:01.999Z</time></trkpt><trkpt lat="41.9221325718079" lon="12.828226342342756"><ele>268.0</ele><time>2026-05-02T10:41:03.999Z</time></trkpt><trkpt lat="41.922087464484235" lon="12.828157825777753"><ele>268.0</ele><time>2026-05-02T10:41:05.999Z</time></trkpt><trkpt lat="41.922016499820295" lon="12.828091021366287"><ele>268.0</ele><time>2026-05-02T10:41:09Z</time></trkpt><trkpt lat="41.9219602379935" lon="12.828031890266809"><ele>268.0</ele><time>2026-05-02T10:41:11Z</time></trkpt><trkpt lat="41.921912654042465" lon="12.827964116829335"><ele>268.0</ele><time>2026-05-02T10:41:13Z</time></trkpt><trkpt lat="41.921866869326124" lon="12.827889905675619"><ele>268.0</ele><time>2026-05-02T10:41:16Z</time></trkpt><trkpt lat="41.921833252127676" lon="12.827679599074747"><ele>267.3333333333333</ele><time>2026-05-02T10:41:31Z</time></trkpt><trkpt lat="41.921832572134086" lon="12.827565855328908"><ele>266.66666666666663</ele><time>2026-05-02T10:41:33Z</time></trkpt><trkpt lat="41.92182275016128" lon="12.827478010796343"><ele>266.0</ele><time>2026-05-02T10:41:35Z</time></trkpt><trkpt lat="41.92180900574307" lon="12.827345289277906"><ele>265.3333333333333</ele><time>2026-05-02T10:41:38Z</time></trkpt><trkpt lat="41.92180810518327" lon="12.827256645602992"><ele>264.6666666666667</ele><time>2026-05-02T10:41:40Z</time></trkpt><trkpt lat="41.92181477620239" lon="12.827133848405737"><ele>264.0</ele><time>2026-05-02T10:41:42Z</time></trkpt><trkpt lat="41.92182484727033" lon="12.826990913531281"><ele>264.0</ele><time>2026-05-02T10:41:44Z</time></trkpt><trkpt lat="41.92182069340951" lon="12.826861978937469"><ele>264.0</ele><time>2026-05-02T10:41:46Z</time></trkpt><trkpt lat="41.921816709792715" lon="12.82674480675959"><ele>264.0</ele><time>2026-05-02T10:41:48Z</time></trkpt><trkpt lat="41.921811757434895" lon="12.826643089177646"><ele>264.0</ele><time>2026-05-02T10:41:50Z</time></trkpt><trkpt lat="41.92179949128529" lon="12.826520683809445"><ele>264.0</ele><time>2026-05-02T10:41:52Z</time></trkpt><trkpt lat="41.9218017314184" lon="12.82640996691128"><ele>264.0</ele><time>2026-05-02T10:41:54Z</time></trkpt><trkpt lat="41.92181022872066" lon="12.826271419326053"><ele>264.2</ele><time>2026-05-02T10:41:56Z</time></trkpt><trkpt lat="41.921822831208466" lon="12.826122745780804"><ele>264.4</ele><time>2026-05-02T10:41:58Z</time></trkpt><trkpt lat="41.921836811113245" lon="12.825980747681891"><ele>264.6</ele><time>2026-05-02T10:42:00Z</time></trkpt><trkpt lat="41.921823600863306" lon="12.82585178733986"><ele>264.8</ele><time>2026-05-02T10:42:02Z</time></trkpt><trkpt lat="41.92181341894141" lon="12.825766505242171"><ele>265.0</ele><time>2026-05-02T10:42:04Z</time></trkpt><trkpt lat="41.921822456683394" lon="12.825640522054814"><ele>265.8333333333333</ele><time>2026-05-02T10:42:06Z</time></trkpt><trkpt lat="41.9218277201729" lon="12.825509343596558"><ele>266.66666666666663</ele><time>2026-05-02T10:42:08Z</time></trkpt><trkpt lat="41.92183931080785" lon="12.825414361413351"><ele>267.5</ele><time>2026-05-02T10:42:10Z</time></trkpt><trkpt lat="41.92184120512944" lon="12.825299263910145"><ele>268.3333333333333</ele><time>2026-05-02T10:42:12Z</time></trkpt><trkpt lat="41.92184609540175" lon="12.825181432749583"><ele>269.1666666666667</ele><time>2026-05-02T10:42:14Z</time></trkpt><trkpt lat="41.92187878606556" lon="12.82507509404754"><ele>270.0</ele><time>2026-05-02T10:42:17Z</time></trkpt><trkpt lat="41.92188490024568" lon="12.824981389526231"><ele>270.6666666666667</ele><time>2026-05-02T10:42:21Z</time></trkpt><trkpt lat="41.921871028259226" lon="12.824888662989665"><ele>271.3333333333333</ele><time>2026-05-02T10:42:25Z</time></trkpt><trkpt lat="41.92188223307567" lon="12.824784365491535"><ele>272.0</ele><time>2026-05-02T10:42:27Z</time></trkpt><trkpt lat="41.9218959553249" lon="12.824690447013866"><ele>272.66666666666663</ele><time>2026-05-02T10:42:30Z</time></trkpt><trkpt lat="41.92192535303097" lon="12.824570113671767"><ele>273.3333333333333</ele><time>2026-05-02T10:42:38Z</time></trkpt><trkpt lat="41.921916897352006" lon="12.82447890166536"><ele>274.0</ele><time>2026-05-02T10:42:41Z</time></trkpt><trkpt lat="41.92190927376171" lon="12.82437450641486"><ele>273.0</ele><time>2026-05-02T10:42:44Z</time></trkpt><trkpt lat="41.921904951438606" lon="12.824274302066005"><ele>272.0</ele><time>2026-05-02T10:42:47Z</time></trkpt><trkpt lat="41.92191114183048" lon="12.824189083096396"><ele>271.0</ele><time>2026-05-02T10:42:51Z</time></trkpt><trkpt lat="41.921952384464035" lon="12.824069742599749"><ele>270.0</ele><time>2026-05-02T10:42:59Z</time></trkpt><trkpt lat="41.92199264698671" lon="12.823978161217"><ele>269.0</ele><time>2026-05-02T10:43:01.999Z</time></trkpt><trkpt lat="41.922012720173136" lon="12.823886232910496"><ele>268.0</ele><time>2026-05-02T10:43:03.999Z</time></trkpt><trkpt lat="41.92198913052455" lon="12.823794619068096"><ele>268.0</ele><time>2026-05-02T10:43:06.999Z</time></trkpt><trkpt lat="41.92192970219753" lon="12.823739408622231"><ele>268.0</ele><time>2026-05-02T10:43:09.999Z</time></trkpt><trkpt lat="41.92185944863549" lon="12.823700062959194"><ele>268.0</ele><time>2026-05-02T10:43:12.999Z</time></trkpt><trkpt lat="41.92177711709038" lon="12.823702810644859"><ele>268.0</ele><time>2026-05-02T10:43:16.999Z</time></trkpt><trkpt lat="41.921716504487925" lon="12.823659858296615"><ele>268.0</ele><time>2026-05-02T10:43:19.999Z</time></trkpt><trkpt lat="41.921623190363086" lon="12.8236589037722"><ele>268.0</ele><time>2026-05-02T10:43:22.999Z</time></trkpt><trkpt lat="41.92156058569695" lon="12.823671698841071"><ele>265.5</ele><time>2026-05-02T10:43:24.999Z</time></trkpt><trkpt lat="41.92146901007742" lon="12.82365544087178"><ele>263.0</ele><time>2026-05-02T10:43:27.999Z</time></trkpt><trkpt lat="41.921374340668315" lon="12.823642857605137"><ele>260.5</ele><time>2026-05-02T10:44:02Z</time></trkpt><trkpt lat="41.921311462342956" lon="12.823633728643948"><ele>258.0</ele><time>2026-05-02T10:44:04Z</time></trkpt><trkpt lat="41.92122387272781" lon="12.823622944130523"><ele>255.49999999999997</ele><time>2026-05-02T10:44:07Z</time></trkpt><trkpt lat="41.92116980441611" lon="12.823697807943745"><ele>253.0</ele><time>2026-05-02T10:44:11Z</time></trkpt><trkpt lat="41.92110987921244" lon="12.823741444211041"><ele>252.99999999999997</ele><time>2026-05-02T10:44:14Z</time></trkpt><trkpt lat="41.92103543400862" lon="12.823671353853516"><ele>253.0</ele><time>2026-05-02T10:44:17Z</time></trkpt><trkpt lat="41.920962581469965" lon="12.823665616704172"><ele>253.0</ele><time>2026-05-02T10:44:20Z</time></trkpt><trkpt lat="41.92088625147596" lon="12.823643528601059"><ele>253.0</ele><time>2026-05-02T10:44:23Z</time></trkpt><trkpt lat="41.92081445946521" lon="12.82368665006525"><ele>252.99999999999997</ele><time>2026-05-02T10:44:40Z</time></trkpt><trkpt lat="41.92075086491525" lon="12.82371874573487"><ele>253.0</ele><time>2026-05-02T10:44:43Z</time></trkpt><trkpt lat="41.920696357110785" lon="12.823794955819746"><ele>251.28571428571433</ele><time>2026-05-02T10:44:46Z</time></trkpt><trkpt lat="41.92062780914518" lon="12.823850681559886"><ele>249.57142857142858</ele><time>2026-05-02T10:44:49Z</time></trkpt><trkpt lat="41.92058444606759" lon="12.823916524957536"><ele>247.8571428571429</ele><time>2026-05-02T10:44:52Z</time></trkpt><trkpt lat="41.92052591077885" lon="12.823977867893985"><ele>246.14285714285717</ele><time>2026-05-02T10:44:55Z</time></trkpt><trkpt lat="41.920461397765685" lon="12.823994648286419"><ele>244.42857142857144</ele><time>2026-05-02T10:44:58Z</time></trkpt><trkpt lat="41.920391869214015" lon="12.824007749786597"><ele>242.71428571428572</ele><time>2026-05-02T10:45:01Z</time></trkpt><trkpt lat="41.920321831369634" lon="12.82401016377493"><ele>241.0</ele><time>2026-05-02T10:45:05Z</time></trkpt><trkpt lat="41.92029315743073" lon="12.82390083095039"><ele>240.99999999999997</ele><time>2026-05-02T10:45:38Z</time></trkpt><trkpt lat="41.92026113225621" lon="12.823827872561877"><ele>241.0</ele><time>2026-05-02T10:45:40Z</time></trkpt><trkpt lat="41.92022380191696" lon="12.823740557158214"><ele>241.0</ele><time>2026-05-02T10:45:42Z</time></trkpt><trkpt lat="41.92017524854219" lon="12.823635486774888"><ele>241.0</ele><time>2026-05-02T10:45:45Z</time></trkpt><trkpt lat="41.920136718475234" lon="12.823564236535915"><ele>240.99999999999997</ele><time>2026-05-02T10:45:47Z</time></trkpt><trkpt lat="41.92009069399071" lon="12.82346192181118"><ele>241.0</ele><time>2026-05-02T10:45:50Z</time></trkpt><trkpt lat="41.92003262028115" lon="12.823381652740036"><ele>239.33333333333331</ele><time>2026-05-02T10:45:53Z</time></trkpt><trkpt lat="41.91999608696949" lon="12.823265086983891"><ele>237.66666666666666</ele><time>2026-05-02T10:45:56Z</time></trkpt><trkpt lat="41.91996112778921" lon="12.823163268389587"><ele>236.0</ele><time>2026-05-02T10:45:59Z</time></trkpt><trkpt lat="41.919927419886235" lon="12.823066770932384"><ele>234.33333333333331</ele><time>2026-05-02T10:46:02Z</time></trkpt><trkpt lat="41.919907797024145" lon="12.82296134901889"><ele>232.66666666666666</ele><time>2026-05-02T10:46:05Z</time></trkpt><trkpt lat="41.9199011902916" lon="12.82283847033299"><ele>231.0</ele><time>2026-05-02T10:46:08Z</time></trkpt><trkpt lat="41.919867061263794" lon="12.822755015291404"><ele>231.0</ele><time>2026-05-02T10:46:11Z</time></trkpt><trkpt lat="41.91979040051894" lon="12.822707731284082"><ele>231.0</ele><time>2026-05-02T10:46:14Z</time></trkpt><trkpt lat="41.91976476695768" lon="12.822597114742257"><ele>231.0</ele><time>2026-05-02T10:46:17Z</time></trkpt><trkpt lat="41.91975148210879" lon="12.822492874918819"><ele>231.0</ele><time>2026-05-02T10:46:19Z</time></trkpt><trkpt lat="41.91975451527159" lon="12.822403364457433"><ele>231.0</ele><time>2026-05-02T10:46:21Z</time></trkpt><trkpt lat="41.919766950617" lon="12.82231036017921"><ele>231.0</ele><time>2026-05-02T10:46:23Z</time></trkpt><trkpt lat="41.91970883063388" lon="12.82222679025891"><ele>231.33333333333334</ele><time>2026-05-02T10:46:26Z</time></trkpt><trkpt lat="41.91968656920327" lon="12.822145633279604"><ele>231.66666666666669</ele><time>2026-05-02T10:46:28Z</time></trkpt><trkpt lat="41.91966205595381" lon="12.822044260759913"><ele>232.0</ele><time>2026-05-02T10:46:30Z</time></trkpt><trkpt lat="41.91964561698392" lon="12.821948756339138"><ele>232.33333333333334</ele><time>2026-05-02T10:46:32Z</time></trkpt><trkpt lat="41.91960771120061" lon="12.821857163663704"><ele>232.66666666666669</ele><time>2026-05-02T10:46:34Z</time></trkpt><trkpt lat="41.91955209554993" lon="12.821788014727133"><ele>233.0</ele><time>2026-05-02T10:46:36Z</time></trkpt><trkpt lat="41.919490407987126" lon="12.821694756974518"><ele>233.16666666666669</ele><time>2026-05-02T10:46:39Z</time></trkpt><trkpt lat="41.91944439312712" lon="12.821617356036516"><ele>233.33333333333334</ele><time>2026-05-02T10:46:41Z</time></trkpt><trkpt lat="41.91940998363581" lon="12.821540089980079"><ele>233.5</ele><time>2026-05-02T10:46:43Z</time></trkpt><trkpt lat="41.91938059803582" lon="12.821437804794417"><ele>233.66666666666669</ele><time>2026-05-02T10:46:45Z</time></trkpt><trkpt lat="41.919347938219566" lon="12.821350033545796"><ele>233.83333333333334</ele><time>2026-05-02T10:46:47Z</time></trkpt><trkpt lat="41.91929521361451" lon="12.821243324004975"><ele>234.0</ele><time>2026-05-02T10:46:50Z</time></trkpt><trkpt lat="41.9192957259819" lon="12.821150536169215"><ele>234.0</ele><time>2026-05-02T10:46:52Z</time></trkpt><trkpt lat="41.91930156405219" lon="12.821053012089996"><ele>234.0</ele><time>2026-05-02T10:46:54Z</time></trkpt><trkpt lat="41.91932423519001" lon="12.820929144214455"><ele>234.0</ele><time>2026-05-02T10:46:56Z</time></trkpt><trkpt lat="41.919347933027126" lon="12.820806961046689"><ele>234.0</ele><time>2026-05-02T10:46:58Z</time></trkpt><trkpt lat="41.91936938629674" lon="12.820688580784447"><ele>234.0</ele><time>2026-05-02T10:47:00Z</time></trkpt><trkpt lat="41.919386477720366" lon="12.82057078736273"><ele>234.0</ele><time>2026-05-02T10:47:02Z</time></trkpt><trkpt lat="41.91935997106942" lon="12.820477213606893"><ele>233.33333333333334</ele><time>2026-05-02T10:47:04Z</time></trkpt><trkpt lat="41.91930426588679" lon="12.820430380026568"><ele>232.66666666666669</ele><time>2026-05-02T10:47:07Z</time></trkpt><trkpt lat="41.919202737017606" lon="12.82043226954416"><ele>232.0</ele><time>2026-05-02T10:47:10Z</time></trkpt><trkpt lat="41.9191467618237" lon="12.820352717697212"><ele>231.33333333333334</ele><time>2026-05-02T10:47:12Z</time></trkpt><trkpt lat="41.919157234239876" lon="12.820261549315873"><ele>230.66666666666669</ele><time>2026-05-02T10:47:14Z</time></trkpt><trkpt lat="41.91916553101071" lon="12.820347754756066"><ele>230.0</ele><time>2026-05-02T11:24:16.999Z</time></trkpt><trkpt lat="41.91913009379825" lon="12.820432592377994"><ele>227.7142857142857</ele><time>2026-05-02T11:24:20.999Z</time></trkpt><trkpt lat="41.91914847257406" lon="12.820338466173864"><ele>225.42857142857142</ele><time>2026-05-02T11:24:41.999Z</time></trkpt><trkpt lat="41.91917386001477" lon="12.820250628035588"><ele>223.14285714285714</ele><time>2026-05-02T11:24:47.999Z</time></trkpt><trkpt lat="41.919227284809544" lon="12.820203461572948"><ele>220.85714285714283</ele><time>2026-05-02T12:05:56.999Z</time></trkpt><trkpt lat="41.91920408050266" lon="12.820124715494082"><ele>218.57142857142856</ele><time>2026-05-02T12:06:12.999Z</time></trkpt><trkpt lat="41.91919863080861" lon="12.820214260068244"><ele>216.2857142857143</ele><time>2026-05-02T12:06:26.999Z</time></trkpt><trkpt lat="41.91923009156546" lon="12.820133981693678"><ele>214.0</ele><time>2026-05-02T12:08:17.999Z</time></trkpt><trkpt lat="41.91919598449734" lon="12.820222189696043"><ele>214.00000000000003</ele><time>2026-05-02T12:11:03.999Z</time></trkpt><trkpt lat="41.91921630472367" lon="12.82013352869136"><ele>214.0</ele><time>2026-05-02T12:30:49Z</time></trkpt><trkpt lat="41.91922875247889" lon="12.8200388377231"><ele>214.0</ele><time>2026-05-02T12:30:52Z</time></trkpt><trkpt lat="41.91923727540645" lon="12.819951796598081"><ele>214.0</ele><time>2026-05-02T12:30:54Z</time></trkpt><trkpt lat="41.9192364559478" lon="12.819859688020149"><ele>214.0</ele><time>2026-05-02T12:30:56Z</time></trkpt><trkpt lat="41.91923600261879" lon="12.819748179018601"><ele>214.00000000000003</ele><time>2026-05-02T12:30:58Z</time></trkpt><trkpt lat="41.91926874518885" lon="12.81963918691658"><ele>214.0</ele><time>2026-05-02T12:31:00Z</time></trkpt><trkpt lat="41.919291754918206" lon="12.81952930968573"><ele>216.16666666666666</ele><time>2026-05-02T12:31:02Z</time></trkpt><trkpt lat="41.919262628382185" lon="12.8194028915616"><ele>218.33333333333331</ele><time>2026-05-02T12:31:03.999Z</time></trkpt><trkpt lat="41.91926415615938" lon="12.819279311770329"><ele>220.5</ele><time>2026-05-02T12:31:05.999Z</time></trkpt><trkpt lat="41.91925845551954" lon="12.819164469444962"><ele>222.66666666666669</ele><time>2026-05-02T12:31:07.999Z</time></trkpt><trkpt lat="41.91926857540197" lon="12.819068009884791"><ele>224.83333333333334</ele><time>2026-05-02T12:31:09.999Z</time></trkpt><trkpt lat="41.91927950641396" lon="12.818956244383015"><ele>227.0</ele><time>2026-05-02T12:31:11.999Z</time></trkpt><trkpt lat="41.91928180075308" lon="12.818853526099756"><ele>227.0</ele><time>2026-05-02T12:31:13.999Z</time></trkpt><trkpt lat="41.91928675119355" lon="12.818748364365042"><ele>227.0</ele><time>2026-05-02T12:31:15.999Z</time></trkpt><trkpt lat="41.91928807518385" lon="12.818619433864278"><ele>227.0</ele><time>2026-05-02T12:31:17.999Z</time></trkpt><trkpt lat="41.91929893524257" lon="12.81848838342666"><ele>227.0</ele><time>2026-05-02T12:31:19.999Z</time></trkpt><trkpt lat="41.91930807525948" lon="12.818352898912803"><ele>227.0</ele><time>2026-05-02T12:31:21.999Z</time></trkpt><trkpt lat="41.91932848481532" lon="12.81823124132149"><ele>226.39999999999998</ele><time>2026-05-02T12:31:23.999Z</time></trkpt><trkpt lat="41.91935636544023" lon="12.81807817219209"><ele>225.79999999999998</ele><time>2026-05-02T12:31:25.999Z</time></trkpt><trkpt lat="41.91938392588656" lon="12.817928680317484"><ele>225.2</ele><time>2026-05-02T12:31:27.999Z</time></trkpt><trkpt lat="41.91939965672586" lon="12.817780645938766"><ele>224.6</ele><time>2026-05-02T12:31:29.999Z</time></trkpt><trkpt lat="41.91938277359091" lon="12.817644503059903"><ele>224.0</ele><time>2026-05-02T12:31:31.999Z</time></trkpt><trkpt lat="41.91935562558644" lon="12.817531266512423"><ele>224.0</ele><time>2026-05-02T12:31:33.999Z</time></trkpt><trkpt lat="41.919366639900225" lon="12.817391194987497"><ele>223.99999999999997</ele><time>2026-05-02T12:31:35.999Z</time></trkpt><trkpt lat="41.91937752368009" lon="12.817305660408687"><ele>223.99999999999997</ele><time>2026-05-02T12:31:36.999Z</time></trkpt><trkpt lat="41.919410905275704" lon="12.817163029355923"><ele>224.0</ele><time>2026-05-02T12:31:38.999Z</time></trkpt><trkpt lat="41.91948933082044" lon="12.817049425898313"><ele>224.0</ele><time>2026-05-02T12:31:40.999Z</time></trkpt><trkpt lat="41.91954016926815" lon="12.816998850304094"><ele>224.00000000000003</ele><time>2026-05-02T12:31:41.999Z</time></trkpt><trkpt lat="41.91958607215443" lon="12.8168633739078"><ele>224.0</ele><time>2026-05-02T12:31:43.999Z</time></trkpt><trkpt lat="41.91959457848122" lon="12.816774449097682"><ele>224.0</ele><time>2026-05-02T12:31:44.999Z</time></trkpt><trkpt lat="41.91965419306118" lon="12.816664219678776"><ele>224.0</ele><time>2026-05-02T12:31:46.999Z</time></trkpt><trkpt lat="41.919684904920274" lon="12.816590166819793"><ele>224.00000000000003</ele><time>2026-05-02T12:31:52.999Z</time></trkpt><trkpt lat="41.91963417616309" lon="12.816521254788576"><ele>224.0</ele><time>2026-05-02T12:31:55.999Z</time></trkpt><trkpt lat="41.91957783617022" lon="12.81648342284852"><ele>223.2</ele><time>2026-05-02T12:31:57.999Z</time></trkpt><trkpt lat="41.91955196763123" lon="12.816379276511581"><ele>222.39999999999998</ele><time>2026-05-02T12:31:59.999Z</time></trkpt><trkpt lat="41.919567595637126" lon="12.816263807527307"><ele>221.6</ele><time>2026-05-02T12:32:01.999Z</time></trkpt><trkpt lat="41.91956777743457" lon="12.816487326888094"><ele>220.8</ele><time>2026-05-02T12:33:23.999Z</time></trkpt><trkpt lat="41.91956966678926" lon="12.816606971562804"><ele>220.0</ele><time>2026-05-02T12:33:26.999Z</time></trkpt><trkpt lat="41.919567068931165" lon="12.816692603192827"><ele>219.99999999999997</ele><time>2026-05-02T12:33:28.999Z</time></trkpt><trkpt lat="41.91957127487591" lon="12.816800259130144"><ele>220.0</ele><time>2026-05-02T12:33:31.999Z</time></trkpt><trkpt lat="41.91956456654001" lon="12.816920514002044"><ele>220.0</ele><time>2026-05-02T12:33:34.999Z</time></trkpt><trkpt lat="41.91961301518033" lon="12.81697639989983"><ele>220.0</ele><time>2026-05-02T12:33:37.999Z</time></trkpt><trkpt lat="41.9196581816628" lon="12.81691315918969"><ele>220.0</ele><time>2026-05-02T12:33:41.999Z</time></trkpt><trkpt lat="41.91967076296425" lon="12.816817641172333"><ele>219.99999999999997</ele><time>2026-05-02T12:34:23.999Z</time></trkpt><trkpt lat="41.91966540419462" lon="12.8167262869423"><ele>220.0</ele><time>2026-05-02T12:34:30.999Z</time></trkpt><trkpt lat="41.919657365686945" lon="12.816636502149299"><ele>219.99999999999997</ele><time>2026-05-02T12:36:02.999Z</time></trkpt><trkpt lat="41.91970489456393" lon="12.816564670965365"><ele>220.0</ele><time>2026-05-02T12:36:07.999Z</time></trkpt><trkpt lat="41.91975195499131" lon="12.816493381859228"><ele>220.0</ele><time>2026-05-02T12:36:11.999Z</time></trkpt><trkpt lat="41.91977568486155" lon="12.816399825685936"><ele>220.0</ele><time>2026-05-02T12:36:15.999Z</time></trkpt><trkpt lat="41.919805098397646" lon="12.816300793198417"><ele>219.99999999999997</ele><time>2026-05-02T12:36:18.999Z</time></trkpt><trkpt lat="41.91983882125668" lon="12.816171863054754"><ele>220.0</ele><time>2026-05-02T12:36:21.999Z</time></trkpt><trkpt lat="41.9198646808856" lon="12.816074631828572"><ele>219.66666666666666</ele><time>2026-05-02T12:36:23.999Z</time></trkpt><trkpt lat="41.91990881090177" lon="12.815978315657702"><ele>219.33333333333331</ele><time>2026-05-02T12:36:25.999Z</time></trkpt><trkpt lat="41.91993734274473" lon="12.815899022259442"><ele>219.0</ele><time>2026-05-02T12:36:27.999Z</time></trkpt><trkpt lat="41.91997197176448" lon="12.815793312605175"><ele>218.66666666666669</ele><time>2026-05-02T12:36:30.999Z</time></trkpt><trkpt lat="41.91999291378313" lon="12.815707232814821"><ele>218.33333333333334</ele><time>2026-05-02T12:36:33Z</time></trkpt><trkpt lat="41.91999521084678" lon="12.815613622003626"><ele>218.0</ele><time>2026-05-02T12:36:35Z</time></trkpt><trkpt lat="41.920005538524514" lon="12.815491694474767"><ele>218.00000000000003</ele><time>2026-05-02T12:36:38Z</time></trkpt><trkpt lat="41.92001647831669" lon="12.815356659719033"><ele>218.0</ele><time>2026-05-02T12:36:41Z</time></trkpt><trkpt lat="41.920032603361264" lon="12.815267787478355"><ele>218.0</ele><time>2026-05-02T12:36:43Z</time></trkpt><trkpt lat="41.92006761396401" lon="12.815174459737149"><ele>218.0</ele><time>2026-05-02T12:36:45Z</time></trkpt><trkpt lat="41.92004256528996" lon="12.815081686883016"><ele>218.00000000000003</ele><time>2026-05-02T12:36:49Z</time></trkpt><trkpt lat="41.9200164125053" lon="12.814980380003323"><ele>218.0</ele><time>2026-05-02T12:36:53Z</time></trkpt><trkpt lat="41.920079034516014" lon="12.814910889448278"><ele>219.33333333333334</ele><time>2026-05-02T12:36:56Z</time></trkpt><trkpt lat="41.92012225620966" lon="12.814819179209241"><ele>220.66666666666669</ele><time>2026-05-02T12:36:59Z</time></trkpt><trkpt lat="41.92015010279785" lon="12.81473473582689"><ele>222.0</ele><time>2026-05-02T12:37:01Z</time></trkpt><trkpt lat="41.920193506322406" lon="12.814662454998768"><ele>223.33333333333331</ele><time>2026-05-02T12:37:03Z</time></trkpt><trkpt lat="41.92024786831627" lon="12.814595460025588"><ele>224.66666666666666</ele><time>2026-05-02T12:37:06.999Z</time></trkpt><trkpt lat="41.92029410521266" lon="12.814505435290732"><ele>226.0</ele><time>2026-05-02T12:37:09.999Z</time></trkpt><trkpt lat="41.92033684007603" lon="12.81440255137026"><ele>225.4</ele><time>2026-05-02T12:37:11.999Z</time></trkpt><trkpt lat="41.9203783306325" lon="12.814297763946609"><ele>224.8</ele><time>2026-05-02T12:37:13.999Z</time></trkpt><trkpt lat="41.920416795880186" lon="12.814185099194004"><ele>224.20000000000002</ele><time>2026-05-02T12:37:15.999Z</time></trkpt><trkpt lat="41.92042970843492" lon="12.814083008138676"><ele>223.60000000000002</ele><time>2026-05-02T12:37:17.999Z</time></trkpt><trkpt lat="41.92047144386162" lon="12.81396131954688"><ele>223.0</ele><time>2026-05-02T12:37:19.999Z</time></trkpt><trkpt lat="41.92051888265264" lon="12.813844937753366"><ele>223.0</ele><time>2026-05-02T12:37:21.999Z</time></trkpt><trkpt lat="41.92057440727089" lon="12.813753799875197"><ele>223.0</ele><time>2026-05-02T12:37:23.999Z</time></trkpt><trkpt lat="41.92063893098479" lon="12.81365610308792"><ele>223.0</ele><time>2026-05-02T12:37:25.999Z</time></trkpt><trkpt lat="41.9207198033611" lon="12.813553574590161"><ele>223.0</ele><time>2026-05-02T12:37:27.999Z</time></trkpt><trkpt lat="41.920759455250135" lon="12.813477790045052"><ele>223.0</ele><time>2026-05-02T12:37:28.999Z</time></trkpt><trkpt lat="41.92083599492638" lon="12.81338568386113"><ele>222.83333333333331</ele><time>2026-05-02T12:37:30.999Z</time></trkpt><trkpt lat="41.920894020547664" lon="12.813328124395534"><ele>222.66666666666666</ele><time>2026-05-02T12:37:31.999Z</time></trkpt><trkpt lat="41.92094915288077" lon="12.813245835638995"><ele>222.5</ele><time>2026-05-02T12:37:32.999Z</time></trkpt><trkpt lat="41.920997163037676" lon="12.813180251204702"><ele>222.33333333333331</ele><time>2026-05-02T12:37:33.999Z</time></trkpt><trkpt lat="41.921063791126464" lon="12.813132092735405"><ele>222.16666666666666</ele><time>2026-05-02T12:37:34.999Z</time></trkpt><trkpt lat="41.92112738350163" lon="12.813089450416394"><ele>222.0</ele><time>2026-05-02T12:37:35.999Z</time></trkpt><trkpt lat="41.92123681160348" lon="12.813013574334054"><ele>222.0</ele><time>2026-05-02T12:37:37.999Z</time></trkpt><trkpt lat="41.92133242412748" lon="12.812936248385448"><ele>222.0</ele><time>2026-05-02T12:37:39.999Z</time></trkpt><trkpt lat="41.92142955591796" lon="12.812858055340971"><ele>222.0</ele><time>2026-05-02T12:37:41.999Z</time></trkpt><trkpt lat="41.92152157618687" lon="12.812791984773147"><ele>222.0</ele><time>2026-05-02T12:37:43.999Z</time></trkpt><trkpt lat="41.92159474660893" lon="12.812742286219452"><ele>222.0</ele><time>2026-05-02T12:37:45.999Z</time></trkpt><trkpt lat="41.9216864572665" lon="12.812666211074697"><ele>223.0</ele><time>2026-05-02T12:37:47.999Z</time></trkpt><trkpt lat="41.92176538220885" lon="12.812551895821366"><ele>224.0</ele><time>2026-05-02T12:37:49.999Z</time></trkpt><trkpt lat="41.9218071633852" lon="12.812478346175496"><ele>225.0</ele><time>2026-05-02T12:37:50.999Z</time></trkpt><trkpt lat="41.921891202864956" lon="12.812368180377293"><ele>226.0</ele><time>2026-05-02T12:37:52.999Z</time></trkpt><trkpt lat="41.921993530873344" lon="12.8122745816737"><ele>227.0</ele><time>2026-05-02T12:37:54.999Z</time></trkpt><trkpt lat="41.922076535983855" lon="12.812204022637065"><ele>227.00000000000003</ele><time>2026-05-02T12:37:56.999Z</time></trkpt><trkpt lat="41.92213477447197" lon="12.812146629567058"><ele>227.0</ele><time>2026-05-02T12:37:58.999Z</time></trkpt><trkpt lat="41.92216467203751" lon="12.812229442368322"><ele>227.0</ele><time>2026-05-02T12:38:01.999Z</time></trkpt><trkpt lat="41.922115906266995" lon="12.812320178645088"><ele>227.0</ele><time>2026-05-02T12:38:03.999Z</time></trkpt><trkpt lat="41.922059594855256" lon="12.812429773482284"><ele>227.00000000000003</ele><time>2026-05-02T12:38:05.999Z</time></trkpt><trkpt lat="41.92198440646887" lon="12.812462875303481"><ele>227.0</ele><time>2026-05-02T12:38:07.999Z</time></trkpt><trkpt lat="41.92194992099945" lon="12.812539180450926"><ele>227.00000000000003</ele><time>2026-05-02T12:38:19.999Z</time></trkpt><trkpt lat="41.92202459093908" lon="12.812552346756586"><ele>227.0</ele><time>2026-05-02T12:38:22.999Z</time></trkpt><trkpt lat="41.9220807212356" lon="12.812415615707096"><ele>227.0</ele><time>2026-05-02T12:38:24.999Z</time></trkpt><trkpt lat="41.9221588890048" lon="12.812354781286178"><ele>227.0</ele><time>2026-05-02T12:38:27.999Z</time></trkpt><trkpt lat="41.92217175031067" lon="12.812263253199047"><ele>227.00000000000003</ele><time>2026-05-02T12:38:29.999Z</time></trkpt><trkpt lat="41.92210776613907" lon="12.812280190112663"><ele>227.0</ele><time>2026-05-02T12:38:38.999Z</time></trkpt><trkpt lat="41.92208846143111" lon="12.812374519276752"><ele>227.00000000000003</ele><time>2026-05-02T12:38:43.999Z</time></trkpt><trkpt lat="41.92200615472586" lon="12.812437583087393"><ele>227.0</ele><time>2026-05-02T12:38:45.999Z</time></trkpt><trkpt lat="41.92201875065218" lon="12.812531212277742"><ele>227.0</ele><time>2026-05-02T12:38:49.999Z</time></trkpt><trkpt lat="41.9220991625039" lon="12.812479321785265"><ele>227.0</ele><time>2026-05-02T12:38:51.999Z</time></trkpt><trkpt lat="41.922147969033475" lon="12.812387685739672"><ele>227.00000000000003</ele><time>2026-05-02T12:38:54.999Z</time></trkpt><trkpt lat="41.922169041926516" lon="12.81229370027033"><ele>227.0</ele><time>2026-05-02T12:38:56.999Z</time></trkpt><trkpt lat="41.92211468495651" lon="12.812214753340731"><ele>227.00000000000003</ele><time>2026-05-02T12:39:00.999Z</time></trkpt><trkpt lat="41.9220953368601" lon="12.812333169520134"><ele>227.0</ele><time>2026-05-02T12:39:11.999Z</time></trkpt><trkpt lat="41.92208022885058" lon="12.812426276971491"><ele>227.0</ele><time>2026-05-02T12:39:12.999Z</time></trkpt><trkpt lat="41.9220162986983" lon="12.812488451773739"><ele>227.0</ele><time>2026-05-02T12:39:15.999Z</time></trkpt><trkpt lat="41.92203469333454" lon="12.81238702669971"><ele>227.00000000000003</ele><time>2026-05-02T12:41:10Z</time></trkpt><trkpt lat="41.92210886289693" lon="12.81232082610739"><ele>227.0</ele><time>2026-05-02T12:41:13Z</time></trkpt><trkpt lat="41.922141875257076" lon="12.81216834622784"><ele>227.0</ele><time>2026-05-02T12:41:16Z</time></trkpt><trkpt lat="41.92216672408078" lon="12.812085524462889"><ele>227.0</ele><time>2026-05-02T12:41:19Z</time></trkpt><trkpt lat="41.92222379892317" lon="12.81199194208328"><ele>227.0</ele><time>2026-05-02T12:41:36Z</time></trkpt><trkpt lat="41.92229971399184" lon="12.811890022156286"><ele>227.0</ele><time>2026-05-02T12:41:38Z</time></trkpt><trkpt lat="41.922368503180586" lon="12.81177722394166"><ele>227.0</ele><time>2026-05-02T12:41:40Z</time></trkpt><trkpt lat="41.922435687126374" lon="12.811693480264335"><ele>226.16666666666669</ele><time>2026-05-02T12:41:42Z</time></trkpt><trkpt lat="41.92248434398346" lon="12.811639704124564"><ele>225.33333333333334</ele><time>2026-05-02T12:41:43Z</time></trkpt><trkpt lat="41.92254786777803" lon="12.81159651698268"><ele>224.5</ele><time>2026-05-02T12:41:44Z</time></trkpt><trkpt lat="41.92262129140221" lon="12.811527877495298"><ele>223.66666666666669</ele><time>2026-05-02T12:41:45Z</time></trkpt><trkpt lat="41.92267479819427" lon="12.811481625759727"><ele>222.83333333333334</ele><time>2026-05-02T12:41:46Z</time></trkpt><trkpt lat="41.9227982029164" lon="12.811399074511865"><ele>222.0</ele><time>2026-05-02T12:41:48Z</time></trkpt><trkpt lat="41.9228996010072" lon="12.811332237415922"><ele>222.6</ele><time>2026-05-02T12:41:50Z</time></trkpt><trkpt lat="41.923003413862254" lon="12.81123741284577"><ele>223.2</ele><time>2026-05-02T12:41:52Z</time></trkpt><trkpt lat="41.923113478477376" lon="12.811138087196642"><ele>223.8</ele><time>2026-05-02T12:41:54Z</time></trkpt><trkpt lat="41.92316835156251" lon="12.811093151262076"><ele>224.4</ele><time>2026-05-02T12:41:55Z</time></trkpt><trkpt lat="41.923222438848946" lon="12.811049781891684"><ele>225.0</ele><time>2026-05-02T12:41:56Z</time></trkpt><trkpt lat="41.923320296093415" lon="12.810951593245733"><ele>225.0</ele><time>2026-05-02T12:41:58Z</time></trkpt><trkpt lat="41.92338148941478" lon="12.810906639252698"><ele>225.0</ele><time>2026-05-02T12:41:59Z</time></trkpt><trkpt lat="41.923440368711105" lon="12.810866953853525"><ele>225.0</ele><time>2026-05-02T12:42:00Z</time></trkpt><trkpt lat="41.923496573677085" lon="12.810818050244686"><ele>225.0</ele><time>2026-05-02T12:42:01Z</time></trkpt><trkpt lat="41.923594831564294" lon="12.810754054964134"><ele>225.0</ele><time>2026-05-02T12:42:03Z</time></trkpt><trkpt lat="41.92368996183965" lon="12.810701098794965"><ele>225.0</ele><time>2026-05-02T12:42:04.999Z</time></trkpt><trkpt lat="41.923806801686524" lon="12.81065487388844"><ele>227.4</ele><time>2026-05-02T12:42:06.999Z</time></trkpt><trkpt lat="41.92386470821359" lon="12.810619723444404"><ele>229.8</ele><time>2026-05-02T12:42:07.999Z</time></trkpt><trkpt lat="41.92392306509438" lon="12.810587244717428"><ele>232.2</ele><time>2026-05-02T12:42:08.999Z</time></trkpt><trkpt lat="41.92403702523597" lon="12.810529005243787"><ele>234.6</ele><time>2026-05-02T12:42:10.999Z</time></trkpt><trkpt lat="41.92415033421798" lon="12.810476867804724"><ele>237.0</ele><time>2026-05-02T12:42:12.999Z</time></trkpt><trkpt lat="41.92427931884923" lon="12.810427669869325"><ele>236.83333333333334</ele><time>2026-05-02T12:42:14.999Z</time></trkpt><trkpt lat="41.92438815172533" lon="12.810370960982176"><ele>236.66666666666669</ele><time>2026-05-02T12:42:16.999Z</time></trkpt><trkpt lat="41.92444775003205" lon="12.810333981566188"><ele>236.5</ele><time>2026-05-02T12:42:17.999Z</time></trkpt><trkpt lat="41.924561891001915" lon="12.810246463271517"><ele>236.33333333333334</ele><time>2026-05-02T12:42:19.999Z</time></trkpt><trkpt lat="41.92461644381284" lon="12.810195263465715"><ele>236.16666666666669</ele><time>2026-05-02T12:42:20.999Z</time></trkpt><trkpt lat="41.92466586305819" lon="12.810135609529643"><ele>236.0</ele><time>2026-05-02T12:42:21.999Z</time></trkpt><trkpt lat="41.92471773486815" lon="12.810084597674168"><ele>236.0</ele><time>2026-05-02T12:42:22.999Z</time></trkpt><trkpt lat="41.92476824711124" lon="12.810026155923271"><ele>236.00000000000003</ele><time>2026-05-02T12:42:23.999Z</time></trkpt><trkpt lat="41.9248467690748" lon="12.809904965453665"><ele>236.00000000000003</ele><time>2026-05-02T12:42:25.999Z</time></trkpt><trkpt lat="41.92492365223944" lon="12.809797793750846"><ele>236.0</ele><time>2026-05-02T12:42:27.999Z</time></trkpt><trkpt lat="41.9249513006156" lon="12.809680455090685"><ele>236.0</ele><time>2026-05-02T12:42:29.999Z</time></trkpt><trkpt lat="41.9250084814389" lon="12.809560957549"><ele>238.0</ele><time>2026-05-02T12:42:31.999Z</time></trkpt><trkpt lat="41.92510516138515" lon="12.809495477754691"><ele>240.00000000000003</ele><time>2026-05-02T12:42:33.999Z</time></trkpt><trkpt lat="41.92521357219734" lon="12.809427467332837"><ele>242.00000000000003</ele><time>2026-05-02T12:42:35.999Z</time></trkpt><trkpt lat="41.92530852431479" lon="12.809343896234116"><ele>244.0</ele><time>2026-05-02T12:42:37.999Z</time></trkpt><trkpt lat="41.925359433017604" lon="12.809290860874436"><ele>246.0</ele><time>2026-05-02T12:42:38.999Z</time></trkpt><trkpt lat="41.92545718814124" lon="12.809181695511034"><ele>246.00000000000003</ele><time>2026-05-02T12:42:40.999Z</time></trkpt><trkpt lat="41.92549963178157" lon="12.809107249128997"><ele>246.0</ele><time>2026-05-02T12:42:41.999Z</time></trkpt><trkpt lat="41.92553834833636" lon="12.809026575398592"><ele>246.00000000000003</ele><time>2026-05-02T12:42:43Z</time></trkpt><trkpt lat="41.92557655743271" lon="12.80894072949256"><ele>246.00000000000003</ele><time>2026-05-02T12:42:44Z</time></trkpt><trkpt lat="41.925619186862875" lon="12.808864166553398"><ele>246.0</ele><time>2026-05-02T12:42:45Z</time></trkpt><trkpt lat="41.92566135948793" lon="12.808789057804603"><ele>246.00000000000003</ele><time>2026-05-02T12:42:46Z</time></trkpt><trkpt lat="41.92570781860838" lon="12.808712041633996"><ele>246.00000000000003</ele><time>2026-05-02T12:42:47Z</time></trkpt><trkpt lat="41.925736217608204" lon="12.808633098536571"><ele>246.0</ele><time>2026-05-02T12:42:48Z</time></trkpt><trkpt lat="41.92577297193392" lon="12.808556087042572"><ele>246.00000000000003</ele><time>2026-05-02T12:42:49Z</time></trkpt><trkpt lat="41.92582138112933" lon="12.808487249142642"><ele>246.00000000000003</ele><time>2026-05-02T12:42:50Z</time></trkpt><trkpt lat="41.925904915622645" lon="12.808373504939127"><ele>246.0</ele><time>2026-05-02T12:42:52Z</time></trkpt><trkpt lat="41.92602182836687" lon="12.808276066035189"><ele>246.0</ele><time>2026-05-02T12:42:54Z</time></trkpt><trkpt lat="41.92612782148738" lon="12.808184966901337"><ele>246.33333333333334</ele><time>2026-05-02T12:42:56Z</time></trkpt><trkpt lat="41.926179717377224" lon="12.80813629946895"><ele>246.66666666666669</ele><time>2026-05-02T12:42:57Z</time></trkpt><trkpt lat="41.92623074180857" lon="12.808075722407764"><ele>247.0</ele><time>2026-05-02T12:42:58Z</time></trkpt><trkpt lat="41.926291305155765" lon="12.807987780393113"><ele>247.33333333333334</ele><time>2026-05-02T12:42:59Z</time></trkpt><trkpt lat="41.92634469270739" lon="12.807925065209908"><ele>247.66666666666669</ele><time>2026-05-02T12:43:00Z</time></trkpt><trkpt lat="41.926439711306664" lon="12.807852942544164"><ele>248.0</ele><time>2026-05-02T12:43:02Z</time></trkpt><trkpt lat="41.926553250763895" lon="12.807781467400053"><ele>248.00000000000003</ele><time>2026-05-02T12:43:04Z</time></trkpt><trkpt lat="41.92660248024924" lon="12.807727420600715"><ele>248.0</ele><time>2026-05-02T12:43:05Z</time></trkpt><trkpt lat="41.92666700583376" lon="12.807675002371854"><ele>248.0</ele><time>2026-05-02T12:43:06Z</time></trkpt><trkpt lat="41.92672443543572" lon="12.807627904811113"><ele>248.0</ele><time>2026-05-02T12:43:07Z</time></trkpt><trkpt lat="41.926780867885725" lon="12.807580810121527"><ele>248.00000000000003</ele><time>2026-05-02T12:43:08Z</time></trkpt><trkpt lat="41.926834660843554" lon="12.807523659621936"><ele>248.0</ele><time>2026-05-02T12:43:09Z</time></trkpt><trkpt lat="41.92694010354314" lon="12.807421178488433"><ele>248.00000000000003</ele><time>2026-05-02T12:43:11Z</time></trkpt><trkpt lat="41.92699352704514" lon="12.807364986118907"><ele>248.0</ele><time>2026-05-02T12:43:12Z</time></trkpt><trkpt lat="41.92707431735758" lon="12.807220760144826"><ele>248.0</ele><time>2026-05-02T12:43:14Z</time></trkpt><trkpt lat="41.927121601012686" lon="12.8071519150285"><ele>248.0</ele><time>2026-05-02T12:43:15Z</time></trkpt><trkpt lat="41.92716977582276" lon="12.807085058821443"><ele>248.00000000000003</ele><time>2026-05-02T12:43:16Z</time></trkpt><trkpt lat="41.92721082893105" lon="12.80701203370755"><ele>248.0</ele><time>2026-05-02T12:43:17Z</time></trkpt><trkpt lat="41.92723041788536" lon="12.806929002233602"><ele>248.00000000000003</ele><time>2026-05-02T12:43:18Z</time></trkpt><trkpt lat="41.92725429205104" lon="12.806832468727684"><ele>248.0</ele><time>2026-05-02T12:43:19Z</time></trkpt><trkpt lat="41.927279061183704" lon="12.806743293658455"><ele>248.0</ele><time>2026-05-02T12:43:20Z</time></trkpt><trkpt lat="41.92732680939278" lon="12.806598902906787"><ele>248.0</ele><time>2026-05-02T12:43:22Z</time></trkpt><trkpt lat="41.927345543513866" lon="12.80651386441855"><ele>248.00000000000003</ele><time>2026-05-02T12:43:23Z</time></trkpt><trkpt lat="41.92736892422758" lon="12.806429708687167"><ele>248.0</ele><time>2026-05-02T12:43:24Z</time></trkpt><trkpt lat="41.92739313217221" lon="12.806344690350715"><ele>247.42857142857144</ele><time>2026-05-02T12:43:25Z</time></trkpt><trkpt lat="41.927425972000655" lon="12.806260278124533"><ele>246.8571428571429</ele><time>2026-05-02T12:43:26Z</time></trkpt><trkpt lat="41.92746408308514" lon="12.806178125966234"><ele>246.28571428571428</ele><time>2026-05-02T12:43:27Z</time></trkpt><trkpt lat="41.927505346755154" lon="12.806099088691226"><ele>245.71428571428572</ele><time>2026-05-02T12:43:28Z</time></trkpt><trkpt lat="41.92755455751517" lon="12.806029115381433"><ele>245.14285714285714</ele><time>2026-05-02T12:43:29Z</time></trkpt><trkpt lat="41.927611931659925" lon="12.805955890971523"><ele>244.57142857142856</ele><time>2026-05-02T12:43:30Z</time></trkpt><trkpt lat="41.92767399720426" lon="12.80588536026578"><ele>243.99999999999997</ele><time>2026-05-02T12:43:31Z</time></trkpt><trkpt lat="41.92774209671009" lon="12.805810662242285"><ele>244.0</ele><time>2026-05-02T12:43:32Z</time></trkpt><trkpt lat="41.927811302598606" lon="12.805707261952636"><ele>244.0</ele><time>2026-05-02T12:43:33Z</time></trkpt><trkpt lat="41.927900782362784" lon="12.80556001299905"><ele>244.0</ele><time>2026-05-02T12:43:34Z</time></trkpt><trkpt lat="41.92799761843553" lon="12.80544610763178"><ele>244.0</ele><time>2026-05-02T12:43:35Z</time></trkpt><trkpt lat="41.928074641350584" lon="12.805345768320604"><ele>244.0</ele><time>2026-05-02T12:43:36Z</time></trkpt><trkpt lat="41.92815387255566" lon="12.80525250671949"><ele>243.99999999999997</ele><time>2026-05-02T12:43:37Z</time></trkpt><trkpt lat="41.92823457700337" lon="12.805187051171103"><ele>243.99999999999997</ele><time>2026-05-02T12:43:38Z</time></trkpt><trkpt lat="41.92831446346767" lon="12.80513295305091"><ele>244.0</ele><time>2026-05-02T12:43:39Z</time></trkpt><trkpt lat="41.92838977741758" lon="12.805079874680235"><ele>244.0</ele><time>2026-05-02T12:43:40Z</time></trkpt><trkpt lat="41.92846015286681" lon="12.805014632860214"><ele>242.16666666666666</ele><time>2026-05-02T12:43:41Z</time></trkpt><trkpt lat="41.928517259723364" lon="12.804934277647472"><ele>240.33333333333331</ele><time>2026-05-02T12:43:42Z</time></trkpt><trkpt lat="41.92855794966152" lon="12.80483630894598"><ele>238.5</ele><time>2026-05-02T12:43:43Z</time></trkpt><trkpt lat="41.92860379364348" lon="12.80475618786997"><ele>236.66666666666669</ele><time>2026-05-02T12:43:44Z</time></trkpt><trkpt lat="41.92867622903956" lon="12.80468468721564"><ele>234.83333333333334</ele><time>2026-05-02T12:43:45Z</time></trkpt><trkpt lat="41.928745805578735" lon="12.804617479399566"><ele>233.0</ele><time>2026-05-02T12:43:46Z</time></trkpt><trkpt lat="41.92879726346341" lon="12.804533453887801"><ele>233.00000000000003</ele><time>2026-05-02T12:43:47Z</time></trkpt><trkpt lat="41.92884104658585" lon="12.804445386727455"><ele>233.0</ele><time>2026-05-02T12:43:48Z</time></trkpt><trkpt lat="41.92889029547528" lon="12.804356763595102"><ele>233.0</ele><time>2026-05-02T12:43:49Z</time></trkpt><trkpt lat="41.92894472224834" lon="12.804282919148191"><ele>233.0</ele><time>2026-05-02T12:43:50Z</time></trkpt><trkpt lat="41.92900363307139" lon="12.8042282027148"><ele>233.00000000000003</ele><time>2026-05-02T12:43:51Z</time></trkpt><trkpt lat="41.929114598916684" lon="12.804181866183388"><ele>233.0</ele><time>2026-05-02T12:43:53Z</time></trkpt><trkpt lat="41.92917900524348" lon="12.80419017374682"><ele>231.00000000000003</ele><time>2026-05-02T12:43:54Z</time></trkpt><trkpt lat="41.929252936082825" lon="12.804225449088959"><ele>229.0</ele><time>2026-05-02T12:43:55Z</time></trkpt><trkpt lat="41.92933430593628" lon="12.804266994930988"><ele>227.0</ele><time>2026-05-02T12:43:56Z</time></trkpt><trkpt lat="41.92940745543055" lon="12.804281662602175"><ele>225.0</ele><time>2026-05-02T12:43:57Z</time></trkpt><trkpt lat="41.92948267334666" lon="12.804267822238538"><ele>223.00000000000003</ele><time>2026-05-02T12:43:58Z</time></trkpt><trkpt lat="41.92956241582743" lon="12.804233011154272"><ele>221.0</ele><time>2026-05-02T12:43:59Z</time></trkpt><trkpt lat="41.929639500317975" lon="12.80419287551294"><ele>221.0</ele><time>2026-05-02T12:44:00Z</time></trkpt><trkpt lat="41.92972520818895" lon="12.804134863081426"><ele>221.00000000000003</ele><time>2026-05-02T12:44:01Z</time></trkpt><trkpt lat="41.92981204773895" lon="12.80408035467013"><ele>221.00000000000003</ele><time>2026-05-02T12:44:02Z</time></trkpt><trkpt lat="41.92989434180556" lon="12.804036156344578"><ele>221.0</ele><time>2026-05-02T12:44:03Z</time></trkpt><trkpt lat="41.92997126803509" lon="12.803971997940206"><ele>221.0</ele><time>2026-05-02T12:44:04Z</time></trkpt><trkpt lat="41.93003970779854" lon="12.803902571237598"><ele>221.20000000000002</ele><time>2026-05-02T12:44:05Z</time></trkpt><trkpt lat="41.93011924116304" lon="12.803819073291312"><ele>221.40000000000003</ele><time>2026-05-02T12:44:06Z</time></trkpt><trkpt lat="41.93020299197548" lon="12.803740004737781"><ele>221.6</ele><time>2026-05-02T12:44:07Z</time></trkpt><trkpt lat="41.93028809645742" lon="12.80366026273323"><ele>221.8</ele><time>2026-05-02T12:44:08Z</time></trkpt><trkpt lat="41.930340829173176" lon="12.803576250633817"><ele>222.0</ele><time>2026-05-02T12:44:09Z</time></trkpt><trkpt lat="41.93039821320788" lon="12.803486482218513"><ele>222.0</ele><time>2026-05-02T12:44:10Z</time></trkpt><trkpt lat="41.93046290411495" lon="12.80338899224309"><ele>222.0</ele><time>2026-05-02T12:44:11Z</time></trkpt><trkpt lat="41.930529120532185" lon="12.803319833709269"><ele>222.0</ele><time>2026-05-02T12:44:12Z</time></trkpt><trkpt lat="41.93058875498497" lon="12.803222187930333"><ele>222.0</ele><time>2026-05-02T12:44:13Z</time></trkpt><trkpt lat="41.930654893806874" lon="12.803089954042646"><ele>222.0</ele><time>2026-05-02T12:44:14Z</time></trkpt><trkpt lat="41.93071740908012" lon="12.802975012978862"><ele>222.0</ele><time>2026-05-02T12:44:15Z</time></trkpt><trkpt lat="41.930768444617165" lon="12.802901005130286"><ele>222.0</ele><time>2026-05-02T12:44:16Z</time></trkpt><trkpt lat="41.930857430559385" lon="12.802824123220793"><ele>222.0</ele><time>2026-05-02T12:44:18Z</time></trkpt><trkpt lat="41.9309250171299" lon="12.802788971350687"><ele>222.0</ele><time>2026-05-02T12:44:19Z</time></trkpt><trkpt lat="41.93099791313695" lon="12.802759165841204"><ele>222.0</ele><time>2026-05-02T12:44:20Z</time></trkpt><trkpt lat="41.931060284503786" lon="12.802732607433782"><ele>222.0</ele><time>2026-05-02T12:44:21Z</time></trkpt><trkpt lat="41.93117355828576" lon="12.802697495791111"><ele>222.0</ele><time>2026-05-02T12:44:23Z</time></trkpt><trkpt lat="41.93130083699775" lon="12.80274553750179"><ele>222.0</ele><time>2026-05-02T12:44:25Z</time></trkpt><trkpt lat="41.93138171747806" lon="12.802790971784695"><ele>222.0</ele><time>2026-05-02T12:44:26Z</time></trkpt><trkpt lat="41.931453785132064" lon="12.802825193238869"><ele>222.0</ele><time>2026-05-02T12:44:27Z</time></trkpt><trkpt lat="41.93151421170822" lon="12.802856709647347"><ele>222.0</ele><time>2026-05-02T12:44:28Z</time></trkpt><trkpt lat="41.931627989163424" lon="12.802857347132058"><ele>221.0</ele><time>2026-05-02T12:44:30Z</time></trkpt><trkpt lat="41.931741410531295" lon="12.802781492686067"><ele>220.0</ele><time>2026-05-02T12:44:32Z</time></trkpt><trkpt lat="41.93179893160504" lon="12.802733414336295"><ele>219.0</ele><time>2026-05-02T12:44:33Z</time></trkpt><trkpt lat="41.93185975421788" lon="12.802675800713326"><ele>218.0</ele><time>2026-05-02T12:44:34Z</time></trkpt><trkpt lat="41.9319151669786" lon="12.802622460579201"><ele>217.0</ele><time>2026-05-02T12:44:35Z</time></trkpt><trkpt lat="41.93198706705607" lon="12.802588070712714"><ele>216.0</ele><time>2026-05-02T12:44:36Z</time></trkpt><trkpt lat="41.93205080755054" lon="12.802562057434448"><ele>216.0</ele><time>2026-05-02T12:44:37Z</time></trkpt><trkpt lat="41.93211943620166" lon="12.802543416462749"><ele>216.0</ele><time>2026-05-02T12:44:38Z</time></trkpt><trkpt lat="41.932185875238204" lon="12.802523622165003"><ele>216.0</ele><time>2026-05-02T12:44:39Z</time></trkpt><trkpt lat="41.932256010733134" lon="12.802511563637804"><ele>216.0</ele><time>2026-05-02T12:44:40Z</time></trkpt><trkpt lat="41.93233097816627" lon="12.802494455643306"><ele>216.0</ele><time>2026-05-02T12:44:41Z</time></trkpt><trkpt lat="41.932402199441725" lon="12.802489875805023"><ele>216.0</ele><time>2026-05-02T12:44:42Z</time></trkpt><trkpt lat="41.93246950195473" lon="12.802490984305928"><ele>216.0</ele><time>2026-05-02T12:44:43Z</time></trkpt><trkpt lat="41.93254483429132" lon="12.80249468804521"><ele>217.8</ele><time>2026-05-02T12:44:44Z</time></trkpt><trkpt lat="41.93262278141457" lon="12.80248927352917"><ele>219.60000000000002</ele><time>2026-05-02T12:44:45Z</time></trkpt><trkpt lat="41.932706478103164" lon="12.802465888814144"><ele>221.4</ele><time>2026-05-02T12:44:46Z</time></trkpt><trkpt lat="41.93278710695894" lon="12.802410482238491"><ele>223.2</ele><time>2026-05-02T12:44:47Z</time></trkpt><trkpt lat="41.932872161038915" lon="12.802356898105627"><ele>225.0</ele><time>2026-05-02T12:44:48Z</time></trkpt><trkpt lat="41.932970306203785" lon="12.802319798400182"><ele>225.0</ele><time>2026-05-02T12:44:48.999Z</time></trkpt><trkpt lat="41.93306219413495" lon="12.802273104749707"><ele>225.0</ele><time>2026-05-02T12:44:49.999Z</time></trkpt><trkpt lat="41.933156973328835" lon="12.802230198505542"><ele>225.0</ele><time>2026-05-02T12:44:50.999Z</time></trkpt><trkpt lat="41.93324774412539" lon="12.802171255859156"><ele>225.0</ele><time>2026-05-02T12:44:51.999Z</time></trkpt><trkpt lat="41.93333093551299" lon="12.802125165217328"><ele>225.0</ele><time>2026-05-02T12:44:52.999Z</time></trkpt><trkpt lat="41.933412010735125" lon="12.802081003381057"><ele>225.33333333333334</ele><time>2026-05-02T12:44:53.999Z</time></trkpt><trkpt lat="41.93349384547194" lon="12.802046825541133"><ele>225.66666666666669</ele><time>2026-05-02T12:44:54.999Z</time></trkpt><trkpt lat="41.93355804663311" lon="12.802022523039676"><ele>226.0</ele><time>2026-05-02T12:44:55.999Z</time></trkpt><trkpt lat="41.933623258519475" lon="12.80200935677667"><ele>226.33333333333334</ele><time>2026-05-02T12:44:56.999Z</time></trkpt><trkpt lat="41.93370744166123" lon="12.80200124175343"><ele>226.66666666666669</ele><time>2026-05-02T12:44:57.999Z</time></trkpt><trkpt lat="41.93378996622713" lon="12.801999296821831"><ele>227.0</ele><time>2026-05-02T12:44:58.999Z</time></trkpt><trkpt lat="41.93387879874878" lon="12.802014856983236"><ele>227.00000000000003</ele><time>2026-05-02T12:44:59.999Z</time></trkpt><trkpt lat="41.93397705346009" lon="12.802029395503258"><ele>227.0</ele><time>2026-05-02T12:45:00.999Z</time></trkpt><trkpt lat="41.93406065300329" lon="12.802057265478895"><ele>227.0</ele><time>2026-05-02T12:45:01.999Z</time></trkpt><trkpt lat="41.934127653441855" lon="12.802106907188357"><ele>227.0</ele><time>2026-05-02T12:45:02.999Z</time></trkpt><trkpt lat="41.934187942671215" lon="12.802163014967315"><ele>227.00000000000003</ele><time>2026-05-02T12:45:03.999Z</time></trkpt><trkpt lat="41.93425402159759" lon="12.802199285172321"><ele>227.0</ele><time>2026-05-02T12:45:05Z</time></trkpt><trkpt lat="41.93431802803368" lon="12.802230867598102"><ele>228.16666666666669</ele><time>2026-05-02T12:45:06Z</time></trkpt><trkpt lat="41.93438736108609" lon="12.802229969065946"><ele>229.33333333333334</ele><time>2026-05-02T12:45:07Z</time></trkpt><trkpt lat="41.934456791708165" lon="12.802204668261508"><ele>230.5</ele><time>2026-05-02T12:45:08Z</time></trkpt><trkpt lat="41.934531281971466" lon="12.802150223903032"><ele>231.66666666666669</ele><time>2026-05-02T12:45:09Z</time></trkpt><trkpt lat="41.934595225584296" lon="12.8020808526343"><ele>232.83333333333334</ele><time>2026-05-02T12:45:10Z</time></trkpt><trkpt lat="41.93465525488152" lon="12.801987727316224"><ele>234.0</ele><time>2026-05-02T12:45:11Z</time></trkpt><trkpt lat="41.93470252988071" lon="12.801877215226584"><ele>232.16666666666666</ele><time>2026-05-02T12:45:12Z</time></trkpt><trkpt lat="41.934747462694126" lon="12.801762715770515"><ele>230.33333333333331</ele><time>2026-05-02T12:45:13Z</time></trkpt><trkpt lat="41.93479731501407" lon="12.801646962075688"><ele>228.5</ele><time>2026-05-02T12:45:14Z</time></trkpt><trkpt lat="41.93484626846622" lon="12.801549417618535"><ele>226.66666666666666</ele><time>2026-05-02T12:45:15Z</time></trkpt><trkpt lat="41.934888071793466" lon="12.80146601828399"><ele>224.83333333333331</ele><time>2026-05-02T12:45:16Z</time></trkpt><trkpt lat="41.934932140410844" lon="12.801402763653096"><ele>223.0</ele><time>2026-05-02T12:45:17Z</time></trkpt><trkpt lat="41.9349764034661" lon="12.801338302558142"><ele>222.99999999999997</ele><time>2026-05-02T12:45:18Z</time></trkpt><trkpt lat="41.93504374138364" lon="12.801290437687618"><ele>223.0</ele><time>2026-05-02T12:45:19Z</time></trkpt><trkpt lat="41.935129352473155" lon="12.801245640972684"><ele>223.0</ele><time>2026-05-02T12:45:20Z</time></trkpt><trkpt lat="41.93521092570429" lon="12.801209324871479"><ele>223.0</ele><time>2026-05-02T12:45:21Z</time></trkpt><trkpt lat="41.93528952593283" lon="12.80116114129194"><ele>222.99999999999997</ele><time>2026-05-02T12:45:22Z</time></trkpt><trkpt lat="41.93535602562268" lon="12.801080532467743"><ele>223.0</ele><time>2026-05-02T12:45:23Z</time></trkpt><trkpt lat="41.93542736532287" lon="12.800992799954791"><ele>224.0</ele><time>2026-05-02T12:45:24Z</time></trkpt><trkpt lat="41.935476240674035" lon="12.80088427827205"><ele>225.0</ele><time>2026-05-02T12:45:25Z</time></trkpt><trkpt lat="41.93553238560007" lon="12.800784587115409"><ele>226.0</ele><time>2026-05-02T12:45:26Z</time></trkpt><trkpt lat="41.93558283426102" lon="12.800692178074536"><ele>227.0</ele><time>2026-05-02T12:45:27Z</time></trkpt><trkpt lat="41.93562600129295" lon="12.800611772932422"><ele>228.0</ele><time>2026-05-02T12:45:28Z</time></trkpt><trkpt lat="41.93570461378155" lon="12.80047959118652"><ele>228.0</ele><time>2026-05-02T12:45:30Z</time></trkpt><trkpt lat="41.93576484741137" lon="12.800422319969178"><ele>228.0</ele><time>2026-05-02T12:45:31Z</time></trkpt><trkpt lat="41.93583416882484" lon="12.800369262334309"><ele>228.0</ele><time>2026-05-02T12:45:32Z</time></trkpt><trkpt lat="41.93592385205347" lon="12.800310004113575"><ele>228.0</ele><time>2026-05-02T12:45:33Z</time></trkpt><trkpt lat="41.93601890307933" lon="12.800241768958207"><ele>228.0</ele><time>2026-05-02T12:45:34Z</time></trkpt><trkpt lat="41.936100927627535" lon="12.800174111244727"><ele>227.5</ele><time>2026-05-02T12:45:35Z</time></trkpt><trkpt lat="41.936182321650854" lon="12.800116890527278"><ele>227.0</ele><time>2026-05-02T12:45:36Z</time></trkpt><trkpt lat="41.93625098588343" lon="12.800076157098287"><ele>226.5</ele><time>2026-05-02T12:45:37Z</time></trkpt><trkpt lat="41.93631527634244" lon="12.800032739408213"><ele>226.0</ele><time>2026-05-02T12:45:38Z</time></trkpt><trkpt lat="41.93637744209807" lon="12.79997447276833"><ele>225.5</ele><time>2026-05-02T12:45:39Z</time></trkpt><trkpt lat="41.93643216472935" lon="12.799901694127321"><ele>225.0</ele><time>2026-05-02T12:45:40Z</time></trkpt><trkpt lat="41.93649649976552" lon="12.799814018071311"><ele>225.0</ele><time>2026-05-02T12:45:41Z</time></trkpt><trkpt lat="41.93656267220602" lon="12.79973007093933"><ele>225.0</ele><time>2026-05-02T12:45:42Z</time></trkpt><trkpt lat="41.93664875420296" lon="12.799661695851078"><ele>225.0</ele><time>2026-05-02T12:45:43Z</time></trkpt><trkpt lat="41.93673241447711" lon="12.799600902975886"><ele>225.0</ele><time>2026-05-02T12:45:44Z</time></trkpt><trkpt lat="41.93680311914022" lon="12.799543493304611"><ele>225.0</ele><time>2026-05-02T12:45:45Z</time></trkpt><trkpt lat="41.93687156623127" lon="12.799482380026804"><ele>225.66666666666666</ele><time>2026-05-02T12:45:46Z</time></trkpt><trkpt lat="41.936940500504" lon="12.799424719092356"><ele>226.33333333333331</ele><time>2026-05-02T12:45:47Z</time></trkpt><trkpt lat="41.93699811949106" lon="12.799361409056937"><ele>227.0</ele><time>2026-05-02T12:45:48Z</time></trkpt><trkpt lat="41.937051101148185" lon="12.799285662317972"><ele>227.66666666666666</ele><time>2026-05-02T12:45:49Z</time></trkpt><trkpt lat="41.93709586743287" lon="12.799193947157978"><ele>228.33333333333331</ele><time>2026-05-02T12:45:50Z</time></trkpt><trkpt lat="41.93713441040551" lon="12.79909161551638"><ele>229.0</ele><time>2026-05-02T12:45:51Z</time></trkpt><trkpt lat="41.93717228696437" lon="12.798975861612103"><ele>228.99999999999997</ele><time>2026-05-02T12:45:52Z</time></trkpt><trkpt lat="41.937194896139836" lon="12.798852087075547"><ele>229.0</ele><time>2026-05-02T12:45:53Z</time></trkpt><trkpt lat="41.93721805669973" lon="12.798728356402203"><ele>229.0</ele><time>2026-05-02T12:45:54Z</time></trkpt><trkpt lat="41.937244223818745" lon="12.798618870757648"><ele>229.0</ele><time>2026-05-02T12:45:55Z</time></trkpt><trkpt lat="41.93727641252546" lon="12.798531454490814"><ele>228.99999999999997</ele><time>2026-05-02T12:45:56Z</time></trkpt><trkpt lat="41.93731516498639" lon="12.798462057346436"><ele>229.0</ele><time>2026-05-02T12:45:57Z</time></trkpt><trkpt lat="41.93736450685471" lon="12.798402825604695"><ele>229.0</ele><time>2026-05-02T12:45:58Z</time></trkpt><trkpt lat="41.937427626175364" lon="12.798353756221843"><ele>228.99999999999997</ele><time>2026-05-02T12:45:59Z</time></trkpt><trkpt lat="41.93755890867229" lon="12.798324890458673"><ele>228.99999999999997</ele><time>2026-05-02T12:46:01Z</time></trkpt><trkpt lat="41.937635632077466" lon="12.798291965679784"><ele>229.0</ele><time>2026-05-02T12:46:02Z</time></trkpt><trkpt lat="41.937711597594124" lon="12.798246356801393"><ele>229.0</ele><time>2026-05-02T12:46:03Z</time></trkpt><trkpt lat="41.937793236761486" lon="12.798193993930203"><ele>228.99999999999997</ele><time>2026-05-02T12:46:04Z</time></trkpt><trkpt lat="41.937868992186914" lon="12.798150392563914"><ele>229.0</ele><time>2026-05-02T12:46:05Z</time></trkpt><trkpt lat="41.93794730386929" lon="12.798094732505106"><ele>229.0</ele><time>2026-05-02T12:46:06Z</time></trkpt><trkpt lat="41.93802455893294" lon="12.798032220003355"><ele>229.0</ele><time>2026-05-02T12:46:07Z</time></trkpt><trkpt lat="41.93810073993033" lon="12.797971802032569"><ele>228.99999999999997</ele><time>2026-05-02T12:46:08Z</time></trkpt><trkpt lat="41.93818318218666" lon="12.797905762445993"><ele>229.0</ele><time>2026-05-02T12:46:09Z</time></trkpt><trkpt lat="41.938263298423436" lon="12.797823725162262"><ele>229.0</ele><time>2026-05-02T12:46:10Z</time></trkpt><trkpt lat="41.93834420242487" lon="12.797720714330788"><ele>229.0</ele><time>2026-05-02T12:46:11Z</time></trkpt><trkpt lat="41.93841579657276" lon="12.79761985708811"><ele>229.0</ele><time>2026-05-02T12:46:12Z</time></trkpt><trkpt lat="41.93850104344771" lon="12.797517754207854"><ele>229.0</ele><time>2026-05-02T12:46:13Z</time></trkpt><trkpt lat="41.93860294112212" lon="12.797431977214577"><ele>229.0</ele><time>2026-05-02T12:46:14Z</time></trkpt><trkpt lat="41.93870989892854" lon="12.797351681724702"><ele>229.0</ele><time>2026-05-02T12:46:15Z</time></trkpt><trkpt lat="41.938808679880104" lon="12.7972535310587"><ele>229.0</ele><time>2026-05-02T12:46:16Z</time></trkpt><trkpt lat="41.93889926322027" lon="12.797134286066353"><ele>229.0</ele><time>2026-05-02T12:46:17Z</time></trkpt><trkpt lat="41.93899569093303" lon="12.797017417826945"><ele>229.0</ele><time>2026-05-02T12:46:18Z</time></trkpt><trkpt lat="41.93910239919391" lon="12.79691892534331"><ele>229.0</ele><time>2026-05-02T12:46:19Z</time></trkpt><trkpt lat="41.93920709410214" lon="12.79682521471437"><ele>229.0</ele><time>2026-05-02T12:46:20Z</time></trkpt><trkpt lat="41.939292426285185" lon="12.796738877876638"><ele>229.0</ele><time>2026-05-02T12:46:21Z</time></trkpt><trkpt lat="41.939366001438344" lon="12.796666666896813"><ele>228.83333333333331</ele><time>2026-05-02T12:46:22Z</time></trkpt><trkpt lat="41.93944365781506" lon="12.796611689895702"><ele>228.66666666666666</ele><time>2026-05-02T12:46:23Z</time></trkpt><trkpt lat="41.93952005329874" lon="12.796553036199143"><ele>228.5</ele><time>2026-05-02T12:46:24Z</time></trkpt><trkpt lat="41.93959570412944" lon="12.79649309878134"><ele>228.33333333333331</ele><time>2026-05-02T12:46:25Z</time></trkpt><trkpt lat="41.93966588746869" lon="12.796442990883673"><ele>228.16666666666666</ele><time>2026-05-02T12:46:26Z</time></trkpt><trkpt lat="41.939736332519836" lon="12.796387218513017"><ele>228.0</ele><time>2026-05-02T12:46:27Z</time></trkpt><trkpt lat="41.93981922638998" lon="12.796352516383584"><ele>228.0</ele><time>2026-05-02T12:46:28Z</time></trkpt><trkpt lat="41.93989982991161" lon="12.796318501304942"><ele>228.0</ele><time>2026-05-02T12:46:29Z</time></trkpt><trkpt lat="41.93997884540602" lon="12.796273330483475"><ele>228.0</ele><time>2026-05-02T12:46:30Z</time></trkpt><trkpt lat="41.94005019202026" lon="12.796237949017607"><ele>228.0</ele><time>2026-05-02T12:46:31Z</time></trkpt><trkpt lat="41.940126546993724" lon="12.7962134116706"><ele>228.0</ele><time>2026-05-02T12:46:32Z</time></trkpt><trkpt lat="41.94020941599841" lon="12.796205123456877"><ele>228.0</ele><time>2026-05-02T12:46:33Z</time></trkpt><trkpt lat="41.940292202837405" lon="12.796215372500873"><ele>228.4</ele><time>2026-05-02T12:46:34Z</time></trkpt><trkpt lat="41.940373557036715" lon="12.796229088210003"><ele>228.8</ele><time>2026-05-02T12:46:35Z</time></trkpt><trkpt lat="41.9404755653896" lon="12.796263843498116"><ele>229.2</ele><time>2026-05-02T12:46:36Z</time></trkpt><trkpt lat="41.94059411662212" lon="12.796331394300623"><ele>229.6</ele><time>2026-05-02T12:46:37Z</time></trkpt><trkpt lat="41.94068239208399" lon="12.796403880274935"><ele>230.0</ele><time>2026-05-02T12:46:38Z</time></trkpt><trkpt lat="41.94076089662814" lon="12.796453946258419"><ele>230.0</ele><time>2026-05-02T12:46:39Z</time></trkpt><trkpt lat="41.94083052033308" lon="12.796486850339763"><ele>230.0</ele><time>2026-05-02T12:46:40Z</time></trkpt><trkpt lat="41.940893790976354" lon="12.79650114566571"><ele>230.0</ele><time>2026-05-02T12:46:41Z</time></trkpt><trkpt lat="41.9410104968711" lon="12.796427047343528"><ele>230.0</ele><time>2026-05-02T12:46:43Z</time></trkpt><trkpt lat="41.94107581245346" lon="12.79632575660546"><ele>230.0</ele><time>2026-05-02T12:46:44Z</time></trkpt><trkpt lat="41.9411456704077" lon="12.796216410500092"><ele>229.2</ele><time>2026-05-02T12:46:45Z</time></trkpt><trkpt lat="41.94122116327599" lon="12.796120060577351"><ele>228.4</ele><time>2026-05-02T12:46:46Z</time></trkpt><trkpt lat="41.94129543649272" lon="12.796045328914587"><ele>227.60000000000002</ele><time>2026-05-02T12:46:47Z</time></trkpt><trkpt lat="41.94137120976725" lon="12.79598569944658"><ele>226.8</ele><time>2026-05-02T12:46:48Z</time></trkpt><trkpt lat="41.94144310796196" lon="12.795932413874166"><ele>226.0</ele><time>2026-05-02T12:46:49Z</time></trkpt><trkpt lat="41.94153047374858" lon="12.795904111620672"><ele>225.99999999999997</ele><time>2026-05-02T12:46:50Z</time></trkpt><trkpt lat="41.94160278251255" lon="12.795862931126154"><ele>226.0</ele><time>2026-05-02T12:46:51Z</time></trkpt><trkpt lat="41.94168186046147" lon="12.79584092169297"><ele>226.0</ele><time>2026-05-02T12:46:52Z</time></trkpt><trkpt lat="41.94175769632425" lon="12.795832243679177"><ele>226.0</ele><time>2026-05-02T12:46:53Z</time></trkpt><trkpt lat="41.94184156499595" lon="12.795811346320866"><ele>225.99999999999997</ele><time>2026-05-02T12:46:54Z</time></trkpt><trkpt lat="41.941925905288166" lon="12.795765076066832"><ele>226.0</ele><time>2026-05-02T12:46:54.999Z</time></trkpt><trkpt lat="41.94201459569622" lon="12.795702647260162"><ele>227.0</ele><time>2026-05-02T12:46:55.999Z</time></trkpt><trkpt lat="41.942103231870554" lon="12.79561494549339"><ele>228.00000000000003</ele><time>2026-05-02T12:46:56.999Z</time></trkpt><trkpt lat="41.942212211115944" lon="12.79552835040335"><ele>229.00000000000003</ele><time>2026-05-02T12:46:57.999Z</time></trkpt><trkpt lat="41.942313395956226" lon="12.795461007512403"><ele>230.0</ele><time>2026-05-02T12:46:58.999Z</time></trkpt><trkpt lat="41.94239973516872" lon="12.795401233832186"><ele>231.0</ele><time>2026-05-02T12:46:59.999Z</time></trkpt><trkpt lat="41.94248281722993" lon="12.795341508321934"><ele>233.20000000000002</ele><time>2026-05-02T12:47:00.999Z</time></trkpt><trkpt lat="41.942561138066175" lon="12.795285290424072"><ele>235.40000000000003</ele><time>2026-05-02T12:47:01.999Z</time></trkpt><trkpt lat="41.94264541122625" lon="12.795262968207524"><ele>237.6</ele><time>2026-05-02T12:47:02.999Z</time></trkpt><trkpt lat="41.94273275343928" lon="12.795241638435435"><ele>239.8</ele><time>2026-05-02T12:47:03.999Z</time></trkpt><trkpt lat="41.942820597923166" lon="12.795220715513706"><ele>242.0</ele><time>2026-05-02T12:47:04.999Z</time></trkpt><trkpt lat="41.94291592451328" lon="12.795192590341292"><ele>240.6</ele><time>2026-05-02T12:47:05.999Z</time></trkpt><trkpt lat="41.943014237547644" lon="12.79515669250869"><ele>239.2</ele><time>2026-05-02T12:47:06.999Z</time></trkpt><trkpt lat="41.94310960259907" lon="12.795101940925239"><ele>237.8</ele><time>2026-05-02T12:47:07.999Z</time></trkpt><trkpt lat="41.94321496738178" lon="12.795051549573975"><ele>236.4</ele><time>2026-05-02T12:47:08.999Z</time></trkpt><trkpt lat="41.94332041817433" lon="12.795010185809042"><ele>235.0</ele><time>2026-05-02T12:47:09.999Z</time></trkpt><trkpt lat="41.94343094499985" lon="12.794963928843721"><ele>235.0</ele><time>2026-05-02T12:47:10.999Z</time></trkpt><trkpt lat="41.94354904528347" lon="12.794912403046887"><ele>235.0</ele><time>2026-05-02T12:47:11.999Z</time></trkpt><trkpt lat="41.94366131506016" lon="12.794856004593996"><ele>235.0</ele><time>2026-05-02T12:47:12.999Z</time></trkpt><trkpt lat="41.94377405917593" lon="12.794796092010102"><ele>235.0</ele><time>2026-05-02T12:47:13.999Z</time></trkpt><trkpt lat="41.94388812942831" lon="12.794741063438446"><ele>235.0</ele><time>2026-05-02T12:47:14.999Z</time></trkpt><trkpt lat="41.944008321652376" lon="12.794691920946832"><ele>235.0</ele><time>2026-05-02T12:47:15.999Z</time></trkpt><trkpt lat="41.944120642751486" lon="12.794648607153407"><ele>235.0</ele><time>2026-05-02T12:47:16.999Z</time></trkpt><trkpt lat="41.94423823377079" lon="12.794609284163894"><ele>235.0</ele><time>2026-05-02T12:47:17.999Z</time></trkpt><trkpt lat="41.94434638008633" lon="12.794583132180106"><ele>235.25</ele><time>2026-05-02T12:47:18.999Z</time></trkpt><trkpt lat="41.944453245076616" lon="12.794550218948766"><ele>235.5</ele><time>2026-05-02T12:47:19.999Z</time></trkpt><trkpt lat="41.944564109182195" lon="12.79452432318367"><ele>235.75</ele><time>2026-05-02T12:47:20.999Z</time></trkpt><trkpt lat="41.944681000967265" lon="12.794503693521326"><ele>236.0</ele><time>2026-05-02T12:47:21.999Z</time></trkpt><trkpt lat="41.94480069492577" lon="12.794486774177672"><ele>236.0</ele><time>2026-05-02T12:47:22.999Z</time></trkpt><trkpt lat="41.94491923627119" lon="12.79448530373519"><ele>236.00000000000003</ele><time>2026-05-02T12:47:23.999Z</time></trkpt><trkpt lat="41.94503084071285" lon="12.794488167816843"><ele>236.00000000000003</ele><time>2026-05-02T12:47:24.999Z</time></trkpt><trkpt lat="41.94513955613292" lon="12.794499919287542"><ele>236.0</ele><time>2026-05-02T12:47:26Z</time></trkpt><trkpt lat="41.94524677485842" lon="12.79450862059208"><ele>236.0</ele><time>2026-05-02T12:47:27Z</time></trkpt><trkpt lat="41.94535749402741" lon="12.794524302530021"><ele>234.0</ele><time>2026-05-02T12:47:28Z</time></trkpt><trkpt lat="41.94547304920192" lon="12.794546345245754"><ele>232.00000000000003</ele><time>2026-05-02T12:47:29Z</time></trkpt><trkpt lat="41.94558945699074" lon="12.794568459049062"><ele>230.00000000000003</ele><time>2026-05-02T12:47:30Z</time></trkpt><trkpt lat="41.94569592906246" lon="12.794591992513713"><ele>228.0</ele><time>2026-05-02T12:47:31Z</time></trkpt><trkpt lat="41.945787774252175" lon="12.79461350547827"><ele>226.0</ele><time>2026-05-02T12:47:32Z</time></trkpt><trkpt lat="41.94587700551627" lon="12.794642851875317"><ele>224.2857142857143</ele><time>2026-05-02T12:47:33Z</time></trkpt><trkpt lat="41.945948904542256" lon="12.794669321624626"><ele>222.57142857142856</ele><time>2026-05-02T12:47:34Z</time></trkpt><trkpt lat="41.94601484652818" lon="12.794684306246191"><ele>220.85714285714286</ele><time>2026-05-02T12:47:35Z</time></trkpt><trkpt lat="41.94607853703143" lon="12.79470801311523"><ele>219.14285714285717</ele><time>2026-05-02T12:47:36Z</time></trkpt><trkpt lat="41.94614210996426" lon="12.794732583384569"><ele>217.42857142857144</ele><time>2026-05-02T12:47:37Z</time></trkpt><trkpt lat="41.94621144592338" lon="12.794768224836968"><ele>215.71428571428572</ele><time>2026-05-02T12:47:38Z</time></trkpt><trkpt lat="41.946279460441616" lon="12.794806627552955"><ele>214.0</ele><time>2026-05-02T12:47:39Z</time></trkpt><trkpt lat="41.94635172887788" lon="12.79485922769399"><ele>213.99999999999997</ele><time>2026-05-02T12:47:40Z</time></trkpt><trkpt lat="41.94642337050754" lon="12.794917800386887"><ele>214.0</ele><time>2026-05-02T12:47:41Z</time></trkpt><trkpt lat="41.94649320862246" lon="12.794996350019868"><ele>214.0</ele><time>2026-05-02T12:47:42Z</time></trkpt><trkpt lat="41.946553610140235" lon="12.79507478168057"><ele>214.0</ele><time>2026-05-02T12:47:43Z</time></trkpt><trkpt lat="41.946614728803134" lon="12.795151926846493"><ele>213.99999999999997</ele><time>2026-05-02T12:47:44Z</time></trkpt><trkpt lat="41.94667640945164" lon="12.79521244617098"><ele>214.0</ele><time>2026-05-02T12:47:45Z</time></trkpt><trkpt lat="41.94674907445484" lon="12.795243810245365"><ele>214.66666666666666</ele><time>2026-05-02T12:47:46Z</time></trkpt><trkpt lat="41.946828826944305" lon="12.795246692161728"><ele>215.33333333333331</ele><time>2026-05-02T12:47:47Z</time></trkpt><trkpt lat="41.946923242782674" lon="12.795225693640011"><ele>216.0</ele><time>2026-05-02T12:47:48Z</time></trkpt><trkpt lat="41.947017147708486" lon="12.795196591527393"><ele>216.66666666666669</ele><time>2026-05-02T12:47:49Z</time></trkpt><trkpt lat="41.94708044886056" lon="12.795162667225917"><ele>217.33333333333334</ele><time>2026-05-02T12:47:50Z</time></trkpt><trkpt lat="41.94714452666657" lon="12.795130795572408"><ele>218.0</ele><time>2026-05-02T12:47:51Z</time></trkpt><trkpt lat="41.94721407453956" lon="12.795104847209096"><ele>218.0</ele><time>2026-05-02T12:47:52Z</time></trkpt><trkpt lat="41.94728241535524" lon="12.795059573732566"><ele>218.0</ele><time>2026-05-02T12:47:53Z</time></trkpt><trkpt lat="41.94736516486989" lon="12.79502166814341"><ele>218.0</ele><time>2026-05-02T12:47:54Z</time></trkpt><trkpt lat="41.94745409469549" lon="12.794983509504219"><ele>218.0</ele><time>2026-05-02T12:47:55Z</time></trkpt><trkpt lat="41.94755163972847" lon="12.794935827832319"><ele>218.0</ele><time>2026-05-02T12:47:56Z</time></trkpt><trkpt lat="41.947652040970425" lon="12.794896752684057"><ele>218.16666666666669</ele><time>2026-05-02T12:47:57Z</time></trkpt><trkpt lat="41.94773933293622" lon="12.794866528350619"><ele>218.33333333333334</ele><time>2026-05-02T12:47:58Z</time></trkpt><trkpt lat="41.94781576562526" lon="12.794837208617928"><ele>218.5</ele><time>2026-05-02T12:47:59Z</time></trkpt><trkpt lat="41.947886223549915" lon="12.79481574791209"><ele>218.66666666666669</ele><time>2026-05-02T12:48:00Z</time></trkpt><trkpt lat="41.947974936086055" lon="12.79479317006065"><ele>218.83333333333334</ele><time>2026-05-02T12:48:01Z</time></trkpt><trkpt lat="41.94805672595586" lon="12.794774219660345"><ele>219.0</ele><time>2026-05-02T12:48:02Z</time></trkpt><trkpt lat="41.94814423593242" lon="12.79476654659231"><ele>219.0</ele><time>2026-05-02T12:48:03Z</time></trkpt><trkpt lat="41.9482253546592" lon="12.794795479990704"><ele>218.99999999999997</ele><time>2026-05-02T12:48:04Z</time></trkpt><trkpt lat="41.948294461231875" lon="12.794848878446226"><ele>218.99999999999997</ele><time>2026-05-02T12:48:05Z</time></trkpt><trkpt lat="41.9483853464423" lon="12.794926040403547"><ele>219.0</ele><time>2026-05-02T12:48:06Z</time></trkpt><trkpt lat="41.948483940005985" lon="12.795035877016126"><ele>219.0</ele><time>2026-05-02T12:48:07Z</time></trkpt><trkpt lat="41.948556908218755" lon="12.795142005797194"><ele>221.83333333333334</ele><time>2026-05-02T12:48:08Z</time></trkpt><trkpt lat="41.948624192872465" lon="12.795235762268344"><ele>224.66666666666669</ele><time>2026-05-02T12:48:09Z</time></trkpt><trkpt lat="41.94868811519127" lon="12.795314170368998"><ele>227.5</ele><time>2026-05-02T12:48:10Z</time></trkpt><trkpt lat="41.94875136634302" lon="12.795375019272793"><ele>230.33333333333334</ele><time>2026-05-02T12:48:11Z</time></trkpt><trkpt lat="41.94881274841801" lon="12.795426615385034"><ele>233.16666666666669</ele><time>2026-05-02T12:48:12Z</time></trkpt><trkpt lat="41.948888770165624" lon="12.79546537135976"><ele>236.0</ele><time>2026-05-02T12:48:13Z</time></trkpt><trkpt lat="41.94896853360049" lon="12.795477420525497"><ele>236.0</ele><time>2026-05-02T12:48:14Z</time></trkpt><trkpt lat="41.94903771540444" lon="12.795429765400206"><ele>236.00000000000003</ele><time>2026-05-02T12:48:15Z</time></trkpt><trkpt lat="41.94910898131573" lon="12.79536048309883"><ele>236.00000000000003</ele><time>2026-05-02T12:48:16Z</time></trkpt><trkpt lat="41.949180059125965" lon="12.79527527824867"><ele>236.0</ele><time>2026-05-02T12:48:17Z</time></trkpt><trkpt lat="41.94924397554292" lon="12.795181331354854"><ele>236.0</ele><time>2026-05-02T12:48:18Z</time></trkpt><trkpt lat="41.949313690619135" lon="12.79508472218827"><ele>234.20000000000002</ele><time>2026-05-02T12:48:19Z</time></trkpt><trkpt lat="41.94938781456371" lon="12.79499225319667"><ele>232.40000000000003</ele><time>2026-05-02T12:48:20Z</time></trkpt><trkpt lat="41.94947768744057" lon="12.79491459499496"><ele>230.6</ele><time>2026-05-02T12:48:21Z</time></trkpt><trkpt lat="41.949564877928424" lon="12.794844845575895"><ele>228.8</ele><time>2026-05-02T12:48:22Z</time></trkpt><trkpt lat="41.94964688455737" lon="12.794786290405439"><ele>227.0</ele><time>2026-05-02T12:48:23Z</time></trkpt><trkpt lat="41.94971596905269" lon="12.794747843963341"><ele>227.00000000000003</ele><time>2026-05-02T12:48:24Z</time></trkpt><trkpt lat="41.949775576437894" lon="12.794714087847721"><ele>227.0</ele><time>2026-05-02T12:48:25Z</time></trkpt><trkpt lat="41.94984098844729" lon="12.794690139898274"><ele>227.0</ele><time>2026-05-02T12:48:26Z</time></trkpt><trkpt lat="41.949910384112584" lon="12.79468819079796"><ele>227.0</ele><time>2026-05-02T12:48:27Z</time></trkpt><trkpt lat="41.94998029691785" lon="12.794713161392446"><ele>227.00000000000003</ele><time>2026-05-02T12:48:28Z</time></trkpt><trkpt lat="41.95005055304432" lon="12.794767731390186"><ele>227.0</ele><time>2026-05-02T12:48:29Z</time></trkpt><trkpt lat="41.950134970211906" lon="12.794839370829061"><ele>228.66666666666669</ele><time>2026-05-02T12:48:30Z</time></trkpt><trkpt lat="41.95022986191071" lon="12.794910002551841"><ele>230.33333333333334</ele><time>2026-05-02T12:48:31Z</time></trkpt><trkpt lat="41.95031465161174" lon="12.794958086638244"><ele>232.0</ele><time>2026-05-02T12:48:32Z</time></trkpt><trkpt lat="41.95038625935668" lon="12.795002822019137"><ele>233.66666666666669</ele><time>2026-05-02T12:48:33Z</time></trkpt><trkpt lat="41.95045250945511" lon="12.795019373005662"><ele>235.33333333333334</ele><time>2026-05-02T12:48:34Z</time></trkpt><trkpt lat="41.950517885965766" lon="12.795005645169985"><ele>237.0</ele><time>2026-05-02T12:48:35Z</time></trkpt><trkpt lat="41.95057420096274" lon="12.794961007601167"><ele>237.0</ele><time>2026-05-02T12:48:36Z</time></trkpt><trkpt lat="41.950623412550264" lon="12.794866094096795"><ele>237.0</ele><time>2026-05-02T12:48:37Z</time></trkpt><trkpt lat="41.95065784516614" lon="12.794739828913542"><ele>237.0</ele><time>2026-05-02T12:48:38Z</time></trkpt><trkpt lat="41.950683162108454" lon="12.794626684740443"><ele>237.0</ele><time>2026-05-02T12:48:39Z</time></trkpt><trkpt lat="41.95070547490941" lon="12.79452656015455"><ele>237.0</ele><time>2026-05-02T12:48:40Z</time></trkpt><trkpt lat="41.950730422523236" lon="12.794429817457612"><ele>237.0</ele><time>2026-05-02T12:48:41Z</time></trkpt><trkpt lat="41.950754306082956" lon="12.794334419600522"><ele>236.2</ele><time>2026-05-02T12:48:42Z</time></trkpt><trkpt lat="41.95078115000494" lon="12.794243058409078"><ele>235.39999999999998</ele><time>2026-05-02T12:48:43Z</time></trkpt><trkpt lat="41.95081818094654" lon="12.79410707199052"><ele>234.60000000000002</ele><time>2026-05-02T12:48:45Z</time></trkpt><trkpt lat="41.95085477547652" lon="12.79397422714694"><ele>233.8</ele><time>2026-05-02T12:48:47Z</time></trkpt><trkpt lat="41.95089488510836" lon="12.793811424678776"><ele>233.0</ele><time>2026-05-02T12:48:49Z</time></trkpt><trkpt lat="41.95093866209984" lon="12.793731488325914"><ele>234.16666666666669</ele><time>2026-05-02T12:48:50Z</time></trkpt><trkpt lat="41.95096715736576" lon="12.793643775106519"><ele>235.33333333333334</ele><time>2026-05-02T12:48:51Z</time></trkpt><trkpt lat="41.951002509451655" lon="12.793568241423106"><ele>236.5</ele><time>2026-05-02T12:48:52Z</time></trkpt><trkpt lat="41.95103843351493" lon="12.79349168859191"><ele>237.66666666666669</ele><time>2026-05-02T12:48:53Z</time></trkpt><trkpt lat="41.95108715137172" lon="12.79343673353528"><ele>238.83333333333334</ele><time>2026-05-02T12:48:54Z</time></trkpt><trkpt lat="41.95119477957106" lon="12.79336700388694"><ele>240.0</ele><time>2026-05-02T12:48:56Z</time></trkpt><trkpt lat="41.95130567813245" lon="12.79332332980286"><ele>240.0</ele><time>2026-05-02T12:48:58Z</time></trkpt><trkpt lat="41.951434757220184" lon="12.793269616538263"><ele>240.0</ele><time>2026-05-02T12:49:00Z</time></trkpt><trkpt lat="41.951513222749035" lon="12.793234117587977"><ele>240.0</ele><time>2026-05-02T12:49:00.999Z</time></trkpt><trkpt lat="41.95161489800744" lon="12.793199758642448"><ele>240.0</ele><time>2026-05-02T12:49:01.999Z</time></trkpt><trkpt lat="41.951718989010054" lon="12.793183645386947"><ele>240.0</ele><time>2026-05-02T12:49:02.999Z</time></trkpt><trkpt lat="41.95182326117689" lon="12.793152445681581"><ele>242.25</ele><time>2026-05-02T12:49:03.999Z</time></trkpt><trkpt lat="41.95193238707842" lon="12.79312255873727"><ele>244.5</ele><time>2026-05-02T12:49:04.999Z</time></trkpt><trkpt lat="41.952041341018436" lon="12.7930912122887"><ele>246.75</ele><time>2026-05-02T12:49:05.999Z</time></trkpt><trkpt lat="41.95215593682766" lon="12.793065813799915"><ele>249.0</ele><time>2026-05-02T12:49:06.999Z</time></trkpt><trkpt lat="41.952268472654964" lon="12.793019160796312"><ele>249.0</ele><time>2026-05-02T12:49:07.999Z</time></trkpt><trkpt lat="41.95239167536797" lon="12.792999104006215"><ele>249.0</ele><time>2026-05-02T12:49:08.999Z</time></trkpt><trkpt lat="41.95251749336282" lon="12.792979194824223"><ele>249.0</ele><time>2026-05-02T12:49:09.999Z</time></trkpt><trkpt lat="41.95263609531276" lon="12.792958419572663"><ele>249.0</ele><time>2026-05-02T12:49:10.999Z</time></trkpt><trkpt lat="41.95276947949866" lon="12.792939454093807"><ele>250.25</ele><time>2026-05-02T12:49:11.999Z</time></trkpt><trkpt lat="41.952896601483054" lon="12.792917496811233"><ele>251.5</ele><time>2026-05-02T12:49:12.999Z</time></trkpt><trkpt lat="41.953028468289496" lon="12.792904786164259"><ele>252.75</ele><time>2026-05-02T12:49:13.999Z</time></trkpt><trkpt lat="41.95315946898599" lon="12.792889504567354"><ele>254.0</ele><time>2026-05-02T12:49:14.999Z</time></trkpt><trkpt lat="41.953285956765406" lon="12.792881355632701"><ele>253.5</ele><time>2026-05-02T12:49:15.999Z</time></trkpt><trkpt lat="41.95340598321896" lon="12.79289231033003"><ele>253.0</ele><time>2026-05-02T12:49:16.999Z</time></trkpt><trkpt lat="41.95352701122552" lon="12.792882157549382"><ele>252.5</ele><time>2026-05-02T12:49:17.999Z</time></trkpt><trkpt lat="41.95364711115041" lon="12.79286140382336"><ele>252.0</ele><time>2026-05-02T12:49:18.999Z</time></trkpt><trkpt lat="41.953769559468654" lon="12.792847415720892"><ele>252.0</ele><time>2026-05-02T12:49:19.999Z</time></trkpt><trkpt lat="41.95388856626956" lon="12.792840196152847"><ele>252.0</ele><time>2026-05-02T12:49:20.999Z</time></trkpt><trkpt lat="41.95400862637682" lon="12.79282853391542"><ele>252.0</ele><time>2026-05-02T12:49:21.999Z</time></trkpt><trkpt lat="41.954128540212196" lon="12.792819703361438"><ele>252.0</ele><time>2026-05-02T12:49:22.999Z</time></trkpt><trkpt lat="41.954253488733904" lon="12.792815459432997"><ele>252.25</ele><time>2026-05-02T12:49:23.999Z</time></trkpt><trkpt lat="41.95437888813519" lon="12.79280747385687"><ele>252.5</ele><time>2026-05-02T12:49:24.999Z</time></trkpt><trkpt lat="41.954497217280405" lon="12.792797283859189"><ele>252.75</ele><time>2026-05-02T12:49:25.999Z</time></trkpt><trkpt lat="41.9546144202254" lon="12.792805534305367"><ele>253.0</ele><time>2026-05-02T12:49:26.999Z</time></trkpt><trkpt lat="41.954719136665574" lon="12.792829602043545"><ele>253.0</ele><time>2026-05-02T12:49:28Z</time></trkpt><trkpt lat="41.954832915023026" lon="12.7928773352843"><ele>253.0</ele><time>2026-05-02T12:49:29Z</time></trkpt><trkpt lat="41.95495237469243" lon="12.792915054558243"><ele>253.0</ele><time>2026-05-02T12:49:30Z</time></trkpt><trkpt lat="41.95507164400594" lon="12.7929518046737"><ele>253.0</ele><time>2026-05-02T12:49:31Z</time></trkpt><trkpt lat="41.95519438987637" lon="12.792989903411206"><ele>252.75</ele><time>2026-05-02T12:49:32Z</time></trkpt><trkpt lat="41.955324748256345" lon="12.79302958480286"><ele>252.5</ele><time>2026-05-02T12:49:33Z</time></trkpt><trkpt lat="41.95545188581857" lon="12.793057818784703"><ele>252.25</ele><time>2026-05-02T12:49:34Z</time></trkpt><trkpt lat="41.95558059071254" lon="12.793097654952948"><ele>252.0</ele><time>2026-05-02T12:49:35Z</time></trkpt><trkpt lat="41.955693878035014" lon="12.793146582770468"><ele>252.0</ele><time>2026-05-02T12:49:36Z</time></trkpt><trkpt lat="41.955788117919404" lon="12.793169387655125"><ele>252.0</ele><time>2026-05-02T12:49:37Z</time></trkpt><trkpt lat="41.95590547083233" lon="12.793208992639508"><ele>252.0</ele><time>2026-05-02T12:49:38Z</time></trkpt><trkpt lat="41.95600927335089" lon="12.79325380773153"><ele>252.0</ele><time>2026-05-02T12:49:39Z</time></trkpt><trkpt lat="41.95612527498139" lon="12.793309357666226"><ele>252.0</ele><time>2026-05-02T12:49:40Z</time></trkpt><trkpt lat="41.9562301132497" lon="12.793361721658929"><ele>250.0</ele><time>2026-05-02T12:49:41Z</time></trkpt><trkpt lat="41.956339794716776" lon="12.793406437814722"><ele>248.0</ele><time>2026-05-02T12:49:42Z</time></trkpt><trkpt lat="41.956450042954074" lon="12.793457046530648"><ele>246.0</ele><time>2026-05-02T12:49:43Z</time></trkpt><trkpt lat="41.95656660352158" lon="12.79350344225772"><ele>244.0</ele><time>2026-05-02T12:49:44Z</time></trkpt><trkpt lat="41.95668810999082" lon="12.793543709402144"><ele>246.75</ele><time>2026-05-02T12:49:45Z</time></trkpt><trkpt lat="41.95680310830719" lon="12.793608080338458"><ele>249.5</ele><time>2026-05-02T12:49:46Z</time></trkpt><trkpt lat="41.95692738838776" lon="12.79363659180022"><ele>252.25</ele><time>2026-05-02T12:49:47Z</time></trkpt><trkpt lat="41.957049373660865" lon="12.793672786872662"><ele>255.0</ele><time>2026-05-02T12:49:48Z</time></trkpt><trkpt lat="41.95716923576309" lon="12.793704178784289"><ele>255.0</ele><time>2026-05-02T12:49:49Z</time></trkpt><trkpt lat="41.95728296675568" lon="12.79373380808938"><ele>255.0</ele><time>2026-05-02T12:49:50Z</time></trkpt><trkpt lat="41.957388133364105" lon="12.793766593112668"><ele>255.0</ele><time>2026-05-02T12:49:51Z</time></trkpt><trkpt lat="41.957497178462035" lon="12.793803974305275"><ele>255.0</ele><time>2026-05-02T12:49:52Z</time></trkpt><trkpt lat="41.95760139903509" lon="12.793841809836616"><ele>255.0</ele><time>2026-05-02T12:49:53Z</time></trkpt><trkpt lat="41.95769090709266" lon="12.793871930842522"><ele>253.16666666666666</ele><time>2026-05-02T12:49:54Z</time></trkpt><trkpt lat="41.95777551287418" lon="12.793895296607705"><ele>251.33333333333331</ele><time>2026-05-02T12:49:55Z</time></trkpt><trkpt lat="41.957852731009034" lon="12.793922398017543"><ele>249.5</ele><time>2026-05-02T12:49:56Z</time></trkpt><trkpt lat="41.95791612197613" lon="12.793950464570317"><ele>247.66666666666666</ele><time>2026-05-02T12:49:57Z</time></trkpt><trkpt lat="41.95800384225144" lon="12.79398141402123"><ele>245.83333333333331</ele><time>2026-05-02T12:49:59Z</time></trkpt><trkpt lat="41.95807008722166" lon="12.79399733597046"><ele>244.0</ele><time>2026-05-02T12:50:01Z</time></trkpt><trkpt lat="41.95814272895559" lon="12.794027051925632"><ele>243.99999999999997</ele><time>2026-05-02T12:50:03Z</time></trkpt><trkpt lat="41.958209394751215" lon="12.794054079833755"><ele>244.0</ele><time>2026-05-02T12:50:04Z</time></trkpt><trkpt lat="41.9582836825501" lon="12.794091776212547"><ele>244.0</ele><time>2026-05-02T12:50:05Z</time></trkpt><trkpt lat="41.9583626548032" lon="12.794143550091833"><ele>244.0</ele><time>2026-05-02T12:50:06Z</time></trkpt><trkpt lat="41.95844662029799" lon="12.79421323310796"><ele>243.99999999999997</ele><time>2026-05-02T12:50:07Z</time></trkpt><trkpt lat="41.958530095720306" lon="12.794280397018738"><ele>244.0</ele><time>2026-05-02T12:50:08Z</time></trkpt><trkpt lat="41.95861500723983" lon="12.794348076695782"><ele>245.0</ele><time>2026-05-02T12:50:09Z</time></trkpt><trkpt lat="41.95870239502239" lon="12.79440743362335"><ele>245.99999999999997</ele><time>2026-05-02T12:50:10Z</time></trkpt><trkpt lat="41.95879617012494" lon="12.794476888811788"><ele>246.99999999999997</ele><time>2026-05-02T12:50:11Z</time></trkpt><trkpt lat="41.95889747248137" lon="12.794560344334528"><ele>248.0</ele><time>2026-05-02T12:50:12Z</time></trkpt><trkpt lat="41.95897874365496" lon="12.794624277493943"><ele>249.0</ele><time>2026-05-02T12:50:13Z</time></trkpt><trkpt lat="41.959055203203285" lon="12.794679890097957"><ele>249.0</ele><time>2026-05-02T12:50:14Z</time></trkpt><trkpt lat="41.95914695441556" lon="12.794763254937669"><ele>248.99999999999997</ele><time>2026-05-02T12:50:15Z</time></trkpt><trkpt lat="41.95923419011651" lon="12.794824963065674"><ele>248.99999999999997</ele><time>2026-05-02T12:50:16Z</time></trkpt><trkpt lat="41.95933496033932" lon="12.794898260169512"><ele>249.0</ele><time>2026-05-02T12:50:17Z</time></trkpt><trkpt lat="41.95943852637837" lon="12.794973096197692"><ele>249.0</ele><time>2026-05-02T12:50:18Z</time></trkpt><trkpt lat="41.9595388136064" lon="12.795039979924365"><ele>248.79999999999998</ele><time>2026-05-02T12:50:19Z</time></trkpt><trkpt lat="41.95964019264049" lon="12.795073683158915"><ele>248.59999999999997</ele><time>2026-05-02T12:50:20Z</time></trkpt><trkpt lat="41.9597253388567" lon="12.79515621777014"><ele>248.4</ele><time>2026-05-02T12:50:21Z</time></trkpt><trkpt lat="41.95980856386286" lon="12.79521048062313"><ele>248.2</ele><time>2026-05-02T12:50:22Z</time></trkpt><trkpt lat="41.95988698170425" lon="12.795255648350127"><ele>248.0</ele><time>2026-05-02T12:50:23Z</time></trkpt><trkpt lat="41.9599556954497" lon="12.795323832951272"><ele>248.00000000000003</ele><time>2026-05-02T12:50:24Z</time></trkpt><trkpt lat="41.960022472066335" lon="12.795372899107035"><ele>248.0</ele><time>2026-05-02T12:50:25Z</time></trkpt><trkpt lat="41.9600964095101" lon="12.7954251565465"><ele>248.0</ele><time>2026-05-02T12:50:26Z</time></trkpt><trkpt lat="41.96017709640811" lon="12.795488807963089"><ele>248.0</ele><time>2026-05-02T12:50:27Z</time></trkpt><trkpt lat="41.96024418016197" lon="12.795555143273905"><ele>248.00000000000003</ele><time>2026-05-02T12:50:28Z</time></trkpt><trkpt lat="41.960302971447" lon="12.795614733512185"><ele>248.0</ele><time>2026-05-02T12:50:29Z</time></trkpt><trkpt lat="41.96038788653232" lon="12.795747027140353"><ele>247.33333333333334</ele><time>2026-05-02T12:50:31Z</time></trkpt><trkpt lat="41.96042365102445" lon="12.795851844824657"><ele>246.66666666666669</ele><time>2026-05-02T12:50:32Z</time></trkpt><trkpt lat="41.96045261003666" lon="12.795942666640737"><ele>246.0</ele><time>2026-05-02T12:50:33Z</time></trkpt><trkpt lat="41.96047988100866" lon="12.796019804866429"><ele>245.33333333333331</ele><time>2026-05-02T12:50:34Z</time></trkpt><trkpt lat="41.960512497711434" lon="12.79613996676371"><ele>244.66666666666666</ele><time>2026-05-02T12:50:36Z</time></trkpt><trkpt lat="41.96056601021552" lon="12.796214152238187"><ele>244.0</ele><time>2026-05-02T12:50:40Z</time></trkpt><trkpt lat="41.96060890134327" lon="12.796281327624468"><ele>243.99999999999997</ele><time>2026-05-02T12:50:45Z</time></trkpt><trkpt lat="41.96065265480588" lon="12.79634592583878"><ele>244.0</ele><time>2026-05-02T12:51:06Z</time></trkpt><trkpt lat="41.96068001139509" lon="12.796439809438843"><ele>244.0</ele><time>2026-05-02T12:51:08.999Z</time></trkpt><trkpt lat="41.96069447810115" lon="12.796575128268607"><ele>244.0</ele><time>2026-05-02T12:51:10.999Z</time></trkpt><trkpt lat="41.960651066525486" lon="12.796704011493933"><ele>243.99999999999997</ele><time>2026-05-02T12:51:12.999Z</time></trkpt><trkpt lat="41.96059751720828" lon="12.796777371371912"><ele>244.0</ele><time>2026-05-02T12:51:14.999Z</time></trkpt><trkpt lat="41.960534809109554" lon="12.796828465010869"><ele>243.99999999999997</ele><time>2026-05-02T12:51:18.999Z</time></trkpt><trkpt lat="41.960472190666295" lon="12.796842728635664"><ele>244.0</ele><time>2026-05-02T12:51:25.999Z</time></trkpt><trkpt lat="41.960409963315364" lon="12.796810129816615"><ele>243.99999999999997</ele><time>2026-05-02T12:52:35Z</time></trkpt><trkpt lat="41.96032888605394" lon="12.796886653355694"><ele>243.99999999999997</ele><time>2026-05-02T12:52:59Z</time></trkpt><trkpt lat="41.96026741500113" lon="12.796908701785583"><ele>244.0</ele><time>2026-05-02T12:53:05Z</time></trkpt><trkpt lat="41.96022387777246" lon="12.796978847007932"><ele>243.99999999999997</ele><time>2026-05-02T12:53:10Z</time></trkpt><trkpt lat="41.96018370103565" lon="12.797059907320296"><ele>243.99999999999997</ele><time>2026-05-02T12:55:32.001Z</time></trkpt><trkpt lat="41.96018847762414" lon="12.797148328296085"><ele>246.0</ele><time>2026-05-02T12:56:55.001Z</time></trkpt></trkseg></trk></gpx>